[[{"header":{"parameterUnit":"m.s-1","parameterCategory":1,"la1":30.6,"la2":28.766,"lo1":-90.7593,"lo2":-88.6598,"dx":0.0162,"dy":0.0183,"nx":116,"ny":114,"refTime":"2023-01-14T06:00:00:Z","depth":0,"parameterNumber":2,"parameterNumberName":"U-component_of_WINDS"},"data":[0.0,0.0,0.0,0.0,0.0,0.0,0.0,0.0,0.0,0.0,0.0,0.0,0.0,0.0,0.0,0.0,0.0,0.0,0.0,0.0,0.0,0.0,0.0,0.0,0.0,0.0,0.0,0.0,0.0,0.0,0.0,0.0,0.0,0.0,0.0,0.0,0.0,0.0,0.0,0.0,0.0,0.0,0.0,0.0,0.0,0.0,0.0,0.0,0.0,0.0,0.0,0.0,0.0,0.0,0.0,0.0,0.0,0.0,0.0,0.0,0.0,0.0,0.0,0.0,0.0,0.0,0.0,0.0,0.0,0.0,0.0,0.0,0.0,0.0,0.0,0.0,0.0,0.0,0.0,0.0,0.0,0.0,0.0,0.0,0.0,0.0,0.0,0.0,0.0,0.0,0.0,0.0,0.0,0.0,0.0,0.0,0.0,0.0,0.0,0.0,0.0,0.0,0.0,0.0,0.0,0.0,0.0,0.0,0.0,0.0,0.0,0.0,0.0,0.0,0.0,0.0,0.0,0.0,0.0,0.0,0.0,0.0,0.0,0.0,0.0,0.0,0.0,0.0,0.0,0.0,0.0,0.0,0.0,0.0,0.0,0.0,0.0,0.0,0.0,0.0,0.0,0.0,0.0,0.0,0.0,0.0,0.0,0.0,0.0,0.0,0.0,0.0,0.0,0.0,0.0,0.0,0.0,0.0,0.0,0.0,0.0,0.0,0.0,0.0,0.0,0.0,0.0,0.0,0.0,0.0,0.0,0.0,0.0,0.0,0.0,0.0,0.0,0.0,0.0,0.0,0.0,0.0,0.0,0.0,0.0,0.0,0.0,0.0,0.0,0.0,0.0,0.0,0.0,0.0,0.0,0.0,0.0,0.0,0.0,0.0,0.0,0.0,0.0,0.0,0.0,0.0,0.0,0.0,0.0,0.0,0.0,0.0,0.0,0.0,0.0,0.0,0.0,0.0,0.0,0.0,0.0,0.0,0.0,0.0,0.0,0.0,0.0,0.0,0.0,0.0,0.0,0.0,0.0,0.0,0.0,0.0,0.0,0.0,0.0,0.0,0.0,0.0,0.0,0.0,0.0,0.0,0.0,0.0,0.0,0.0,0.0,0.0,0.0,0.0,0.0,0.0,0.0,0.0,0.0,0.0,0.0,0.0,0.0,0.0,0.0,0.0,0.0,0.0,0.0,0.0,0.0,0.0,0.0,0.0,0.0,0.0,0.0,0.0,0.0,0.0,0.0,0.0,0.0,0.0,0.0,0.0,0.0,0.0,0.0,0.0,0.0,0.0,0.0,0.0,0.0,0.0,0.0,0.0,0.0,0.0,0.0,0.0,0.0,0.0,0.0,0.0,0.0,0.0,0.0,0.0,0.0,0.0,0.0,0.0,0.0,0.0,0.0,0.0,0.0,0.0,0.0,0.0,0.0,0.0,0.0,0.0,0.0,0.0,0.0,0.0,0.0,0.0,0.0,0.0,0.0,0.0,0.0,0.0,0.0,0.0,0.0,0.0,0.0,0.0,0.0,0.0,0.0,0.0,0.0,0.0,0.0,0.0,0.0,0.0,0.0,0.0,0.0,0.0,0.0,0.0,0.0,0.0,0.0,0.0,0.0,0.0,0.0,0.0,0.0,0.0,0.0,0.0,0.0,0.0,0.0,0.0,0.0,0.0,0.0,0.0,0.0,0.0,0.0,0.0,0.0,0.0,0.0,0.0,0.0,0.0,0.0,0.0,0.0,0.0,0.0,0.0,0.0,0.0,0.0,0.0,0.0,0.0,0.0,0.0,0.0,0.0,0.0,0.0,0.0,0.0,0.0,0.0,0.0,0.0,0.0,0.0,0.0,0.0,0.0,0.0,0.0,0.0,0.0,0.0,0.0,0.0,0.0,0.0,0.0,0.0,0.0,0.0,0.0,0.0,0.0,0.0,0.0,0.0,0.0,0.0,0.0,0.0,0.0,0.0,0.0,0.0,0.0,0.0,0.0,0.0,0.0,0.0,0.0,0.0,0.0,0.0,0.0,0.0,0.0,0.0,0.0,0.0,0.0,0.0,0.0,0.0,0.0,0.0,0.0,0.0,0.0,0.0,0.0,0.0,0.0,0.0,0.0,0.0,0.0,0.0,0.0,0.0,0.0,0.0,0.0,0.0,0.0,0.0,0.0,0.0,0.0,0.0,0.0,0.0,0.0,0.0,0.0,0.0,0.0,0.0,0.0,0.0,0.0,0.0,0.0,0.0,0.0,0.0,0.0,0.0,0.0,0.0,0.0,0.0,0.0,0.0,0.0,0.0,0.0,0.0,0.0,0.0,0.0,0.0,0.0,0.0,0.0,0.0,0.0,0.0,0.0,0.0,0.0,0.0,0.0,0.0,0.0,0.0,0.0,0.0,0.0,0.0,0.0,0.0,0.0,0.0,0.0,0.0,0.0,0.0,0.0,0.0,0.0,0.0,0.0,0.0,0.0,0.0,0.0,0.0,0.0,0.0,0.0,0.0,0.0,0.0,0.0,0.0,0.0,0.0,0.0,0.0,0.0,0.0,0.0,0.0,0.0,0.0,0.0,0.0,0.0,0.0,0.0,0.0,0.0,0.0,0.0,0.0,0.0,0.0,0.0,0.0,0.0,0.0,0.0,0.0,0.0,0.0,0.0,0.0,0.0,0.0,0.0,0.0,0.0,0.0,0.0,0.0,0.0,0.0,0.0,0.0,0.0,0.0,0.0,0.0,0.0,0.0,0.0,0.0,0.0,0.0,0.0,0.0,0.0,0.0,0.0,0.0,0.0,0.0,0.0,0.0,0.0,0.0,0.0,0.0,0.0,0.0,0.0,0.0,0.0,0.0,0.0,0.0,0.0,0.0,0.0,0.0,0.0,0.0,0.0,0.0,0.0,0.0,0.0,0.0,0.0,0.0,0.0,0.0,0.0,0.0,0.0,0.0,0.0,0.0,0.0,0.0,0.0,0.0,0.0,0.0,0.0,0.0,0.0,0.0,0.0,0.0,0.0,0.0,0.0,0.0,0.0,0.0,0.0,0.0,0.0,0.0,0.0,0.0,0.0,0.0,0.0,0.0,0.0,0.0,0.0,0.0,0.0,0.0,0.0,0.0,0.0,0.0,0.0,0.0,0.0,0.0,0.0,0.0,0.0,0.0,0.0,0.0,0.0,0.0,0.0,0.0,0.0,0.0,0.0,0.0,0.0,0.0,0.0,0.0,0.0,0.0,0.0,0.0,0.0,0.0,0.0,0.0,0.0,0.0,0.0,0.0,0.0,0.0,0.0,0.0,0.0,0.0,0.0,0.0,0.0,0.0,0.0,0.0,0.0,0.0,0.0,0.0,0.0,0.0,0.0,0.0,0.0,0.0,0.0,0.0,0.0,0.0,0.0,0.0,0.0,0.0,0.0,0.0,0.0,0.0,0.0,0.0,0.0,0.0,0.0,0.0,0.0,0.0,0.0,0.0,0.0,0.0,0.0,0.0,0.0,0.0,0.0,0.0,0.0,0.0,0.0,0.0,0.0,0.0,0.0,0.0,0.0,0.0,0.0,0.0,0.0,0.0,0.0,0.0,0.0,0.0,0.0,0.0,0.0,0.0,0.0,0.0,0.0,0.0,0.0,0.0,0.0,0.0,0.0,0.0,0.0,0.0,0.0,0.0,0.0,0.0,0.0,0.0,0.0,0.0,0.0,0.0,0.0,0.0,0.0,0.0,0.0,0.0,0.0,0.0,0.0,0.0,0.0,0.0,0.0,0.0,0.0,0.0,0.0,0.0,0.0,0.0,0.0,0.0,0.0,0.0,0.0,0.0,0.0,0.0,0.0,0.0,0.0,0.0,0.0,0.0,0.0,0.0,0.0,0.0,0.0,0.0,0.0,0.0,0.0,0.0,0.0,0.0,0.0,0.0,0.0,0.0,0.0,0.0,0.0,0.0,0.0,0.0,0.0,0.0,0.0,0.0,0.0,0.0,0.0,0.0,0.0,0.0,0.0,0.0,0.0,0.0,0.0,0.0,0.0,0.0,0.0,0.0,0.0,0.0,0.0,0.0,0.0,0.0,0.0,0.0,0.0,0.0,0.0,0.0,0.0,0.0,0.0,0.0,0.0,0.0,0.0,0.0,0.0,0.0,0.0,0.0,0.0,0.0,0.0,0.0,0.0,0.0,0.0,0.0,0.0,0.0,0.0,0.0,0.0,0.0,0.0,0.0,0.0,0.0,0.0,0.0,0.0,0.0,0.0,0.0,0.0,0.0,0.0,0.0,0.0,0.0,0.0,0.0,0.0,0.0,0.0,0.0,0.0,0.0,0.0,0.0,0.0,0.0,0.0,0.0,0.0,0.0,0.0,0.0,0.0,0.0,0.0,0.0,0.0,0.0,0.0,0.0,0.0,0.0,0.0,0.0,0.0,0.0,0.0,0.0,0.0,0.0,0.0,0.0,0.0,0.0,0.0,0.0,0.0,0.0,0.0,0.0,0.0,0.0,0.0,0.0,0.0,0.0,0.0,0.0,0.0,0.0,0.0,0.0,0.0,0.0,0.0,0.0,0.0,0.0,0.0,0.0,0.0,0.0,0.0,0.0,0.0,0.0,0.0,0.0,0.0,0.0,0.0,0.0,0.0,0.0,0.0,0.0,0.0,0.0,0.0,0.0,0.0,0.0,0.0,0.0,0.0,0.0,0.0,0.0,0.0,0.0,0.0,0.0,0.0,0.0,0.0,0.0,0.0,0.0,0.0,0.0,0.0,0.0,0.0,0.0,0.0,0.0,0.0,0.0,0.0,0.0,0.0,0.0,0.0,0.0,0.0,0.0,0.0,0.0,0.0,0.0,0.0,0.0,0.0,0.0,0.0,0.0,0.0,0.0,0.0,0.0,0.0,0.0,0.0,0.0,0.0,0.0,0.0,0.0,0.0,0.0,0.0,0.0,0.0,0.0,0.0,0.0,0.0,0.0,0.0,0.0,0.0,0.0,0.0,0.0,0.0,0.0,0.0,0.0,0.0,0.0,0.0,0.0,0.0,0.0,0.0,0.0,0.0,0.0,0.0,0.0,0.0,0.0,0.0,0.0,0.0,0.0,0.0,0.0,0.0,0.0,0.0,0.0,0.0,0.0,0.0,0.0,0.0,0.0,0.0,0.0,0.0,0.0,0.0,0.0,0.0,0.0,0.0,0.0,0.0,0.0,0.0,0.0,0.0,0.0,0.0,0.0,0.0,0.0,0.0,0.0,0.0,0.0,0.0,0.0,0.0,0.0,0.0,0.0,0.0,0.0,0.0,0.0,0.0,0.0,0.0,0.0,0.0,0.0,0.0,0.0,0.0,0.0,0.0,0.0,0.0,0.0,0.0,0.0,0.0,0.0,0.0,0.0,0.0,0.0,0.0,0.0,0.0,0.0,0.0,0.0,0.0,0.0,0.0,0.0,0.0,0.0,0.0,0.0,0.0,0.0,0.0,0.0,0.0,0.0,0.0,0.0,0.0,0.0,0.0,0.0,0.0,0.0,0.0,0.0,0.0,0.0,0.0,0.0,0.0,0.0,0.0,0.0,0.0,0.0,0.0,0.0,0.0,0.0,0.0,0.0,0.0,0.0,0.0,0.0,0.0,0.0,0.0,0.0,0.0,0.0,0.0,0.0,0.0,0.0,0.0,0.0,0.0,0.0,0.0,0.0,0.0,0.0,0.0,0.0,0.0,0.0,0.0,0.0,0.0,0.0,0.0,0.0,0.0,0.0,0.0,0.0,0.0,0.0,0.0,0.0,0.0,0.0,0.0,0.0,0.0,0.0,0.0,0.0,0.0,0.0,0.0,0.0,0.0,0.0,0.0,0.0,0.0,0.0,0.0,0.0,0.0,0.0,0.0,0.0,0.0,0.0,0.0,0.0,0.0,0.0,0.0,0.0,0.0,0.0,0.0,0.0,0.0,0.0,0.0,0.0,0.0,0.0,0.0,0.0,0.0,0.0,0.0,0.0,0.0,0.0,0.0,0.0,0.0,0.0,0.0,0.0,0.0,0.0,0.0,0.0,0.0,0.0,0.0,0.0,0.0,0.0,0.0,0.0,0.0,0.0,0.0,0.0,0.0,0.0,0.0,0.0,0.0,0.0,0.0,0.0,-3.394,0.0,0.0,0.0,0.0,0.0,0.0,0.0,0.0,0.0,0.0,0.0,0.0,0.0,0.0,0.0,0.0,0.0,0.0,0.0,0.0,0.0,0.0,0.0,0.0,0.0,0.0,0.0,0.0,0.0,0.0,0.0,0.0,0.0,0.0,0.0,0.0,0.0,0.0,0.0,-0.8302,-0.829,-0.8243,-0.8807,-0.9171,-0.9355,0.0,0.0,0.0,0.0,0.0,0.0,0.0,0.0,0.0,0.0,0.0,0.0,0.0,0.0,0.0,0.0,0.0,0.0,0.0,0.0,0.0,0.0,0.0,0.0,0.0,0.0,0.0,0.0,0.0,0.0,0.0,0.0,0.0,0.0,0.0,0.0,0.0,0.0,0.0,0.0,0.0,0.0,0.0,0.0,0.0,0.0,0.0,0.0,0.0,0.0,0.0,0.0,0.0,0.0,0.0,0.0,0.0,0.0,0.0,0.0,0.0,0.0,0.0,0.0,0.0,0.0,0.0,0.0,0.0,0.0,0.0,-3.3683,0.0,0.0,0.0,0.0,0.0,0.0,0.0,0.0,0.0,0.0,0.0,0.0,0.0,0.0,0.0,0.0,0.0,0.0,0.0,0.0,0.0,0.0,0.0,0.0,0.0,0.0,0.0,0.0,0.0,0.0,0.0,0.0,0.0,0.0,0.0,0.0,0.0,0.0,-0.8314,-0.8338,-0.8845,-0.9296,-0.97,-1.0143,-1.0214,0.0,0.0,0.0,0.0,0.0,0.0,0.0,0.0,0.0,0.0,0.0,0.0,0.0,0.0,0.0,0.0,0.0,0.0,0.0,0.0,0.0,0.0,0.0,0.0,0.0,0.0,0.0,0.0,0.0,0.0,0.0,0.0,0.0,0.0,0.0,0.0,0.0,0.0,0.0,0.0,0.0,0.0,0.0,0.0,0.0,0.0,0.0,0.0,0.0,0.0,0.0,0.0,0.0,0.0,0.0,0.0,0.0,0.0,0.0,0.0,0.0,0.0,0.0,0.0,-3.6675,-3.709,-3.7876,-3.8444,-3.8728,-3.6719,-3.5517,-3.4993,0.0,0.0,0.0,0.0,0.0,0.0,0.0,0.0,0.0,0.0,0.0,0.0,0.0,0.0,0.0,0.0,0.0,0.0,0.0,0.0,0.0,0.0,0.0,0.0,0.0,0.0,0.0,0.0,0.0,0.0,0.0,0.0,0.0,0.0,-0.7688,-0.8235,-0.8235,-0.7906,-0.8376,-0.9526,-0.9675,-1.0095,-1.0763,-1.0359,-1.0003,-0.9787,0.0,0.0,0.0,0.0,0.0,0.0,0.0,0.0,0.0,0.0,0.0,0.0,0.0,0.0,0.0,0.0,0.0,0.0,0.0,0.0,0.0,0.0,0.0,0.0,0.0,0.0,0.0,0.0,0.0,0.0,0.0,0.0,0.0,0.0,0.0,0.0,0.0,0.0,0.0,0.0,0.0,-2.2028,-2.2472,0.0,0.0,0.0,0.0,0.0,0.0,0.0,0.0,0.0,0.0,0.0,0.0,0.0,0.0,-3.5129,-3.6145,-3.698,-3.7514,-3.8182,-3.8488,-3.8554,-3.8685,-3.8772,-3.8816,-3.8488,0.0,-3.7025,-3.7998,0.0,0.0,0.0,0.0,0.0,0.0,0.0,0.0,0.0,0.0,0.0,0.0,0.0,0.0,0.0,0.0,0.0,0.0,0.0,0.0,0.0,0.0,0.0,0.0,0.0,0.0,0.0,0.0,0.0,0.0,0.0,0.0,0.0,-0.7912,-0.8308,-0.815,-0.8488,-0.8914,-0.9376,-0.9791,-1.0083,-1.0426,-1.0267,-1.0211,-1.037,-1.0839,0.0,0.0,0.0,0.0,0.0,0.0,0.0,0.0,0.0,0.0,0.0,0.0,0.0,0.0,0.0,0.0,0.0,0.0,0.0,0.0,0.0,0.0,0.0,0.0,0.0,0.0,0.0,0.0,0.0,0.0,0.0,0.0,0.0,0.0,0.0,0.0,0.0,0.0,0.0,-2.3241,-2.4022,-2.4335,-2.6198,-2.7699,0.0,0.0,0.0,0.0,0.0,0.0,0.0,0.0,0.0,-3.4336,-3.5155,-3.5882,-3.647,-3.7245,-3.7795,-3.826,-3.8886,-3.9231,-3.9253,-3.9515,-3.9646,-3.9646,-3.9646,-3.9406,-3.8991,-3.8913,-3.9165,-3.9643,0.0,0.0,0.0,0.0,0.0,-3.7893,0.0,0.0,0.0,0.0,0.0,0.0,0.0,0.0,0.0,0.0,0.0,0.0,0.0,0.0,0.0,-0.3484,0.0,0.0,0.0,0.0,0.0,0.0,0.0,0.0,0.0,0.0,-0.8321,-0.8297,-0.8823,-0.9242,-0.9613,-1.0055,-1.0216,-1.0272,-1.0442,-1.0631,-1.0747,-1.1187,-1.1581,-1.1976,0.0,0.0,0.0,0.0,0.0,0.0,0.0,0.0,0.0,0.0,0.0,0.0,0.0,0.0,0.0,0.0,0.0,0.0,0.0,0.0,0.0,0.0,0.0,0.0,0.0,0.0,0.0,0.0,0.0,0.0,0.0,0.0,0.0,0.0,0.0,0.0,0.0,-2.4651,-2.5258,-2.5947,-2.7563,-2.8893,0.0,0.0,0.0,0.0,0.0,0.0,-3.4051,-3.4403,-3.4962,-3.5749,-3.6604,-3.7149,-3.7613,-3.838,-3.8679,-3.8828,-3.9561,-3.9864,-3.9755,-4.0236,-4.0388,-4.0279,-4.0279,-4.0279,-4.0214,-3.9493,-3.9787,-4.0755,-4.0755,-4.1045,0.0,-4.066,-3.9859,-3.8795,0.0,0.0,0.0,0.0,0.0,0.0,0.0,0.0,0.0,0.0,0.0,0.0,0.0,0.0,-0.2159,-0.1948,-0.3807,-0.4927,0.0,0.0,0.0,0.0,0.0,0.0,0.0,0.0,0.0,-0.8556,-0.8367,-0.9076,-1.0565,-1.0754,-1.0953,-1.1132,-1.1142,-1.0915,-1.061,-1.086,-1.1525,-1.2651,-1.3349,0.0,0.0,0.0,0.0,0.0,0.0,0.0,0.0,0.0,0.0,0.0,0.0,0.0,0.0,0.0,0.0,0.0,0.0,0.0,0.0,0.0,0.0,0.0,0.0,0.0,0.0,0.0,0.0,0.0,0.0,0.0,0.0,0.0,0.0,0.0,0.0,0.0,0.0,-2.6644,-2.7549,0.0,0.0,0.0,0.0,-3.459,-3.5024,-3.548,-3.5956,-3.5997,-3.6225,-3.6722,-3.7545,-3.8055,-3.8465,-3.9194,-3.9823,-4.0214,-4.0694,-4.0694,-4.0257,-4.0738,-4.0716,-4.0279,-4.0279,-4.0279,-4.0279,-4.0236,-4.0603,-4.1271,-4.1271,-4.1339,-4.1331,-4.0232,-4.0462,-4.1012,0.0,0.0,0.0,0.0,0.0,0.0,0.0,0.0,0.0,0.0,0.0,0.0,0.0,-0.287,-0.3321,-0.2781,-0.3306,-0.409,-0.5007,0.0,0.0,0.0,0.0,0.0,0.0,0.0,-0.7843,-0.8598,-0.7973,-0.8721,-1.0783,-1.0153,-1.0256,-1.0792,-1.0792,-1.0792,-1.0773,-1.0885,-1.1414,-1.2227,-1.2586,-1.3461,0.0,0.0,0.0,0.0,0.0,0.0,0.0,0.0,0.0,0.0,0.0,0.0,0.0,0.0,0.0,0.0,0.0,0.0,0.0,0.0,0.0,0.0,0.0,0.0,0.0,0.0,0.0,0.0,0.0,0.0,0.0,0.0,0.0,0.0,0.0,0.0,0.0,-2.8145,-3.0277,0.0,-3.2933,-3.4245,-3.5128,-3.5604,-3.6059,-3.6515,-3.697,-3.7011,-3.7328,-3.8047,-3.8477,-3.8954,-3.9237,-3.9801,-4.0301,-4.0738,-4.0913,-4.1066,-4.1197,-4.1371,-4.135,-4.1175,-4.1175,-4.1175,-4.1175,-4.1175,-4.1133,-4.1132,-4.1132,-4.1153,-4.102,-4.0234,-3.964,-3.9115,0.0,0.0,0.0,0.0,0.0,0.0,0.0,0.0,0.0,0.0,0.0,-0.0,-0.0707,-0.1748,-0.2869,-0.401,-0.391,-0.4294,-0.5262,0.0,0.0,0.0,-0.6536,0.0,0.0,-0.7204,-0.7396,-0.8108,-0.7828,-0.8653,-1.0605,-1.0183,-1.0382,-1.099,-1.099,-1.099,-1.1,-1.1,-1.1296,-1.1713,-1.2264,-1.317,-1.427,0.0,0.0,0.0,0.0,0.0,0.0,0.0,0.0,0.0,0.0,0.0,0.0,0.0,0.0,0.0,0.0,0.0,0.0,0.0,0.0,0.0,0.0,0.0,0.0,0.0,0.0,0.0,0.0,0.0,0.0,0.0,0.0,0.0,0.0,0.0,-2.9737,-3.0817,-3.2475,-3.3903,-3.4962,-3.5666,-3.6246,-3.6556,-3.7011,-3.7405,-3.7715,-3.7736,-3.7992,-3.866,-3.9078,-3.9512,-4.0231,-4.0628,-4.1087,-4.1743,-4.1896,-4.2049,-4.2201,-4.2201,-4.2092,-4.1918,-4.1765,-4.1699,-4.1699,-4.1699,-4.1503,-4.124,-4.1507,-4.164,-4.1507,-4.0259,-3.9698,-3.9291,0.0,0.0,0.0,0.0,0.0,0.0,0.0,0.0,0.0,0.0,0.0483,-0.0,-0.0,0.0722,-0.0575,-0.5236,-0.5695,-0.562,-0.5488,-0.5616,0.0,0.0,0.0,0.0,-0.8031,-0.7342,-0.7073,-0.7127,-0.798,-0.8909,-1.0027,-1.0815,-1.1425,-1.1803,-1.1813,-1.1595,-1.1217,-1.1217,-1.1217,-1.1306,-1.2252,-1.2823,-1.3273,0.0,0.0,0.0,0.0,0.0,0.0,0.0,0.0,0.0,0.0,0.0,0.0,0.0,0.0,0.0,0.0,0.0,0.0,0.0,0.0,0.0,0.0,0.0,0.0,0.0,0.0,0.0,0.0,0.0,0.0,0.0,0.0,0.0,-2.8842,-2.9776,-3.1505,-3.4389,-3.4037,-3.4386,-3.6614,-3.7239,-3.7508,-3.7508,-3.7922,-3.8191,-3.8191,-3.8191,-3.8325,-3.8702,-3.9141,-3.9854,-4.118,-4.1608,-4.2223,-4.3206,-4.3643,-4.3643,-4.3228,-4.3228,-4.2944,-4.2442,-4.1983,-4.1765,-4.1765,-4.1765,-4.1786,-4.1922,-4.2549,-4.2816,-4.2527,-4.0319,-4.0593,-4.1677,0.0,0.0,0.0,0.0,0.0,0.0,0.0,0.0,0.0,0.0,0.0701,0.0737,0.0078,0.0244,-0.0757,-0.3439,-0.4932,-0.5692,-0.5643,0.0,0.0,0.0,0.0,0.0,-0.6638,-0.6426,-0.7083,-0.8496,-0.8605,-0.9506,-1.1134,-1.1263,-1.1522,-1.1605,-1.1756,-1.1756,-1.1642,-1.1642,-1.1642,-1.1605,-1.1444,-1.2017,-1.3062,0.0,0.0,0.0,0.0,0.0,0.0,0.0,0.0,0.0,0.0,0.0,0.0,0.0,0.0,0.0,0.0,0.0,0.0,0.0,0.0,0.0,0.0,0.0,0.0,0.0,0.0,0.0,0.0,0.0,0.0,0.0,0.0,-3.1156,-3.0192,-3.1188,-3.2392,-3.3808,-3.5087,-3.6254,-3.7239,-3.7425,-3.7632,-3.7964,-3.8109,-3.8191,-3.8191,-3.8502,-3.8937,-3.9587,-4.038,-4.1143,-4.2087,-4.2595,-4.3075,-4.3687,-4.3796,-4.3971,-4.4211,-4.4211,-4.3927,-4.3468,-4.3687,-4.3599,-4.3294,-4.3643,-4.422,-4.4531,-4.3051,-4.2087,-4.1581,-4.0787,-4.0248,-3.9939,0.0,0.0,0.0,0.0,0.0,0.0,0.0,0.0,0.0,0.0,0.0434,0.0683,0.0563,-0.117,-0.2593,-0.3019,-0.4656,-0.579,-0.5877,0.0,0.0,0.0,0.0,-0.5969,-0.6159,-0.6159,-0.7052,-0.8922,-0.8844,-0.9734,-1.1531,-1.1466,-1.1569,-1.1652,-1.1765,-1.1813,-1.1813,-1.1813,-1.1813,-1.1784,-1.1425,-1.1766,-1.2374,-1.2619,-1.3307,-1.406,-1.4108,-1.4136,-1.4272,-1.495,0.0,0.0,0.0,0.0,0.0,0.0,0.0,0.0,0.0,0.0,0.0,0.0,0.0,0.0,0.0,0.0,0.0,0.0,0.0,0.0,0.0,0.0,0.0,0.0,-3.0832,-3.2131,-3.2816,-3.3555,-3.4191,-3.5162,-3.6371,-3.7281,-3.7736,-3.7777,-3.7984,-3.844,-3.846,-3.8543,-3.875,-3.9135,-3.9553,-4.0231,-4.107,-4.2042,-4.301,-4.3512,-4.4102,-4.4757,-4.4954,-4.5216,-4.5478,-4.5478,-4.5216,0.0,-4.4866,-4.4626,-4.4189,-4.4473,-4.5014,0.0,0.0,0.0,0.0,0.0,-4.0271,-3.9024,0.0,0.0,0.0,0.0,0.0,0.0,0.0,0.0,0.0,0.0,0.0,0.0234,0.0836,-0.2835,-0.4789,-0.3588,-0.4899,-0.5839,0.0,0.0,0.0,-0.5926,-0.6013,-0.6127,-0.6268,-0.6377,-0.7285,-0.8976,-0.906,-0.9953,-1.1587,-1.1652,-1.1671,-1.1813,-1.1813,-1.1841,-1.1888,-1.186,-1.1869,-1.1888,-1.186,-1.1728,-1.1611,-1.2062,-1.231,-1.2565,-1.3294,-1.359,-1.3778,-1.5206,0.0,0.0,0.0,0.0,0.0,0.0,0.0,0.0,0.0,0.0,0.0,0.0,0.0,0.0,0.0,0.0,0.0,0.0,0.0,0.0,0.0,0.0,0.0,0.0,-3.0809,-3.2022,-3.597,-3.6244,-3.6465,-3.7398,-3.757,-3.7757,-3.8212,-3.8253,-3.844,-3.8895,-3.8916,-3.9102,-3.9516,0.0,0.0,0.0,0.0,-4.284,-4.4102,-4.4582,-4.5281,-4.6177,-4.6614,-4.681,-4.681,-4.681,-4.6526,-4.598,-4.5631,-4.5172,-4.467,-4.4735,-4.5068,-4.5545,-4.498,-4.4936,-4.4936,-4.2606,-4.0563,0.0,0.0,0.0,0.0,0.0,0.0,0.0,0.0,0.0,0.0,-0.0,-0.0,-0.0389,-0.1421,-0.2318,-0.3629,-0.5354,-0.5636,-0.5801,0.0,0.0,-0.5773,-0.604,-0.598,-0.604,-0.6263,-0.7051,-0.8327,-0.9967,-1.0828,-1.1689,-1.2442,-1.2675,-1.2353,-1.1813,-1.1813,-1.2002,-1.2304,-1.2143,-1.2172,-1.2304,-1.2143,-1.1945,-1.1728,-1.1683,-1.1715,-1.1844,-1.2876,-1.3248,-1.3565,-1.5849,-1.555,-1.4606,-1.5778,-1.5994,0.0,0.0,0.0,0.0,0.0,0.0,0.0,0.0,0.0,0.0,0.0,0.0,0.0,0.0,0.0,0.0,0.0,0.0,0.0,-3.1757,-3.3532,-3.5171,-3.6659,-3.7055,-3.7391,-3.8046,-3.8046,-3.8233,-3.8667,-3.873,-3.8916,-3.9371,-3.9413,-3.9433,-3.9537,-4.0306,0.0,-4.1763,-4.2999,-4.4192,-4.5587,-4.6068,-4.6614,-4.7204,0.0,0.0,-4.7335,-4.7335,-4.6854,-4.6024,-4.633,-4.598,-4.5216,-4.5565,-4.5213,-4.4563,-4.5684,-4.4737,-4.3001,-4.3132,-4.2088,-4.0724,0.0,0.0,0.0,0.0,0.0,0.0,0.0,0.0,0.0,0.0,-0.0647,-0.1674,-0.3399,-0.3692,-0.4367,-0.5899,-0.592,0.0,0.0,-0.5741,-0.5773,-0.6072,-0.6029,-0.6105,-0.6344,-0.7659,-0.9158,-1.075,-1.1376,-1.2115,-1.3049,-1.2645,-1.2113,-1.152,-1.1728,-1.1935,-1.2124,-1.2134,-1.2257,-1.2427,-1.2332,-1.2162,-1.1954,-1.1746,-1.1671,-1.1782,-1.2392,-1.2557,-1.2801,-1.4663,-1.4378,-1.3467,-1.5059,-1.5468,-1.5439,0.0,0.0,0.0,0.0,0.0,0.0,0.0,0.0,0.0,0.0,0.0,0.0,0.0,0.0,-2.773,0.0,0.0,-3.1614,-3.2805,-3.4335,-3.5791,-3.7116,-3.7811,-3.8233,-3.8523,-3.8523,-3.8688,-3.9144,-3.9185,-3.9392,-3.9847,-4.0215,-4.0584,-4.0813,-4.1841,-4.2735,-4.3349,-4.4473,-4.5483,-4.6352,-4.6854,-4.7247,-4.7488,-4.7728,-4.7837,-4.7837,-4.7837,-4.7444,-4.6745,-4.6723,-4.633,-4.5696,-4.6155,-4.5857,-4.53,-4.6332,-4.5078,-4.2407,-4.2544,-4.225,-4.1777,0.0,0.0,0.0,0.0,0.0,0.0,0.0,0.0,0.0,0.0,0.0,-0.2821,-0.4701,-0.5165,-0.5523,0.0,0.0,0.0,0.0,-0.5795,-0.5828,-0.604,-0.6072,-0.6277,-0.6597,-0.8147,-0.9847,-1.1475,-1.1634,-1.2378,-1.3523,-1.2398,-1.1699,-1.1387,-1.169,-1.186,-1.1945,-1.2087,-1.2257,-1.2436,-1.2436,-1.2342,-1.2181,-1.2002,-1.1888,-1.1841,-1.2269,-1.2336,-1.2427,-1.3688,-1.3331,-1.2581,-1.448,-1.5005,-1.5032,-1.6047,-1.7341,0.0,0.0,0.0,0.0,0.0,0.0,0.0,0.0,0.0,-2.5061,-2.6061,-2.7193,-2.8349,-2.9008,-3.025,-3.1987,-3.3816,-3.4874,-3.5969,-3.7543,-3.8335,-3.8916,-3.9102,-3.904,-3.9164,-3.962,-3.9682,-3.9889,-4.0448,-4.1226,-4.1809,-4.2375,-4.3482,-4.4392,-4.4953,-4.5788,-4.6417,-4.7007,-4.7422,-4.7662,-4.7772,-4.8143,-4.8318,-4.8318,-4.8208,-4.7924,-4.7466,-4.6637,-4.6247,-4.6008,-4.6225,-4.6176,-4.5806,-4.6562,-4.5064,-4.2656,-4.248,-4.2422,-4.2422,0.0,0.0,0.0,0.0,0.0,0.0,0.0,0.0,0.0,0.0,0.0,0.0,0.0,0.0,0.0,0.0,0.0,0.0,-0.5909,-0.5795,-0.579,-0.592,-0.6029,-0.6524,-0.7337,-0.8992,-1.0569,-1.2319,-1.2621,-1.3141,-1.3782,-1.2634,-1.2077,-1.203,-1.1879,-1.202,-1.2361,-1.2209,-1.2257,-1.2436,-1.2436,-1.2427,-1.2408,-1.238,-1.2143,-1.1944,-1.3195,-1.3572,-1.3793,-1.5199,-1.4843,-1.3944,-1.3963,-1.4849,-1.5644,-1.5413,-1.6874,-1.8657,-1.8335,-1.8964,-1.9989,-2.113,-2.1597,-2.2068,0.0,0.0,-2.3658,-2.5039,-2.6433,-2.7862,-2.8988,-3.156,-3.3835,-3.5084,-3.642,-3.7563,-3.8574,-3.8677,-3.9164,-3.9972,-3.9723,-3.964,-4.0116,-4.0158,-4.051,-4.1358,-4.1895,-4.2438,-4.3341,-4.4144,-4.5039,-4.5966,-4.6485,-4.7094,-4.799,-4.8077,-4.8318,-4.8755,-4.8798,-4.882,-4.8798,-4.8361,-4.7924,-4.7466,-4.572,-4.5412,-4.606,-4.575,-4.5105,-4.4602,-4.4861,-4.4482,-4.3621,-4.4258,-4.3657,-4.2422,0.0,0.0,0.0,0.0,0.0,0.0,0.0,0.0,0.0,0.0,0.0,0.0,0.0,0.0,0.0,0.0,0.0,0.0,-0.5904,-0.5795,-0.5964,-0.6533,-0.6671,-0.7184,-0.8083,-1.0078,-1.1419,-1.2122,-1.3172,-1.3713,-1.3631,-1.2911,-1.2384,-1.1954,-1.2115,-1.2209,-1.2266,-1.2304,-1.2361,-1.2436,-1.2436,-1.2436,-1.2436,-1.2436,-1.2332,-1.2297,-1.355,-1.3922,0.0,0.0,-1.4678,-1.4342,-1.4245,-1.5144,-1.6138,-1.6495,-1.7943,-1.9447,-1.9872,-2.0691,0.0,0.0,-2.3006,-2.39,-2.4084,-2.4545,-2.5161,-2.5525,-2.6985,-2.8753,-3.0287,-3.2755,-3.491,0.0,-3.755,-3.8356,-3.8677,-3.9309,-3.9806,-4.0179,-4.0282,-4.0386,-4.0593,-4.0841,-4.142,-4.2355,-4.3194,-4.4103,-4.5062,-4.5966,-4.6724,-4.7399,-4.7575,-4.7903,-4.858,-4.8602,-4.8689,-4.8907,-4.8092,-4.8071,-4.8886,-4.7576,-4.6791,-4.6364,-4.5511,-4.5367,-4.5786,-4.4518,-4.4462,-4.5028,-4.4072,-4.3699,-4.3652,-4.3771,-4.349,-4.3164,0.0,0.0,0.0,0.0,0.0,0.0,0.0,0.0,0.0,0.0,0.0,0.0,0.0,0.0,0.0,0.0,0.0,0.0,0.0,-0.6485,-0.6756,-0.6995,-0.7416,-0.7942,-0.886,-1.076,-1.1964,-1.2284,-1.3467,-1.3903,-1.3674,-1.3122,-1.2477,-1.2038,-1.2134,-1.2191,-1.2058,-1.2209,-1.2266,-1.2266,-1.2266,-1.2304,-1.2361,-1.2361,-1.2606,-1.298,-1.3846,-1.4094,0.0,0.0,-1.4909,-1.5054,-1.5054,-1.5822,-1.6876,-1.7543,-1.8828,-2.0223,-2.1101,-2.1964,0.0,-2.2842,-2.4436,-2.5685,-2.4967,-2.6198,-2.728,-2.6798,-2.8551,-3.07,-3.2169,-3.4209,-3.6073,-3.7482,-3.8409,-3.8895,-3.9019,-3.9723,-4.0282,-4.0386,-4.08,-4.111,-4.1255,-4.171,-4.2335,-4.3362,-4.4635,-4.5598,-4.6505,-4.7334,-4.7881,-4.8361,-4.8361,-4.8536,-4.8907,-4.8907,-4.8907,-4.8907,-4.7911,-4.7997,-4.9082,-4.7294,-4.6195,-4.5598,-4.4948,-4.4878,-4.5106,-4.3549,-4.3726,-4.4965,-4.3691,-4.338,-4.3711,-4.338,-4.338,-4.3711,0.0,0.0,0.0,0.0,0.0,0.0,0.0,0.0,0.0,0.0,0.0,0.0,0.0,0.0,0.0,0.0,0.0,0.0,0.0,-0.8406,-0.8336,-0.7093,-0.778,-0.8698,-0.9627,-1.0791,-1.1966,-1.3114,-1.3612,-1.3936,-1.4174,-1.3059,-1.2545,-1.2545,-1.2038,-1.1831,-1.1831,-1.1831,-1.1841,-1.1841,-1.1841,-1.1964,-1.2153,-1.2153,-1.2909,-1.4169,-1.4169,0.0,0.0,0.0,-1.6247,-1.6247,-1.6247,-1.7009,-1.7983,-1.7969,-1.929,-2.0837,-2.1496,-2.214,-2.2769,-2.3413,-2.5436,-2.6934,-2.5692,-2.8036,-3.002,-2.8911,-3.134,-3.3811,-3.4576,-3.6209,-3.7616,-3.8058,-3.8564,-3.8999,-3.9454,-3.993,-4.0386,-4.08,-4.1255,-4.1731,0.0,-4.2669,-4.3383,-4.4747,-4.5638,-4.6526,-4.7454,-4.7987,-4.8383,-4.8864,-4.8886,-4.8886,-4.8907,-4.8907,-4.8907,-4.8907,-4.8907,-4.9148,-4.9585,-4.7623,-4.6657,-4.6058,-4.3494,-4.3117,-4.435,-4.3048,-4.2882,-4.3691,-4.3711,-4.3711,-4.3711,-4.3711,-4.3711,-4.3711,0.0,0.0,0.0,0.0,0.0,0.0,0.0,0.0,0.0,0.0,0.0,0.0,0.0,0.0,0.0,0.0,0.0,0.0,0.0,-0.8633,-0.8812,-0.8722,-0.9275,-0.985,-1.0295,-1.1744,-1.265,-1.2975,-1.3584,-1.3711,-1.3423,-1.3121,-1.2598,-1.2019,-1.1916,-1.1813,-1.1813,-1.1813,-1.1813,-1.1831,-1.1973,-1.2077,-1.2153,-1.3143,-1.3783,-1.4396,0.0,0.0,0.0,0.0,-1.7857,-1.8052,-1.8359,-1.877,-1.9442,-2.047,-2.1291,-2.2037,-2.2257,0.0,-2.3691,-2.413,-2.5988,-2.739,-2.6328,-2.8595,-3.0442,-2.928,-3.1722,-3.4265,-3.4652,-3.6344,-3.7852,-3.8429,-3.8999,-3.9578,-4.0323,-4.082,-4.1276,-4.1731,-4.2186,0.0,0.0,0.0,0.0,-4.5778,-4.6605,-4.7523,-4.8466,-4.8645,-4.8733,-4.8907,-4.8907,-4.8907,-4.8907,-4.8907,-4.8907,-4.8907,-4.7911,-4.7343,-4.6947,-4.6004,-4.5068,-4.4092,-4.3476,-4.306,-4.2531,-4.2383,-4.2735,-4.3234,-4.3234,-4.3546,-4.3711,-4.338,-4.3546,-4.3711,0.0,0.0,0.0,0.0,0.0,0.0,0.0,0.0,0.0,0.0,0.0,0.0,0.0,0.0,0.0,0.0,0.0,0.0,0.0,0.0,-0.98,-0.9845,-1.051,-1.0935,-1.1129,-1.2461,-1.3036,-1.2918,-1.3518,-1.3504,-1.304,-1.2844,-1.2404,-1.2006,-1.1811,-1.1746,-1.1813,-1.1813,-1.1907,-1.203,-1.2171,-1.2457,-1.275,-1.38,-1.4435,0.0,0.0,0.0,0.0,0.0,-1.9306,-1.947,-1.9666,-1.9984,-2.0545,-2.1929,-2.2476,-2.2681,0.0,-2.3603,-2.4466,-2.5306,-2.6916,-2.817,-2.8068,-3.007,-3.1774,-3.1034,-3.317,-3.5412,-3.5529,-3.6909,-3.8171,-3.8585,-3.9268,-3.9992,-4.0572,-4.1172,-4.1731,-4.2207,-4.2787,-4.3622,0.0,0.0,0.0,-4.6834,-4.7648,-4.8243,-4.8886,-4.8907,-4.8907,-4.8907,-4.8907,-4.8907,-4.8907,-4.9082,-4.8916,-4.8769,-4.7758,-4.6844,-4.5629,-4.4852,-4.3974,-4.301,-4.2863,-4.2383,-4.1882,-4.2049,-4.2569,-4.3068,-4.2902,-4.3068,-4.3214,-4.2902,-4.3048,-4.3214,0.0,0.0,0.0,0.0,0.0,0.0,0.0,0.0,0.0,0.0,0.0,0.0,0.0,0.0,0.0,0.0,0.0,0.0,0.0,0.0,0.0,-1.0423,-1.1399,-1.2027,-1.2027,-1.28,-1.3205,-1.3216,-1.3458,-1.3446,-1.3122,-1.2512,-1.2247,-1.2343,-1.1773,-1.1586,-1.1765,-1.1765,-1.2002,-1.2412,-1.2615,-1.3047,-1.357,-1.3993,0.0,0.0,0.0,0.0,0.0,0.0,0.0,-2.0676,-2.0428,-2.0794,-2.1496,0.0,0.0,-2.2842,-2.3471,-2.4231,-2.5188,-2.6855,-2.8237,-2.9428,-3.0683,-3.2503,-3.3918,-3.378,-3.5568,-3.7079,0.0,0.0,-3.873,-3.8357,-3.9371,-4.0261,-4.0323,-4.1069,-4.1772,0.0,0.0,0.0,0.0,0.0,0.0,-4.823,0.0,-4.8907,-4.8907,-4.8907,-4.8907,-4.8907,-4.8907,-4.8907,-4.8951,-4.941,-4.9243,-4.8378,-4.8315,-4.7237,-4.5523,-4.4129,-4.3395,-4.2844,-4.1714,-4.1565,-4.2402,-4.1882,-4.2216,-4.3068,-4.2569,-4.2402,-4.2402,-4.2402,-4.2402,-4.2402,0.0,0.0,0.0,0.0,0.0,0.0,0.0,0.0,0.0,0.0,0.0,0.0,0.0,0.0,0.0,0.0,0.0,0.0,0.0,0.0,0.0,0.0,0.0,0.0,0.0,0.0,0.0,-1.4294,-1.4539,-1.4539,-1.4294,-1.4097,-1.3609,-1.2856,-1.2479,-1.2032,-1.1706,-1.1986,-1.2335,-1.2673,0.0,-1.3819,-1.4091,0.0,0.0,0.0,0.0,0.0,0.0,0.0,0.0,0.0,0.0,-2.2301,-2.2769,0.0,0.0,-2.3793,-2.4203,-2.5393,-2.6902,-2.7772,-3.0121,-3.1996,-3.1442,-3.355,-3.5177,-3.4314,-3.5704,-3.7314,-3.7929,0.0,0.0,-3.962,-3.9992,0.0,-4.1607,-4.1938,0.0,-4.318,0.0,-4.5314,-4.5905,-4.7205,0.0,0.0,-4.8907,-4.8907,-4.8907,-4.8907,-4.8907,-4.8907,-4.8907,-4.9082,-4.9432,-4.9912,-4.9717,-4.884,-4.7133,-4.5744,-4.4596,-4.2631,-4.1639,-4.1546,-4.1546,-4.1714,-4.1882,-4.2049,-4.2402,-4.2569,-4.2402,-4.2402,-4.2402,-4.2049,-4.2049,-4.2402,0.0,0.0,0.0,0.0,0.0,0.0,0.0,0.0,0.0,0.0,0.0,0.0,0.0,0.0,0.0,0.0,0.0,0.0,0.0,0.0,0.0,0.0,0.0,0.0,0.0,0.0,0.0,0.0,0.0,0.0,-1.4533,-1.4604,-1.4343,-1.3809,-1.3473,-1.3248,-1.3165,-1.3149,0.0,0.0,0.0,0.0,0.0,0.0,0.0,0.0,0.0,0.0,0.0,0.0,0.0,-2.113,-2.2271,-2.2754,-2.2988,-2.3501,0.0,-2.4275,-2.5242,-2.6588,-2.8148,-3.0071,-3.146,-3.2641,-3.3291,-3.4471,-3.5295,-3.5275,-3.6384,-3.7489,-3.8208,-3.8747,-3.933,0.0,0.0,0.0,-4.1814,-4.2124,-4.26,0.0,-4.4732,0.0,-4.6252,-4.7555,-4.8432,0.0,-4.8907,-4.8907,-4.8907,-4.8907,-4.8907,-4.8907,-4.8445,-4.8392,-4.8396,-4.8649,-4.8233,-4.7147,-4.5748,-4.4441,-4.314,-4.1674,-4.106,-4.106,0.0,-4.1546,-4.1695,-4.1733,-4.19,-4.2049,-4.19,-4.19,-4.1733,-4.1546,-4.1546,-4.1751,0.0,0.0,0.0,0.0,0.0,0.0,0.0,0.0,0.0,0.0,0.0,0.0,0.0,0.0,0.0,0.0,0.0,0.0,0.0,0.0,0.0,0.0,0.0,0.0,0.0,0.0,0.0,0.0,0.0,0.0,0.0,0.0,0.0,0.0,0.0,0.0,0.0,0.0,0.0,0.0,0.0,0.0,0.0,0.0,0.0,0.0,0.0,0.0,0.0,0.0,-2.0603,-2.132,-2.2359,-2.2681,-2.2754,-2.3135,-2.3789,-2.487,-2.653,-2.7858,-2.9523,-3.2575,-3.2695,-3.2824,-3.5393,-3.5256,-3.4964,-3.6226,-3.7031,-3.7575,-3.8044,-3.8767,-3.9392,-3.9516,0.0,-4.0986,-4.1586,-4.2,-4.26,-4.3511,-4.4824,-4.5856,-4.6407,-4.7512,-4.8525,-4.8886,-4.8907,-4.8907,-4.8907,-4.8907,-4.8771,-4.8677,-4.7863,-4.7174,-4.6957,-4.6957,-4.6293,-4.4914,-4.4414,-4.333,-4.1666,-4.1244,-4.106,-4.106,0.0,0.0,-4.1528,-4.121,-4.1378,-4.1546,-4.1229,-4.106,-4.106,-4.106,-4.1097,-4.1189,0.0,0.0,0.0,0.0,0.0,0.0,0.0,0.0,0.0,0.0,0.0,0.0,0.0,0.0,0.0,0.0,0.0,0.0,0.0,0.0,0.0,0.0,0.0,0.0,0.0,0.0,0.0,0.0,0.0,0.0,0.0,0.0,0.0,0.0,0.0,0.0,0.0,0.0,0.0,0.0,0.0,0.0,0.0,0.0,0.0,0.0,0.0,0.0,0.0,0.0,-2.0281,-2.1072,-2.255,-2.3018,-2.3135,-2.3735,-2.5085,-2.643,-2.7312,-2.9715,-3.2178,-3.3331,-3.4815,-3.5797,-3.5933,-3.6032,0.0,-3.6264,-3.6384,-3.6787,-3.7501,-3.8109,-3.8667,-3.9413,-3.9992,-4.0758,-4.1959,-4.2207,-4.2749,0.0,-4.5011,-4.5805,-4.6674,-4.7679,0.0,0.0,0.0,0.0,-4.8907,-4.8907,-4.8583,-4.7821,-4.7318,-4.6986,-4.6957,-4.6957,-4.6273,-4.4914,-4.4126,-4.3065,-4.1666,-4.1244,-4.106,-4.106,0.0,0.0,-4.1229,-4.106,-4.106,-4.1229,-4.106,-4.106,-4.106,-4.106,-4.128,-4.1592,0.0,0.0,0.0,0.0,0.0,0.0,0.0,0.0,0.0,0.0,0.0,0.0,0.0,0.0,0.0,0.0,0.0,0.0,0.0,0.0,0.0,0.0,0.0,0.0,0.0,0.0,0.0,0.0,0.0,0.0,0.0,0.0,0.0,0.0,0.0,0.0,0.0,0.0,0.0,0.0,0.0,0.0,0.0,0.0,0.0,0.0,0.0,0.0,0.0,0.0,-2.0476,-2.1888,-2.2774,-2.3223,-2.3427,-2.3735,-2.5321,-2.711,-2.8362,-3.06,-3.2832,-3.4275,-3.5297,-3.6034,-3.589,-3.6196,-3.6423,-3.6282,-3.6418,-3.682,-3.7405,-3.7674,-3.8129,-3.904,-3.9578,-4.0261,-4.1379,-4.1959,-4.2645,-4.376,-4.4778,-4.5852,-4.6828,-4.7748,0.0,0.0,0.0,0.0,-4.7911,-4.7504,-4.6783,-4.6125,-4.5884,-4.5413,-4.4741,-4.4914,-4.4358,-4.3251,-4.2857,-4.2217,-4.1354,-4.1152,-4.106,-4.106,0.0,0.0,-4.106,-4.106,-4.106,-4.106,-4.106,-4.106,-4.106,-4.106,-4.1317,-4.1721,0.0,0.0,0.0,0.0,0.0,0.0,0.0,0.0,0.0,0.0,0.0,0.0,0.0,0.0,0.0,0.0,0.0,0.0,0.0,0.0,0.0,0.0,0.0,0.0,0.0,0.0,0.0,0.0,0.0,0.0,0.0,0.0,0.0,0.0,0.0,0.0,0.0,0.0,0.0,0.0,0.0,0.0,0.0,0.0,0.0,0.0,0.0,0.0,0.0,0.0,-2.1015,-2.2862,-2.3276,-2.3524,-2.3833,-2.4163,-2.5851,-2.8047,-2.9499,-3.1529,-3.3442,-3.5026,-3.5527,-3.5854,-3.5845,-3.6222,-3.6496,-3.6126,-3.6387,-3.6618,-3.6991,-3.7136,-3.7488,0.0,-3.8957,-3.962,-4.0717,-4.1731,-4.2606,-4.3594,-4.4697,0.0,-4.6961,-4.735,0.0,0.0,0.0,0.0,0.0,-4.5714,-4.5143,-4.4876,-4.4644,-4.3965,-4.2876,-4.2784,-4.2381,-4.1684,-4.1592,-4.1372,-4.106,-4.106,-4.106,-4.106,0.0,0.0,0.0,-4.106,-4.106,-4.106,-4.106,-4.106,-4.1079,-4.1152,-4.1464,-4.1867,0.0,0.0,0.0,0.0,0.0,0.0,0.0,0.0,0.0,0.0,0.0,0.0,0.0,0.0,0.0,0.0,0.0,0.0,0.0,0.0,0.0,0.0,0.0,0.0,0.0,0.0,0.0,0.0,0.0,0.0,0.0,0.0,0.0,0.0,0.0,0.0,0.0,0.0,0.0,0.0,0.0,0.0,0.0,0.0,0.0,0.0,0.0,0.0,0.0,0.0,0.0,-2.355,-2.4139,-2.4139,-2.4346,-2.5934,0.0,0.0,-3.1384,-3.3445,-3.5198,-3.5391,-3.6248,-3.6777,-3.5962,-3.6244,-3.6575,-3.5686,-3.5542,-3.5562,-3.5604,-3.5956,0.0,0.0,-3.8005,-3.8916,-4.0634,-4.1584,-4.2668,-4.3849,0.0,0.0,-4.7247,-4.6407,0.0,0.0,0.0,0.0,0.0,-4.4837,-4.4414,-4.4703,-4.409,-4.342,-4.2876,-4.2509,-4.2124,-4.1684,-4.1299,-4.1097,-4.106,-4.106,-4.106,-4.106,0.0,0.0,0.0,-4.106,-4.106,-4.106,-4.106,-4.106,-4.1097,-4.1482,-4.1886,-4.2271,0.0,0.0,0.0,0.0,0.0,0.0,0.0,0.0,0.0,0.0,0.0,0.0,0.0,0.0,0.0,0.0,0.0,0.0,0.0,0.0,0.0,0.0,0.0,0.0,0.0,0.0,0.0,0.0,0.0,0.0,0.0,0.0,0.0,0.0,0.0,0.0,0.0,0.0,0.0,0.0,0.0,0.0,0.0,0.0,0.0,0.0,0.0,0.0,0.0,0.0,0.0,-2.3788,-2.4367,-2.4746,-2.5285,-2.7041,-2.9,-3.1019,-3.2052,-3.3634,-3.5039,-3.5332,-3.5697,-3.5997,-3.5721,0.0,-3.5619,-3.519,-3.4797,-3.4693,-3.4983,-3.5169,-3.5604,-3.6515,-3.7639,-3.8904,-3.9929,-4.172,-4.3128,-4.3949,-4.4188,0.0,0.0,0.0,0.0,0.0,0.0,0.0,0.0,-4.342,-4.3547,-4.3697,-4.3375,-4.2803,-4.2161,-4.1996,-4.1721,-4.1299,-4.1134,-4.106,-4.106,-4.106,-4.106,-4.106,0.0,0.0,0.0,-4.106,-4.106,-4.106,-4.106,-4.1225,-4.1464,-4.1629,-4.2087,-4.2656,0.0,0.0,0.0,0.0,0.0,0.0,0.0,0.0,0.0,0.0,0.0,0.0,0.0,0.0,0.0,0.0,0.0,0.0,0.0,0.0,0.0,0.0,0.0,0.0,0.0,0.0,0.0,-1.4808,0.0,0.0,0.0,0.0,0.0,0.0,0.0,0.0,0.0,0.0,0.0,0.0,0.0,0.0,0.0,0.0,0.0,0.0,0.0,0.0,0.0,0.0,0.0,-2.4085,-2.4736,-2.5516,-2.6646,-2.7957,-2.9672,-3.1396,-3.2395,-3.3838,-3.5073,-3.5269,-3.5369,-3.542,-3.5679,0.0,-3.4677,-3.461,-3.43,-3.4217,-3.4672,-3.4755,-3.5066,-3.5956,-3.7395,-3.8639,-3.9101,-4.1474,-4.3349,-4.3788,0.0,0.0,0.0,0.0,0.0,0.0,0.0,0.0,0.0,-4.2472,-4.2747,-4.2858,-4.2747,-4.2362,-4.1702,-4.1684,-4.1482,-4.106,-4.106,-4.106,-4.106,-4.106,-4.106,0.0,0.0,0.0,0.0,-4.106,-4.106,-4.1079,-4.1189,-4.1427,-4.1721,-4.1959,-4.2381,-4.2876,0.0,0.0,0.0,0.0,0.0,0.0,0.0,0.0,0.0,0.0,0.0,0.0,0.0,0.0,0.0,0.0,0.0,0.0,0.0,0.0,0.0,0.0,0.0,0.0,0.0,0.0,-1.5173,-1.5173,-1.5507,-1.5856,0.0,0.0,0.0,0.0,0.0,0.0,0.0,0.0,0.0,0.0,0.0,0.0,0.0,0.0,0.0,0.0,0.0,0.0,0.0,0.0,0.0,0.0,0.0,-2.6832,-2.8308,-2.8811,-2.9782,-3.0988,-3.242,-3.43,-3.5766,-3.5349,-3.5429,-3.5616,0.0,0.0,-3.4072,-3.4072,-3.4072,-3.4217,-3.4672,-3.4755,-3.5066,-3.5956,-3.7124,0.0,-3.8618,-4.0964,-4.2775,0.0,0.0,0.0,0.0,0.0,0.0,0.0,0.0,0.0,0.0,0.0,-4.2472,-4.2858,-4.2491,-4.2087,-4.1702,-4.1684,-4.1482,-4.106,-4.106,-4.106,-4.106,-4.106,0.0,0.0,0.0,0.0,0.0,-4.106,-4.106,-4.1097,-4.1519,-4.1684,-4.1794,-4.2564,-4.2858,-4.2931,0.0,0.0,0.0,0.0,0.0,0.0,0.0,0.0,0.0,0.0,0.0,0.0,0.0,0.0,0.0,0.0,0.0,0.0,0.0,0.0,0.0,0.0,0.0,0.0,0.0,0.0,-1.53,-1.5523,-1.5872,-1.6095,-1.6206,-1.6444,0.0,0.0,0.0,0.0,0.0,0.0,0.0,0.0,0.0,0.0,0.0,0.0,0.0,0.0,0.0,0.0,0.0,0.0,0.0,0.0,0.0,0.0,0.0,-2.8455,-2.9757,-3.1123,-3.2309,-3.3105,-3.3704,-3.4113,-3.4205,-3.4187,-3.4595,-3.4101,-3.3513,-3.3223,-3.3161,-3.3285,-3.3741,-3.4072,-3.471,-3.5748,0.0,0.0,0.0,0.0,0.0,-4.239,-4.2829,0.0,0.0,0.0,0.0,0.0,0.0,0.0,0.0,0.0,-4.1941,-4.2051,-4.1941,-4.1684,-4.1262,-4.1262,-4.1189,-4.106,-4.106,-4.106,-4.106,-4.106,0.0,0.0,0.0,0.0,0.0,-4.106,-4.106,-4.1097,-4.1519,-4.1849,-4.2161,-4.2674,-4.3041,-4.3316,0.0,0.0,0.0,0.0,0.0,0.0,0.0,0.0,0.0,0.0,0.0,0.0,0.0,0.0,0.0,0.0,0.0,0.0,0.0,0.0,0.0,0.0,0.0,0.0,0.0,-1.5316,-1.5729,-1.6079,-1.6428,-1.6619,-1.6619,-1.6969,-1.6901,-1.6402,0.0,0.0,0.0,0.0,0.0,0.0,0.0,0.0,0.0,0.0,0.0,0.0,0.0,0.0,0.0,0.0,0.0,0.0,0.0,0.0,0.0,0.0,-2.8759,-3.0043,-3.1639,-3.2355,-3.2855,-3.3538,-3.3435,0.0,-3.4206,-3.3788,-3.3141,-3.3223,-3.3244,-3.3368,-3.3824,-3.4279,-3.5001,0.0,0.0,0.0,0.0,0.0,0.0,-4.2328,0.0,0.0,0.0,0.0,0.0,0.0,0.0,0.0,0.0,0.0,-4.1445,-4.1445,-4.1445,-4.1317,-4.106,-4.106,-4.106,-4.106,-4.106,-4.106,-4.106,0.0,0.0,0.0,0.0,0.0,0.0,-4.106,-4.106,-4.1115,-4.1684,-4.2069,-4.2344,-4.2894,-4.3261,-4.3499,0.0,0.0,0.0,0.0,0.0,0.0,0.0,0.0,0.0,0.0,0.0,0.0,0.0,0.0,0.0,0.0,0.0,0.0,0.0,0.0,0.0,0.0,0.0,0.0,0.0,-1.5872,-1.6397,-1.6778,-1.7111,-1.7286,-1.7318,-1.762,-1.7328,-1.6448,-1.6691,0.0,0.0,0.0,0.0,0.0,0.0,0.0,0.0,0.0,0.0,0.0,0.0,0.0,0.0,0.0,0.0,0.0,0.0,0.0,0.0,0.0,0.0,0.0,0.0,-3.1775,-3.2799,-3.3309,-3.3053,-3.3037,-3.4362,-3.3679,0.0,-3.3844,-3.4051,-3.4196,-3.4631,-3.5107,-3.5853,0.0,0.0,0.0,0.0,-4.0838,0.0,0.0,0.0,0.0,0.0,0.0,0.0,0.0,0.0,0.0,0.0,0.0,0.0,-4.106,-4.106,-4.106,-4.106,-4.106,-4.106,-4.106,-4.106,-4.106,-4.106,0.0,0.0,0.0,0.0,0.0,0.0,-4.106,-4.1079,-4.1189,-4.1977,-4.2289,-4.2417,-4.3206,-4.3499,-4.3499,0.0,0.0,0.0,0.0,0.0,0.0,0.0,0.0,0.0,0.0,0.0,0.0,0.0,0.0,0.0,0.0,0.0,0.0,0.0,0.0,0.0,0.0,0.0,0.0,0.0,-1.5983,-1.6524,-1.7159,-1.7239,-1.7413,-1.7652,-1.7557,-1.7125,-1.6553,-1.646,-1.6055,0.0,0.0,0.0,0.0,0.0,0.0,0.0,0.0,0.0,0.0,0.0,-2.0179,0.0,0.0,0.0,0.0,0.0,0.0,0.0,0.0,-2.7057,0.0,0.0,0.0,-3.0724,-3.2004,-3.2241,-3.2457,0.0,-3.3451,-3.3285,-3.3492,-3.3824,-3.4093,-3.4217,-3.5143,-3.6247,0.0,0.0,0.0,-3.9804,0.0,0.0,0.0,0.0,0.0,0.0,0.0,0.0,0.0,0.0,0.0,0.0,0.0,0.0,-4.106,-4.106,-4.106,-4.106,-4.106,-4.106,-4.106,-4.106,-4.106,-4.106,0.0,0.0,0.0,0.0,0.0,0.0,-4.106,-4.1244,-4.1592,-4.2087,-4.2454,-4.2784,-4.3298,-4.3499,-4.3499,0.0,0.0,0.0,0.0,0.0,0.0,0.0,0.0,0.0,0.0,0.0,0.0,0.0,0.0,0.0,0.0,0.0,0.0,0.0,0.0,0.0,0.0,0.0,0.0,-1.5904,-1.6269,-1.673,-1.7286,-1.7286,-1.7445,-1.7763,-1.7517,-1.7172,-1.6746,-1.666,-1.6407,0.0,0.0,0.0,0.0,0.0,0.0,0.0,0.0,0.0,0.0,-1.9672,-2.051,0.0,-2.2217,-2.2893,-2.3632,0.0,0.0,0.0,0.0,-2.6737,-2.7497,-2.8938,-2.9374,-2.9784,-3.1381,-3.1899,-3.2333,-3.3451,-3.3865,-3.4072,-3.4279,-3.4507,-3.4755,-3.4962,-3.5391,-3.6439,0.0,-3.877,0.0,0.0,0.0,0.0,0.0,0.0,0.0,0.0,0.0,0.0,0.0,0.0,0.0,0.0,0.0,0.0,0.0,-4.106,-4.106,-4.106,-4.106,-4.106,-4.106,-4.1229,-4.121,-4.106,0.0,0.0,0.0,0.0,0.0,-4.106,-4.106,-4.1299,-4.1721,-4.2124,-4.2527,-4.2913,-4.3334,-4.3499,-4.3499,0.0,0.0,0.0,0.0,0.0,0.0,0.0,0.0,0.0,0.0,0.0,0.0,0.0,0.0,0.0,0.0,0.0,0.0,0.0,0.0,0.0,0.0,0.0,-1.5872,-1.6269,-1.6571,-1.6937,-1.735,-1.7413,-1.7636,-1.8017,-1.7856,-1.7517,-1.7063,-1.7201,-1.7253,0.0,0.0,0.0,0.0,0.0,0.0,0.0,0.0,0.0,0.0,0.0,0.0,0.0,-2.2518,-2.2983,-2.3182,-2.4095,0.0,0.0,0.0,0.0,0.0,-2.8814,-2.9415,-2.9829,-3.1153,-3.1816,-3.2478,-3.3782,-3.4424,-3.4879,-3.5335,-3.5418,-3.5479,-3.5804,-3.5982,-3.6649,0.0,0.0,0.0,0.0,0.0,0.0,0.0,0.0,0.0,0.0,0.0,0.0,0.0,0.0,0.0,0.0,0.0,0.0,0.0,-4.106,-4.106,-4.106,-4.106,-4.106,-4.106,-4.1546,-4.1546,-4.1229,-4.19,0.0,0.0,0.0,0.0,-4.106,-4.1134,-4.1409,-4.1812,-4.2216,-4.2601,-4.3004,-4.3371,-4.3499,-4.3499,0.0,0.0,0.0,0.0,0.0,0.0,0.0,0.0,0.0,0.0,0.0,0.0,0.0,0.0,0.0,0.0,0.0,0.0,0.0,0.0,0.0,0.0,-1.5443,-1.5983,-1.6635,-1.6714,-1.7048,-1.7699,-1.8001,-1.8478,-1.9129,-1.8926,-1.8422,-1.7841,-1.823,-1.8206,-1.7917,0.0,0.0,0.0,0.0,0.0,0.0,0.0,0.0,0.0,0.0,0.0,0.0,-2.27,-2.3268,-2.3674,-2.3901,0.0,0.0,0.0,0.0,0.0,-2.8814,-2.987,-3.0698,-3.1692,-3.2292,-3.2871,-3.3844,-3.4424,-3.4879,-3.5335,-3.5418,-3.5269,-3.5146,-3.6424,-3.7749,0.0,0.0,0.0,0.0,0.0,0.0,0.0,0.0,0.0,0.0,0.0,0.0,0.0,0.0,0.0,0.0,0.0,0.0,0.0,0.0,-4.106,-4.106,-4.106,-4.106,-4.106,-4.1546,-4.1695,-4.1528,-4.1714,-4.1695,0.0,0.0,0.0,-4.1079,-4.1445,-4.1831,-4.2216,-4.2619,-4.3023,-4.3408,-4.3463,-4.3499,-4.3499,0.0,0.0,0.0,0.0,0.0,0.0,0.0,0.0,0.0,0.0,0.0,0.0,0.0,0.0,0.0,0.0,0.0,0.0,0.0,0.0,0.0,-1.5157,-1.5682,-1.6111,-1.6444,-1.6635,-1.6984,-1.7509,-1.7842,-1.8478,-1.9368,-1.9047,-1.8482,-1.7632,-1.859,-1.8896,-1.8736,-1.9608,0.0,0.0,0.0,0.0,0.0,0.0,0.0,0.0,0.0,0.0,0.0,0.0,-2.368,-2.3841,-2.41,0.0,0.0,0.0,0.0,0.0,-2.8876,-2.9973,-3.0853,-3.1652,-3.2515,-3.3474,-3.4113,-3.4132,-3.4323,-3.5082,-3.5211,-3.521,-3.5335,0.0,-3.6166,-3.6404,0.0,0.0,0.0,0.0,0.0,0.0,0.0,0.0,0.0,0.0,0.0,0.0,0.0,0.0,0.0,0.0,0.0,0.0,0.0,0.0,-4.106,-4.106,-4.106,-4.106,-4.1714,-4.1882,-4.1695,-4.2364,-4.2364,0.0,0.0,-4.1733,-4.1097,-4.1841,-4.2076,-4.2307,-4.2711,-4.3133,-4.3499,-4.3499,-4.3856,-4.4193,0.0,0.0,0.0,0.0,0.0,0.0,0.0,0.0,0.0,0.0,0.0,0.0,0.0,0.0,0.0,0.0,0.0,0.0,0.0,0.0,-1.4649,-1.5268,-1.5968,-1.6365,-1.646,-1.673,-1.7111,-1.7636,-1.7985,-1.8696,-1.9765,-1.948,-1.8912,-1.8078,-1.9201,-1.9543,-1.9292,-2.002,-2.0333,0.0,0.0,0.0,0.0,0.0,0.0,0.0,0.0,0.0,0.0,0.0,0.0,0.0,0.0,0.0,0.0,-2.5647,-2.6537,-2.7593,-2.9063,-3.0305,-3.1318,-3.2256,-3.3158,-3.3789,-3.3953,-3.3891,-3.4084,-3.4697,-3.4795,-3.5122,-3.5855,-3.5736,0.0,-3.5986,0.0,0.0,0.0,0.0,0.0,0.0,0.0,0.0,0.0,0.0,0.0,0.0,0.0,0.0,0.0,0.0,0.0,0.0,0.0,0.0,-4.106,-4.106,-4.106,-4.106,-4.19,-4.2235,-4.1882,-4.3048,-4.3048,-4.2049,-4.2716,-4.2402,-4.1434,-4.2273,-4.2493,-4.2499,-4.2996,-4.3383,-4.3499,-4.3499,-4.4015,-4.4902,0.0,0.0,0.0,0.0,0.0,0.0,0.0,0.0,0.0,0.0,0.0,0.0,0.0,0.0,0.0,0.0,0.0,0.0,0.0,0.0,-1.5268,-1.5634,-1.6317,-1.6857,-1.7191,-1.7223,-1.7731,-1.8716,-1.9082,-1.9827,-2.0875,-2.0784,-2.0712,-2.0513,-2.0881,-2.04,-1.9292,-1.9371,-1.9371,-1.9371,0.0,0.0,0.0,0.0,0.0,0.0,0.0,0.0,0.0,0.0,0.0,0.0,0.0,0.0,0.0,-2.5751,-2.6537,-2.7655,-2.9456,-3.1236,-3.2934,-3.4221,-3.4324,-3.3882,-3.3044,-3.4233,-3.5196,-3.4165,-3.3975,-3.4445,-3.6035,-3.7644,-3.8759,-3.9235,0.0,0.0,0.0,0.0,0.0,0.0,0.0,0.0,0.0,0.0,0.0,0.0,0.0,0.0,0.0,0.0,0.0,0.0,0.0,0.0,-4.106,-4.106,-4.106,-4.106,-4.19,-4.2402,-4.2402,-4.2902,-4.3068,-4.3068,-4.2569,-4.2402,-4.2291,-4.3254,-4.3251,-4.3019,-4.3839,-4.3819,-4.3499,-4.3499,-4.4015,-4.4902,0.0,0.0,0.0,0.0,0.0,0.0,0.0,0.0,0.0,0.0,0.0,0.0,0.0,0.0,0.0,0.0,0.0,0.0,0.0,0.0,-1.565,-1.5983,-1.6476,-1.7,-1.7572,-1.7382,-1.7683,-1.8494,-1.9987,-2.0735,-2.0716,-2.1031,-2.0948,-2.055,-2.0149,-1.9776,-1.9292,-1.9292,-1.9292,-1.9371,-1.9844,0.0,0.0,0.0,0.0,0.0,0.0,0.0,0.0,0.0,-2.4272,0.0,0.0,0.0,0.0,-2.5751,-2.7138,-2.8752,-2.9725,-3.1248,-3.2752,-3.3803,-3.4465,-3.4512,-3.4047,-3.3982,-3.4181,-3.4631,-3.407,-3.3903,-3.5797,0.0,-3.7555,0.0,0.0,0.0,0.0,0.0,0.0,0.0,0.0,0.0,0.0,0.0,0.0,0.0,0.0,0.0,0.0,0.0,0.0,0.0,0.0,0.0,0.0,-4.106,-4.1229,-4.1546,-4.2068,-4.2402,-4.2402,-4.3214,-4.338,-4.3068,-4.3214,-4.2882,-4.2459,-4.3632,-4.3804,-4.3364,-4.4034,-4.3837,-4.3499,-4.3499,-4.4015,-4.4902,0.0,0.0,0.0,0.0,0.0,0.0,0.0,0.0,0.0,0.0,0.0,0.0,0.0,0.0,0.0,0.0,0.0,0.0,0.0,-1.5157,-1.584,-1.619,-1.654,-1.6953,-1.7429,-1.7445,-1.7826,-1.8637,-2.0355,-2.0992,-2.0724,-2.1033,-2.0918,-2.0565,-1.9956,-1.9286,-1.8654,-1.9109,-1.9134,-1.8975,-1.9995,-2.0719,0.0,0.0,0.0,0.0,0.0,0.0,0.0,0.0,-2.4358,-2.455,0.0,0.0,0.0,0.0,-2.7529,-2.9221,-2.9809,-3.1208,-3.2768,-3.3081,-3.4298,-3.5215,-3.4469,-3.3968,-3.3883,-3.4249,-3.4619,-3.5163,-3.622,-3.7277,0.0,0.0,0.0,0.0,0.0,0.0,0.0,0.0,0.0,0.0,0.0,0.0,0.0,0.0,0.0,0.0,0.0,0.0,0.0,0.0,0.0,0.0,0.0,-4.121,-4.1546,-4.1882,-4.2402,-4.2569,-4.2569,-4.338,-4.3546,-4.3214,-4.3546,-4.3458,-4.317,-4.4049,-4.4491,-4.4261,-4.4322,-4.4193,-4.4015,-4.4015,-4.4445,-4.5268,0.0,0.0,0.0,0.0,0.0,0.0,0.0,0.0,0.0,0.0,0.0,0.0,0.0,0.0,0.0,0.0,0.0,0.0,0.0,-1.53,-1.584,-1.619,-1.654,-1.673,-1.6746,-1.7413,-1.8287,-1.9368,-2.0091,-2.0636,-2.1049,-2.088,-2.0893,-2.1034,-2.0732,-1.9334,-1.7275,-1.8735,-1.8816,-1.8112,-1.9408,-2.0404,0.0,0.0,0.0,0.0,0.0,0.0,0.0,0.0,-2.41,-2.455,0.0,0.0,0.0,-2.6434,-2.7502,-2.8752,-2.9582,-3.1479,-3.3065,-3.2445,-3.4252,-3.5793,-3.3794,-3.4373,-3.4723,-3.2803,-3.5607,-3.8255,-3.7577,-3.9712,0.0,0.0,0.0,0.0,0.0,0.0,0.0,0.0,0.0,0.0,0.0,0.0,0.0,0.0,0.0,0.0,0.0,0.0,0.0,0.0,0.0,0.0,0.0,-4.1695,-4.1882,-4.2402,-4.2902,-4.3068,-4.3068,-4.3546,-4.3711,-4.3711,-4.3711,-4.3965,-4.4433,-4.4863,-4.5183,-4.5607,-4.5078,-4.4902,-4.4902,-4.4902,-4.5503,-4.6203,0.0,0.0,0.0,0.0,0.0,0.0,0.0,0.0,0.0,0.0,0.0,0.0,0.0,0.0,0.0,0.0,0.0,0.0,0.0,-1.5904,-1.646,-1.6571,-1.6683,-1.6857,-1.7111,-1.754,-1.8198,-1.9162,-2.0466,-2.0963,-2.0668,-2.0869,-2.0771,-2.0228,-1.9452,-1.8632,-1.7843,-1.9156,-1.9552,-1.9408,-2.075,-2.1275,0.0,0.0,0.0,0.0,0.0,0.0,0.0,0.0,0.0,0.0,-2.455,0.0,0.0,-2.6537,-2.8205,-3.0154,-3.0721,-3.1711,-3.2691,-3.388,-3.4275,-3.4302,-3.4025,-3.4022,-3.3919,-3.3166,-3.5047,-3.696,-3.7725,-3.8817,0.0,0.0,0.0,0.0,0.0,0.0,0.0,0.0,0.0,0.0,0.0,0.0,0.0,0.0,0.0,0.0,0.0,0.0,0.0,0.0,0.0,0.0,0.0,0.0,-4.2049,-4.2902,-4.3068,-4.3068,-4.3068,-4.3546,-4.3711,-4.3711,-4.3711,-4.3965,-4.4453,-4.5176,-4.5454,-4.5607,-4.5431,-4.5255,-4.4902,-4.4902,-4.5331,-4.5818,0.0,0.0,0.0,0.0,0.0,0.0,0.0,0.0,0.0,0.0,-1.0876,-1.084,0.0,0.0,0.0,0.0,0.0,0.0,0.0,0.0,-1.6587,-1.673,-1.673,-1.6905,-1.727,-1.7375,-1.7752,-1.8458,-2.0042,-2.039,-1.9659,-2.0428,-2.026,-1.9245,-1.8853,-1.8499,-1.8246,-1.9502,-2.0228,-2.0476,-2.1344,-2.1558,0.0,0.0,0.0,0.0,0.0,0.0,0.0,0.0,0.0,0.0,-2.455,-2.5233,-2.6156,-2.6653,-2.8073,-2.9687,-3.037,-3.1286,-3.2276,-3.3088,-3.3524,-3.3568,-3.3342,-3.3513,-3.3634,-3.3735,-3.5475,-3.7348,-3.7847,-3.8806,0.0,0.0,0.0,0.0,0.0,0.0,0.0,0.0,0.0,0.0,0.0,0.0,0.0,0.0,0.0,0.0,0.0,0.0,0.0,0.0,0.0,0.0,0.0,0.0,0.0,-4.338,-4.338,-4.338,-4.3399,-4.3546,-4.3711,-4.373,-4.4082,-4.4394,-4.4707,-4.5566,-4.59,-4.5958,-4.5958,-4.5783,-4.5431,-4.5431,-4.5703,-4.6249,0.0,0.0,0.0,0.0,0.0,0.0,0.0,0.0,0.0,0.0,-1.119,-1.1081,0.0,0.0,0.0,0.0,0.0,0.0,0.0,0.0,-1.6365,-1.6714,-1.673,-1.6889,-1.7223,-1.6954,-1.711,-1.7537,-1.9039,-1.9212,-1.8297,-1.9661,-1.9574,-1.8338,-1.8866,-1.8829,-1.8637,-1.9918,-2.0759,-2.1213,-2.1353,-2.1427,-2.1642,0.0,0.0,0.0,0.0,0.0,0.0,0.0,0.0,0.0,-2.455,-2.4881,-2.5521,-2.6719,-2.7399,-2.808,-2.9284,-3.0823,-3.1828,-3.1264,-3.2357,-3.3195,-3.2307,-3.296,-3.3892,-3.435,-3.6677,-3.8465,-3.8108,0.0,0.0,0.0,0.0,0.0,0.0,0.0,0.0,0.0,0.0,0.0,0.0,0.0,0.0,0.0,0.0,0.0,0.0,0.0,0.0,0.0,0.0,0.0,0.0,0.0,0.0,0.0,-4.3711,-4.3711,-4.3711,-4.3711,-4.373,-4.3808,-4.4648,-4.5039,-4.5156,-4.5957,-4.6308,-4.6308,-4.6308,-4.6308,-4.6308,-4.6308,-4.6562,-4.6992,0.0,0.0,0.0,0.0,0.0,0.0,0.0,0.0,0.0,0.0,0.0,0.0,0.0,0.0,0.0,0.0,0.0,0.0,0.0,0.0,-1.6365,-1.6714,-1.673,-1.6778,-1.6841,-1.6593,-1.6684,-1.7113,-1.8732,-1.899,-1.7858,-1.9208,-1.9368,-1.8566,-1.916,-1.9713,-2.0121,-2.0698,-2.1034,-2.1058,-2.0624,-2.0512,-2.0602,-2.1518,0.0,0.0,0.0,0.0,0.0,0.0,0.0,0.0,-2.455,-2.5088,-2.5908,-2.6921,-2.8239,-2.9486,-3.0558,-3.1354,-3.1845,-3.2274,-3.2567,-3.2754,-3.2871,-3.3898,-3.4759,-3.483,-3.6113,-3.7571,-3.8682,0.0,0.0,0.0,0.0,0.0,0.0,0.0,0.0,0.0,0.0,0.0,0.0,0.0,0.0,0.0,0.0,0.0,0.0,0.0,0.0,0.0,0.0,0.0,-4.2402,-4.2569,-4.2882,0.0,-4.3711,-4.3711,-4.3711,-4.3711,-4.3906,-4.4277,-4.4805,-4.5215,-4.5566,-4.6094,-4.6308,-4.6308,-4.6308,-4.6308,-4.6308,-4.6308,-4.6562,-4.6992,0.0,0.0,0.0,0.0,0.0,0.0,0.0,0.0,0.0,0.0,0.0,0.0,0.0,0.0,0.0,0.0,0.0,0.0,0.0,0.0,0.0,0.0,-1.673,-1.673,-1.673,-1.6402,-1.6415,-1.6764,-1.7758,-1.7754,-1.7064,-1.8201,-1.8506,-1.8261,-1.8902,-1.9669,-2.0464,-2.0571,-2.0784,-2.0962,-2.0611,-2.0514,-2.0606,-2.1608,-2.186,-2.205,-2.3299,0.0,0.0,0.0,0.0,0.0,0.0,0.0,-2.5735,-2.6899,-2.8114,-2.9336,-3.013,-3.0863,-3.1565,-3.2241,-3.2651,-3.2965,-3.3076,-3.4348,-3.5556,-3.5556,-3.6638,0.0,0.0,0.0,0.0,0.0,0.0,0.0,0.0,0.0,0.0,0.0,0.0,0.0,0.0,0.0,0.0,0.0,0.0,0.0,0.0,0.0,0.0,0.0,0.0,0.0,-4.2735,-4.2735,-4.3048,-4.3711,-4.3711,-4.3711,-4.3711,-4.3711,-4.3965,-4.4414,-4.4844,-4.5273,-4.5703,-4.6133,-4.6308,-4.6308,-4.6308,-4.6308,-4.6308,-4.6308,-4.6562,-4.6992,0.0,0.0,0.0,0.0,0.0,0.0,0.0,0.0,0.0,0.0,0.0,0.0,0.0,0.0,0.0,0.0,0.0,0.0,0.0,0.0,0.0,0.0,0.0,0.0,0.0,0.0,0.0,-1.6591,-1.6474,-1.6507,-1.6536,-1.7342,-1.7866,-1.8191,-1.8584,-1.9422,-2.0421,-2.015,-2.0229,-2.0795,-2.0517,-2.0517,-2.0888,-2.1733,-2.2078,-2.212,-2.3212,0.0,-2.4206,-2.4272,0.0,0.0,0.0,0.0,-2.5439,-2.6783,-2.7728,-2.8653,-2.9489,-3.0446,-3.1354,-3.1799,-3.2754,-3.3512,-3.337,-3.4762,-3.6106,-3.6314,0.0,0.0,0.0,0.0,0.0,0.0,0.0,0.0,0.0,0.0,0.0,0.0,0.0,0.0,0.0,0.0,0.0,0.0,0.0,0.0,0.0,0.0,0.0,0.0,0.0,-4.2569,-4.3068,-4.3068,-4.3234,-4.3711,-4.3711,-4.3711,-4.3711,-4.3789,-4.4082,-4.4531,-4.4883,-4.5312,-4.582,-4.6152,-4.6308,-4.6308,-4.6308,-4.6308,-4.6308,-4.6308,-4.6621,-4.709,0.0,0.0,0.0,0.0,0.0,0.0,0.0,0.0,0.0,0.0,-1.2083,-1.1976,0.0,0.0,0.0,0.0,0.0,0.0,0.0,0.0,0.0,0.0,0.0,0.0,0.0,0.0,0.0,-1.6591,-1.592,-1.5977,-1.6875,-1.7466,-1.8344,-1.9536,-1.906,-1.9786,-2.1427,-1.9695,-1.9455,-2.0218,-1.9412,-1.9579,-2.04,-2.141,-2.182,-2.2031,-2.2492,-2.3299,-2.412,-2.3454,-2.382,0.0,0.0,0.0,0.0,-2.6886,-2.7756,-2.8646,-2.9963,-3.0942,-3.1672,-3.1863,-3.2576,-3.3354,-3.3923,0.0,-3.594,0.0,0.0,0.0,0.0,0.0,0.0,0.0,0.0,0.0,0.0,0.0,0.0,0.0,0.0,0.0,0.0,0.0,0.0,0.0,0.0,0.0,0.0,0.0,-4.2402,-4.2402,-4.2402,0.0,-4.3068,-4.3068,-4.3234,-4.3711,-4.3711,-4.3711,-4.3711,-4.4121,-4.4531,-4.4941,-4.5,-4.5469,-4.623,-4.6289,-4.6308,-4.6308,-4.6308,-4.6308,-4.6308,-4.6308,-4.6816,-4.75,0.0,0.0,0.0,0.0,0.0,0.0,0.0,0.0,0.0,0.0,0.0,-1.2215,0.0,0.0,0.0,0.0,0.0,0.0,0.0,0.0,0.0,0.0,0.0,0.0,0.0,0.0,-1.5883,-1.6133,-1.5841,-1.6009,-1.6669,-1.7071,-1.7971,-1.9192,-1.8899,-1.9239,-2.0076,-1.9374,-1.9362,-1.9734,-1.9493,-2.0295,-2.165,-2.1491,-2.1977,-2.2841,-2.2564,-2.326,-2.4251,-2.3816,-2.4226,-2.4881,-2.4612,0.0,0.0,0.0,-2.7801,-2.9095,-3.0287,-3.1034,-3.1326,-3.1815,-3.2839,-3.3973,-3.4486,-3.5463,-3.6497,0.0,0.0,0.0,0.0,0.0,0.0,0.0,0.0,0.0,0.0,0.0,0.0,0.0,0.0,0.0,0.0,0.0,0.0,0.0,0.0,0.0,0.0,-4.3048,-4.3048,-4.3048,-4.2902,0.0,-4.338,-4.3234,-4.3234,-4.3711,-4.3711,-4.3711,-4.373,-4.418,-4.4629,-4.5039,-4.5293,-4.5742,-4.6308,-4.6308,-4.6308,-4.6308,-4.6308,-4.6308,-4.6328,-4.6562,-4.7051,-4.7617,0.0,0.0,0.0,0.0,0.0,0.0,0.0,0.0,0.0,0.0,0.0,0.0,0.0,0.0,0.0,0.0,0.0,0.0,0.0,0.0,0.0,0.0,0.0,0.0,0.0,-1.5663,-1.5701,-1.586,-1.5874,-1.6199,-1.674,-1.6901,-1.7594,-1.8816,-1.8645,-1.8597,-1.8812,-1.9256,-1.9383,-1.9447,-2.0281,-2.1309,-2.2378,-2.2047,-2.2585,-2.3369,-2.2775,-2.3511,-2.4868,-2.424,-2.4723,-2.5482,-2.4902,0.0,0.0,0.0,0.0,-2.9693,-3.0588,-3.09,-3.1302,-3.2208,-3.3398,-3.4519,0.0,0.0,0.0,0.0,0.0,0.0,0.0,0.0,0.0,0.0,0.0,0.0,0.0,0.0,0.0,0.0,0.0,0.0,0.0,0.0,0.0,0.0,0.0,0.0,-4.3711,-4.3711,-4.3711,-4.3711,-4.338,-4.338,-4.3711,-4.338,-4.338,-4.3711,-4.3711,-4.3711,-4.373,-4.4297,-4.4726,-4.5058,-4.5488,-4.5918,-4.6308,-4.6308,-4.6308,-4.6308,-4.6308,-4.6308,-4.6348,-4.6777,-4.7207,-4.7637,0.0,0.0,0.0,0.0,0.0,0.0,0.0,0.0,0.0,0.0,0.0,0.0,-1.3595,-1.3789,-1.4142,-1.504,-1.5157,0.0,0.0,0.0,0.0,0.0,0.0,0.0,0.0,-1.5663,-1.5822,-1.6204,-1.5977,-1.655,-1.7735,-1.7443,-1.7808,-1.8787,-1.8155,-1.8172,-1.8843,-1.9606,-1.9622,-1.9526,-2.1778,-2.2084,-2.1513,-2.3217,-2.3729,-2.3374,-2.2754,-2.4175,-2.6135,-2.4067,-2.4791,-2.6351,-2.5482,-2.5813,-2.6537,0.0,0.0,0.0,-3.0659,-3.1047,-3.1838,-3.334,-3.4027,-3.4539,0.0,0.0,0.0,0.0,0.0,0.0,0.0,0.0,0.0,0.0,0.0,0.0,0.0,0.0,0.0,0.0,0.0,0.0,0.0,0.0,0.0,0.0,0.0,0.0,-4.3711,-4.3711,-4.3711,-4.3711,-4.3711,-4.3711,-4.3711,-4.3711,-4.3711,-4.3711,-4.3711,-4.3711,-4.373,-4.459,-4.5,-4.5058,-4.5488,-4.5918,-4.6308,-4.6308,-4.6308,-4.6308,-4.6308,-4.6308,-4.6348,-4.6777,-4.7207,-4.7637,0.0,0.0,0.0,0.0,0.0,0.0,0.0,0.0,0.0,0.0,0.0,0.0,0.0,-1.3709,-1.3985,-1.537,-1.5507,0.0,0.0,0.0,0.0,0.0,0.0,0.0,0.0,-1.5433,-1.5635,-1.5905,-1.6301,-1.6755,-1.7208,-1.7501,-1.7823,-1.816,-1.7925,-1.7941,-1.8233,-1.9429,-1.9989,-2.0098,-2.1828,-2.2863,-2.3434,-2.3222,-2.3673,-2.4456,-2.3825,-2.4408,-2.5446,-2.4436,-2.5185,-2.6467,-2.5317,-2.5939,-2.7076,-2.7345,-2.8333,-2.9374,-2.9288,-2.9979,-3.0891,-3.1353,-3.2578,-3.389,-3.4504,0.0,0.0,0.0,0.0,0.0,0.0,0.0,0.0,0.0,0.0,0.0,0.0,0.0,0.0,0.0,0.0,0.0,0.0,0.0,0.0,0.0,0.0,0.0,-4.3711,-4.3711,-4.3711,-4.3711,-4.3711,-4.3711,-4.3711,-4.3711,-4.3711,-4.3711,-4.3711,-4.3867,-4.416,-4.4766,-4.5176,-4.5469,-4.5898,-4.6172,-4.6308,-4.6308,-4.6308,-4.6308,-4.6308,-4.6308,-4.6387,-4.709,-4.7441,-4.7715,0.0,0.0,0.0,0.0,0.0,0.0,0.0,0.0,-1.2699,-1.2699,0.0,0.0,0.0,0.0,-1.3981,-1.5404,-1.5668,-1.5539,-1.5205,-1.5189,0.0,0.0,0.0,0.0,0.0,-1.5093,-1.5493,-1.59,-1.6463,-1.6857,-1.7194,-1.7618,-1.7867,-1.7969,-1.7867,-1.8001,-1.8414,-2.0247,-2.0751,-2.0527,-2.286,-2.3779,-2.3825,-2.3518,-2.4115,-2.5069,-2.4461,-2.4934,-2.5951,-2.5485,-2.6399,-2.7378,-2.6346,-2.6723,-2.7552,-2.7841,-2.8136,-2.8371,-2.8427,-2.9127,-2.9944,-3.071,-3.2129,-3.3553,-3.434,0.0,0.0,0.0,0.0,0.0,0.0,0.0,0.0,0.0,0.0,0.0,0.0,0.0,0.0,0.0,0.0,0.0,0.0,0.0,0.0,0.0,0.0,0.0,-4.3711,-4.3711,-4.3711,-4.3711,-4.3711,-4.3711,-4.3711,-4.3711,-4.3711,-4.3711,-4.3711,-4.3945,-4.4414,-4.4824,-4.5254,-4.5703,-4.6113,-4.6308,-4.6308,-4.6308,-4.6308,-4.6308,-4.6308,-4.6308,-4.6406,-4.7266,-4.7676,-4.793,0.0,0.0,0.0,0.0,0.0,0.0,0.0,0.0,-1.2699,-1.2699,0.0,0.0,0.0,0.0,0.0,-1.5146,-1.5544,-1.5602,-1.5253,-1.5237,0.0,0.0,0.0,0.0,-1.4676,-1.4721,-1.5264,-1.636,-1.6374,-1.6872,-1.7808,-1.7808,-1.7984,-1.8277,-1.7969,-1.8399,-1.951,-2.1996,-2.191,-2.0569,-2.4713,-2.4795,-2.2462,-2.4349,-2.5096,-2.5187,-2.4671,-2.5942,-2.7669,-2.7278,-2.812,-2.9243,-2.8521,-2.8113,-2.7945,-2.7847,-2.7442,-2.7275,0.0,0.0,0.0,-3.1427,0.0,0.0,0.0,0.0,0.0,0.0,0.0,0.0,0.0,0.0,0.0,0.0,0.0,0.0,0.0,0.0,0.0,0.0,0.0,0.0,0.0,0.0,0.0,0.0,0.0,-4.3691,-4.3711,-4.3711,-4.3711,-4.3711,-4.3711,-4.3711,-4.3711,-4.3711,-4.3711,-4.3711,-4.3711,-4.3945,-4.4433,-4.4844,-4.5273,-4.5723,-4.6133,-4.6308,-4.6308,-4.6308,-4.6308,-4.6308,-4.6308,-4.6308,-4.6426,-4.7266,-4.7851,-4.8281,0.0,0.0,0.0,0.0,0.0,0.0,-1.2699,-1.2699,-1.2699,0.0,0.0,0.0,-1.3931,-1.5099,-1.5806,-1.5533,-1.656,-1.6937,-1.6349,-1.6377,-1.6061,-1.514,-1.5188,-1.5126,-1.4909,-1.5218,-1.5673,-1.6282,-1.658,-1.6974,-1.7472,-1.7706,-1.7867,-1.7955,-1.8865,-1.9411,-1.9765,-2.0942,-2.1361,-2.1338,-2.3853,-2.458,-2.4013,-2.5022,-2.612,-2.71,-2.682,-2.6967,-2.7119,0.0,-2.7245,-2.7693,-2.8371,-2.856,-2.8222,-2.7502,-2.7603,-2.7723,-2.6596,0.0,0.0,0.0,0.0,0.0,0.0,0.0,0.0,0.0,0.0,0.0,0.0,0.0,0.0,0.0,0.0,0.0,0.0,0.0,0.0,0.0,0.0,0.0,0.0,0.0,0.0,0.0,0.0,-4.3379,-4.3691,-4.3711,-4.3711,-4.3711,-4.3711,-4.3711,-4.3711,-4.3711,-4.3711,-4.3711,-4.3711,-4.4101,-4.4863,-4.498,-4.543,-4.6133,-4.625,-4.6308,-4.6308,-4.6308,-4.6308,-4.6308,-4.6308,-4.6484,-4.6816,-4.7383,-4.7851,-4.832,0.0,0.0,0.0,0.0,0.0,0.0,-1.2723,-1.2807,-1.2831,0.0,0.0,0.0,-1.4035,-1.5381,-1.6183,-1.6094,-1.7064,-1.7368,-1.6818,-1.6722,-1.6338,-1.5522,-1.5458,-1.5298,-1.5173,-1.5331,-1.5604,-1.6063,-1.6492,-1.6813,-1.7135,-1.7604,-1.775,-1.7633,-1.914,-1.9924,-2.013,-2.1898,-2.2128,-2.1739,-2.4023,-2.4695,-2.4481,-2.5535,-2.653,0.0,0.0,0.0,-2.7685,-2.8061,-2.8138,-2.8273,-2.9269,-2.8933,-2.8015,-2.7383,-2.7007,-2.6583,-2.5737,-2.6254,-2.7178,-2.8265,0.0,0.0,0.0,-3.3762,0.0,0.0,0.0,0.0,0.0,0.0,0.0,0.0,0.0,0.0,0.0,0.0,0.0,0.0,0.0,0.0,0.0,0.0,0.0,0.0,-4.2871,-4.3262,-4.3691,-4.3711,-4.3711,-4.3711,-4.3711,-4.3711,-4.3711,-4.3711,-4.3711,-4.3711,-4.3711,-4.416,-4.5019,-4.5019,-4.5488,-4.6308,-4.6308,-4.6308,-4.6308,-4.6308,-4.6406,-4.6562,-4.6562,-4.6816,-4.7246,-4.7676,-4.8105,-4.8555,0.0,0.0,0.0,0.0,0.0,0.0,-1.2831,-1.3012,-1.3085,0.0,-1.2819,-1.3188,-1.4213,-1.5123,-1.6017,-1.6817,-1.7274,-1.7399,-1.697,-1.6728,-1.6405,-1.586,-1.5509,-1.5397,-1.5482,-1.5204,-1.5335,-1.5921,-1.6213,-1.6535,-1.6872,-1.7472,-1.7604,-1.7355,-1.9143,-2.0051,-2.0427,-2.3386,-2.3574,-2.2134,-2.4951,-2.5375,0.0,0.0,-2.6676,-2.6852,-2.7115,-2.7881,-2.8731,-2.9321,-2.9792,0.0,-3.0425,-2.9346,-2.7838,-2.7473,-2.6194,-2.504,-2.5575,-2.5793,-2.617,-2.7505,0.0,0.0,-3.2038,-3.2991,0.0,0.0,0.0,0.0,0.0,0.0,0.0,0.0,0.0,0.0,0.0,0.0,0.0,0.0,0.0,0.0,0.0,0.0,0.0,-4.1719,-4.2558,-4.3242,-4.3613,-4.3691,-4.3711,-4.3711,-4.3711,-4.3711,-4.3711,-4.3711,-4.3711,-4.3711,-4.375,-4.4219,-4.5019,-4.5078,-4.5527,-4.6308,-4.6308,-4.6308,-4.6308,-4.6308,-4.6523,-4.6855,-4.6855,-4.7148,-4.7617,-4.8008,-4.8437,-4.8867,0.0,0.0,0.0,0.0,0.0,0.0,0.0,-1.3399,-1.3423,-1.3363,-1.3544,-1.3964,-1.4747,-1.5749,-1.6593,-1.7135,-1.7888,-1.8024,-1.7489,-1.7462,-1.7161,-1.6563,-1.6551,-1.636,-1.5833,-1.576,-1.5789,-1.5921,-1.6213,-1.6535,-1.6948,-1.7238,-1.7384,-1.7355,-1.9062,-1.9713,-1.9657,-2.1852,-2.289,-2.342,-2.5872,-2.6203,-2.5374,-2.6471,-2.77,-2.8783,-2.8593,-2.8769,-2.9256,-2.8882,-2.9729,-3.0645,0.0,0.0,0.0,-2.7062,-2.675,-2.6924,-2.5086,-2.5272,-2.6318,-2.7911,0.0,0.0,-3.0846,-3.1506,-3.2038,0.0,0.0,0.0,0.0,0.0,0.0,0.0,0.0,0.0,0.0,0.0,0.0,0.0,0.0,0.0,0.0,0.0,-4.0434,-4.1269,-4.2402,-4.3105,-4.3203,-4.3516,-4.3711,-4.3711,-4.3711,-4.3711,-4.3711,-4.3711,-4.3711,-4.3711,-4.4082,-4.4531,-4.5039,-4.5391,-4.582,-4.6308,-4.6308,-4.6308,-4.6308,-4.6308,-4.6348,-4.6426,-4.6426,-4.6894,-4.7598,-4.7676,-4.8203,-4.8867,0.0,-1.049,0.0,0.0,0.0,0.0,0.0,-1.3628,-1.3664,-1.3532,-1.3857,-1.4337,-1.4949,-1.6086,-1.694,-1.7312,-1.8245,-1.8601,-1.8172,-1.8171,-1.7971,-1.7305,-1.7184,-1.6872,-1.6389,-1.6228,-1.614,-1.614,-1.6462,-1.6786,-1.6872,-1.734,-1.7727,-1.8108,-1.9429,-2.0082,-2.0172,-2.3645,-2.4392,-2.3457,-2.5363,0.0,-2.6603,-2.7569,-2.8534,-2.9383,-2.9383,-2.9804,-3.0325,-3.0284,-3.0498,0.0,-3.0472,-3.0004,-2.9172,0.0,-2.7344,-2.6971,0.0,0.0,0.0,-2.7233,0.0,0.0,0.0,-3.0185,0.0,0.0,0.0,0.0,0.0,0.0,0.0,0.0,0.0,0.0,0.0,0.0,0.0,0.0,0.0,0.0,0.0,0.0,-4.0549,-4.1133,-4.2148,-4.2851,-4.3066,-4.3476,-4.3711,-4.3711,-4.3711,-4.3711,-4.3711,-4.3711,-4.3711,-4.3711,-4.418,-4.4629,-4.5039,-4.5469,-4.5898,-4.6308,-4.6308,-4.6308,-4.6308,-4.6308,-4.6426,-4.6641,-4.6855,-4.7461,-4.8223,-4.8223,-4.8496,-4.8867,-0.9374,-1.0605,0.0,0.0,0.0,0.0,0.0,0.0,-1.393,-1.3773,-1.4148,-1.458,-1.5095,-1.61,-1.6817,-1.7007,-1.7956,-1.8497,-1.8398,-1.8411,-1.8426,-1.8218,-1.7765,-1.7399,-1.7135,-1.6696,-1.6433,-1.6374,0.0,-1.6857,-1.6872,-1.7443,-1.7978,-1.8583,-1.98,-2.0544,-2.1032,-2.5277,0.0,-2.3866,0.0,-2.6252,-2.7598,-2.8666,-2.9281,-2.9603,-2.9925,-3.0704,-3.1511,-3.1755,-3.1449,-3.1165,-3.1399,-3.0304,0.0,0.0,0.0,0.0,0.0,0.0,0.0,0.0,0.0,-2.7563,0.0,0.0,0.0,0.0,0.0,0.0,0.0,0.0,0.0,0.0,0.0,0.0,0.0,0.0,0.0,0.0,0.0,0.0,0.0,0.0,-4.0879,-4.1152,-4.2109,-4.2754,-4.2949,-4.3359,-4.3613,-4.3711,-4.3711,-4.3711,-4.3711,-4.3711,-4.3711,-4.3711,-4.4258,-4.4687,-4.5039,-4.5566,-4.5976,-4.6308,-4.6308,-4.6308,-4.6308,-4.6387,-4.668,-4.709,-4.7344,-4.7988,-4.873,-4.873,-4.8789,-4.8867,-0.9676,-1.1229,-1.2695,0.0,0.0,0.0,0.0,0.0,-1.4328,-1.4558,-1.4721,-1.5082,-1.5834,-1.5631,-1.5578,-1.6121,-1.6034,-1.638,-1.7326,-1.7339,-1.809,-1.9535,-1.8672,-1.8174,-1.813,-1.7267,-1.6652,-1.6374,0.0,0.0,0.0,-1.7223,-1.7589,-1.796,-1.9527,-2.0525,-2.132,-2.3216,-2.4849,0.0,-2.6588,-2.7056,0.0,-2.9178,-2.9954,-3.0276,-3.0598,-3.1227,-3.2022,0.0,-3.1962,-3.2062,0.0,-3.1022,-3.0655,-2.8939,0.0,0.0,0.0,0.0,0.0,0.0,-2.8205,0.0,0.0,0.0,0.0,0.0,0.0,0.0,0.0,0.0,0.0,0.0,0.0,0.0,0.0,0.0,0.0,0.0,0.0,0.0,0.0,0.0,0.0,-4.1191,-4.2656,-4.3242,-4.2539,-4.291,-4.332,-4.3691,-4.3711,-4.3711,-4.3711,-4.3711,-4.3711,-4.3711,-4.4551,-4.498,-4.5058,-4.5859,-4.625,-4.6308,-4.6308,-4.6308,-4.6328,-4.6699,-4.7109,-4.748,-4.7129,-4.7519,-4.8281,-4.8281,-4.8535,-4.8867,-0.9564,-1.1324,-1.288,-1.3423,0.0,0.0,0.0,0.0,-1.4652,-1.4803,-1.4836,-1.4928,-1.4768,-1.5321,-1.5462,-1.5362,-1.6093,-1.6973,-1.8097,-1.8199,-1.8784,-1.9954,-1.9286,-1.8774,-1.8584,-1.7808,-1.734,-1.7208,-1.715,0.0,0.0,0.0,0.0,-1.8686,-1.9633,-2.0945,-2.2422,0.0,-2.568,0.0,0.0,0.0,0.0,-2.9822,-3.0349,-3.0642,-3.1105,-3.1662,-3.2159,0.0,-3.2529,0.0,0.0,0.0,0.0,0.0,0.0,0.0,0.0,0.0,0.0,0.0,0.0,0.0,-2.881,0.0,-2.8132,0.0,0.0,0.0,0.0,0.0,0.0,0.0,0.0,0.0,0.0,0.0,0.0,0.0,0.0,0.0,0.0,0.0,0.0,0.0,0.0,-4.291,-4.2812,-4.2969,-4.3262,-4.3691,-4.3711,-4.3711,-4.3711,-4.3711,-4.3711,-4.3711,-4.459,-4.5019,-4.5058,-4.5918,-4.6308,-4.6308,-4.6308,-4.6445,-4.668,-4.6855,-4.7324,-4.793,-4.7734,-4.8047,-4.8594,-4.8594,-4.8691,-4.8867,-0.9648,-1.1113,-1.2533,-1.3333,0.0,0.0,0.0,-1.4604,-1.4753,-1.4843,-1.4889,-1.4703,-1.4306,-1.4997,-1.5297,-1.4775,-1.571,-1.679,0.0,-1.8301,-1.8885,-1.9523,-1.9633,-1.9382,-1.8696,-1.8239,-1.8043,-1.7955,0.0,0.0,0.0,0.0,0.0,0.0,0.0,-2.1398,-2.3021,0.0,-2.6429,-2.7452,-2.926,-3.0091,-3.0159,-3.0393,-3.0627,-3.0817,-3.1316,-3.1828,-3.2174,-3.267,-3.2865,0.0,-3.2809,0.0,0.0,0.0,0.0,0.0,-3.1828,0.0,0.0,0.0,0.0,0.0,0.0,0.0,0.0,0.0,0.0,0.0,0.0,0.0,0.0,-2.9223,0.0,0.0,0.0,0.0,0.0,0.0,0.0,0.0,0.0,0.0,0.0,0.0,-4.2051,0.0,-4.2734,-4.2949,-4.3223,-4.3516,-4.3633,-4.3711,-4.3711,-4.3711,-4.3711,-4.3711,-4.459,-4.5019,-4.5058,-4.5918,-4.6308,-4.6308,-4.6308,-4.6484,-4.6777,-4.7012,-4.748,-4.8066,-4.8301,-4.8574,-4.8867,-4.8867,-4.8867,-4.8867,-0.9913,-1.0702,-1.1827,-1.3243,-1.3519,0.0,0.0,-1.464,-1.4628,-1.4888,-1.494,-1.5013,-1.5122,-1.4558,-1.4325,-1.452,-1.3874,-1.4061,-1.5575,-1.7055,-1.7916,-1.812,-1.9746,-2.0005,-1.8404,-1.8688,-1.8599,0.0,0.0,0.0,0.0,0.0,0.0,0.0,-2.0931,-2.1897,-2.2637,-2.461,-2.6314,-2.7788,-2.8584,-2.9647,-3.0788,0.0,-3.0817,-3.0817,-3.1316,0.0,0.0,-3.267,-3.2692,0.0,0.0,0.0,0.0,0.0,0.0,0.0,0.0,0.0,0.0,-3.2496,0.0,0.0,0.0,0.0,-2.8957,0.0,0.0,0.0,0.0,-2.814,-2.8292,-2.6784,-2.8108,0.0,0.0,0.0,0.0,0.0,0.0,0.0,0.0,0.0,0.0,0.0,-4.2891,0.0,-4.1933,-4.2617,-4.3086,-4.3105,-4.3496,-4.3711,-4.3711,-4.3711,-4.3711,-4.3711,-4.459,-4.5019,-4.5058,-4.5918,-4.6308,-4.6308,-4.6308,-4.6308,-4.6387,-4.7226,-4.7578,-4.7676,-4.8516,-4.8848,-4.8867,-4.8867,-4.8867,-4.8867,-1.0051,-1.0936,-1.2015,-1.3266,-1.3664,-1.3944,0.0,-1.4584,0.0,0.0,-1.2915,0.0,0.0,-1.2911,-1.3237,0.0,0.0,-1.4858,-1.6177,-1.7476,-1.8105,-1.8452,-2.0094,-2.0169,-1.8671,-1.8906,-1.8959,0.0,0.0,0.0,0.0,0.0,0.0,0.0,0.0,-2.263,0.0,0.0,0.0,0.0,0.0,-3.0568,-3.1139,0.0,0.0,-3.1643,-3.2145,-3.2479,0.0,-3.3227,-3.3154,-3.3127,-3.3127,-3.2634,-3.2203,-3.2855,-3.3078,0.0,0.0,0.0,-3.4477,-3.3927,0.0,0.0,0.0,0.0,0.0,0.0,0.0,0.0,0.0,-2.8533,-2.8574,-2.7957,-2.852,-2.9278,0.0,0.0,0.0,0.0,0.0,0.0,0.0,0.0,0.0,-4.0469,-4.1855,-4.2539,0.0,-4.2754,-4.3086,-4.3086,-4.3223,-4.3418,-4.3711,-4.3437,-4.3437,-4.3711,-4.459,-4.5019,-4.5058,-4.5918,-4.6308,-4.6308,-4.6308,-4.6621,-4.7168,-4.7461,-4.791,-4.8457,-4.875,-4.8867,-4.8867,-4.8867,-4.8867,-4.8867,-1.0176,-1.1232,-1.2246,-1.3433,-1.3954,0.0,0.0,0.0,0.0,0.0,-1.1633,0.0,-1.2057,0.0,-1.2836,0.0,-1.4675,-1.5052,-1.6048,-1.7023,0.0,-1.7368,-1.9123,-1.9407,-1.79,-1.8784,-1.9149,-1.8836,0.0,-1.9197,0.0,0.0,0.0,0.0,0.0,-2.2986,-2.4839,-2.5707,-2.7604,0.0,0.0,-3.1022,0.0,0.0,-3.1653,0.0,0.0,-3.2813,-3.3115,-3.3391,-3.3397,-3.3301,-3.3301,-3.2888,-3.2602,-3.3208,-3.3592,-3.3785,-3.4162,-3.4859,0.0,0.0,-3.5009,0.0,-3.4073,0.0,0.0,0.0,0.0,0.0,0.0,0.0,-2.8913,-2.8916,-2.8974,-2.9215,0.0,-3.0587,0.0,0.0,0.0,0.0,0.0,0.0,-3.9121,-4.043,-4.1445,-4.207,0.0,0.0,-4.3086,-4.3086,-4.3223,-4.3437,-4.3711,-4.3437,-4.3437,-4.3711,-4.459,-4.5019,-4.5058,-4.5918,-4.6308,-4.6308,-4.6308,-4.6699,-4.7363,-4.7519,-4.7988,-4.8633,-4.8789,-4.8867,-4.8867,-4.8867,-4.8867,-4.8867,0.0,-1.1589,-1.2709,0.0,-1.4401,0.0,0.0,0.0,-1.2875,0.0,-1.1183,-1.0987,-1.2287,-1.2208,-1.2991,-1.5161,-1.4736,-1.4627,-1.4968,-1.6111,0.0,0.0,-1.7295,-1.7886,-1.6309,0.0,-1.9026,-1.896,0.0,0.0,0.0,0.0,0.0,0.0,-2.1642,0.0,-2.461,-2.6284,-2.798,-2.9721,-3.0549,-3.1037,-3.1315,-3.1315,0.0,-3.2113,-3.2145,-3.252,-3.285,-3.3328,-3.3254,-3.2984,-3.2984,-3.273,-3.2507,-3.3018,-3.3958,-3.4915,-3.495,-3.5379,-3.5705,-3.5687,0.0,0.0,0.0,0.0,-3.3541,0.0,0.0,0.0,0.0,0.0,-2.9446,-2.9549,-2.9259,-2.9297,-3.0117,0.0,0.0,0.0,0.0,0.0,0.0,-3.748,-3.9023,-4.0391,-4.166,-4.2207,0.0,0.0,0.0,-4.3086,-4.3437,-4.3672,-4.3711,-4.3691,-4.3691,-4.3711,-4.459,-4.5019,-4.5058,-4.5918,-4.6308,-4.6308,-4.6308,-4.6562,-4.6992,-4.7402,-4.7851,-4.8281,-4.8691,-4.8867,-4.8867,-4.8867,-4.8867,-4.8867,-1.0773,-1.263,-1.4276,0.0,-1.4671,-1.4584,0.0,0.0,0.0,0.0,-0.9908,-1.014,-1.0678,-1.1893,-1.345,-1.5285,-1.5268,0.0,0.0,0.0,0.0,-1.5366,-1.7602,-1.8051,-1.6397,-1.8317,-1.9242,-1.9137,0.0,0.0,-2.0969,0.0,0.0,0.0,0.0,0.0,-2.5659,-2.6383,-2.8066,-3.0229,-3.0964,-3.1242,0.0,0.0,-3.1806,-3.2464,-3.2541,-3.3026,-3.3676,-3.3572,-3.3429,-3.3349,-3.3349,-3.3111,-3.2986,-3.3725,-3.4434,-3.5072,-3.5712,-3.6426,-3.6897,-3.6604,-3.6586,-3.6439,0.0,0.0,0.0,0.0,0.0,0.0,0.0,0.0,0.0,-3.1007,-3.0684,-3.0469,-3.0684,0.0,0.0,0.0,0.0,0.0,0.0,-3.623,-3.7617,-3.9883,-4.0957,0.0,0.0,0.0,0.0,-4.3086,-4.2871,-4.3066,-4.3691,-4.3398,-4.3398,-4.3711,-4.459,-4.5019,-4.5058,-4.5918,-4.6308,-4.6308,-4.6308,-4.6719,-4.7422,-4.7539,-4.8027,-4.8711,-4.8808,-4.8867,-4.8867,-4.8867,-4.8867,-4.8867,-1.0488,0.0,0.0,-1.5013,0.0,0.0,-1.3841,-1.3432,0.0,-1.0423,-1.0504,0.0,-1.1685,-1.2377,-1.3591,-1.5441,-1.5561,0.0,-1.574,0.0,0.0,-1.5845,-1.6903,-1.7106,-1.6329,-1.7709,0.0,-1.9166,0.0,0.0,-2.1191,0.0,0.0,0.0,0.0,-2.5005,-2.631,-2.7481,-2.8973,-3.0583,-3.0949,0.0,0.0,-3.1322,-3.1945,-3.2846,-3.2876,-3.3333,-3.4001,-3.3953,-3.3937,-3.3937,-3.3937,-3.4013,-3.4018,-3.4358,-3.4869,-3.5504,-3.581,-3.6417,-3.6842,-3.6622,-3.6732,-3.6714,-3.6036,-3.5742,-3.5522,0.0,0.0,0.0,0.0,0.0,0.0,-3.2688,-3.2129,-3.1719,0.0,0.0,0.0,0.0,0.0,0.0,0.0,0.0,0.0,0.0,0.0,0.0,0.0,0.0,0.0,0.0,-4.293,-4.3027,-4.3691,-4.3476,-4.3476,-4.3711,-4.459,-4.5019,-4.5058,-4.5918,-4.6308,-4.6308,-4.6308,-4.6797,-4.7578,-4.7578,-4.8086,-4.8867,-4.8867,-4.8867,-4.8867,-4.8867,-4.8867,-4.8867,0.0,0.0,0.0,0.0,0.0,0.0,0.0,-1.344,0.0,-1.1325,0.0,-1.2172,-1.3228,-1.3317,-1.3995,-1.5618,0.0,-1.5715,-1.6024,-1.5756,-1.5804,-1.6284,-1.5861,-1.5829,-1.6292,-1.6889,-1.7718,0.0,0.0,0.0,0.0,0.0,0.0,0.0,0.0,0.0,0.0,-2.9047,-3.0276,0.0,-3.0876,-3.1037,-3.1395,-3.1524,-3.2281,-3.3245,-3.3382,-3.3777,-3.4128,-3.4414,-3.4509,-3.4509,-3.4509,-3.4925,-3.5229,-3.5095,-3.5635,-3.6248,-3.5911,-3.6182,-3.6494,-3.6384,-3.6366,-3.6347,-3.6237,-3.5944,-3.5889,-3.6604,-3.5632,0.0,0.0,0.0,0.0,-3.427,0.0,0.0,0.0,0.0,0.0,0.0,0.0,0.0,0.0,0.0,0.0,0.0,0.0,0.0,0.0,0.0,0.0,0.0,-4.3301,0.0,-4.3691,0.0,-4.3711,-4.3711,-4.459,-4.5019,-4.5058,-4.5918,-4.6308,-4.6308,-4.6367,-4.6836,-4.7578,-4.7637,-4.8144,-4.8867,-4.8867,-4.8867,-4.8867,-4.8867,-4.8867,-4.8867,0.0,0.0,0.0,0.0,0.0,-1.2604,-1.2368,-1.0113,-0.8372,-0.8094,-0.9598,-1.0691,-1.112,-1.3577,-1.544,-1.5983,-1.5967,0.0,0.0,0.0,0.0,-1.6292,-1.6211,-1.6211,-1.63,-1.7155,-1.8319,0.0,0.0,0.0,0.0,0.0,0.0,0.0,0.0,0.0,-2.8549,-2.9749,0.0,-3.0846,-3.111,-3.1263,-3.1464,-3.2109,-3.2722,-3.3321,-3.4003,-3.4328,-3.443,-3.4493,-3.4509,-3.4509,-3.4509,-3.4925,-3.546,-3.6051,-3.6702,-3.7294,-3.7855,-3.8116,-3.8053,-3.7374,-3.7209,-3.7026,-3.6366,-3.6164,-3.6146,-3.6292,-3.6091,-3.6018,-3.6293,0.0,0.0,0.0,0.0,0.0,0.0,0.0,0.0,0.0,0.0,0.0,0.0,0.0,0.0,0.0,0.0,0.0,0.0,0.0,0.0,0.0,0.0,0.0,0.0,0.0,0.0,-4.3711,-4.459,-4.5019,-4.5058,-4.5918,-4.6308,-4.6328,-4.666,-4.7109,-4.7617,-4.7949,-4.8398,-4.8867,-4.8867,-4.8867,-4.8867,-4.8867,-4.8867,-4.8867,0.0,0.0,0.0,0.0,0.0,0.0,0.0,-0.7911,0.0,-0.8225,-1.0651,-1.2211,-1.2408,-1.4423,-1.5951,-1.604,-1.6048,-1.6048,-1.6048,-1.6048,-1.6162,-1.6438,-1.6357,-1.6389,-1.6584,-1.6901,-1.8086,-2.035,0.0,0.0,0.0,0.0,0.0,0.0,0.0,-2.8505,0.0,0.0,0.0,-3.0832,-3.0993,-3.1234,-3.1446,-3.2263,-3.3014,-3.3569,-3.4408,-3.4877,-3.5065,-3.5065,-3.5065,-3.5033,-3.4843,-3.5369,-3.6173,-3.6293,-3.7028,-3.7801,-3.7915,-3.8016,-3.7924,-3.7521,-3.7429,-3.7319,-3.6934,-3.6677,-3.6531,-3.6531,-3.6366,-3.6367,-3.6683,-3.6807,0.0,0.0,0.0,0.0,0.0,0.0,0.0,0.0,0.0,0.0,0.0,0.0,0.0,0.0,0.0,0.0,0.0,0.0,0.0,0.0,0.0,0.0,0.0,0.0,0.0,-4.3398,-4.4492,-4.5019,-4.5058,-4.5918,-4.6308,-4.6328,-4.6738,-4.7187,-4.7637,-4.8281,-4.8672,-4.8867,-4.8867,-4.8867,-4.8867,-4.8867,-4.8867,-4.8867,0.0,-1.1301,0.0,0.0,-1.053,0.0,-0.8617,-0.6698,-0.6013,-0.8353,-1.1224,-1.303,-1.3144,-1.4856,-1.6032,-1.5991,-1.6024,-1.6048,-1.6048,-1.6048,-1.6202,-1.6568,-1.6438,-1.6535,-1.6901,-1.673,-1.79,0.0,0.0,0.0,0.0,0.0,0.0,0.0,0.0,0.0,0.0,0.0,-3.0364,-3.0817,-3.0817,-3.1189,-3.1653,-3.2571,-3.3306,-3.4016,-3.4784,-3.5335,-3.5558,-3.5494,-3.5462,-3.5415,-3.5301,-3.6088,-3.6953,-3.6534,-3.7188,-3.8089,-3.7778,-3.7686,-3.7668,-3.7576,-3.7558,-3.7521,-3.7448,-3.7191,-3.6952,-3.6952,-3.6641,-3.6588,-3.7202,-3.7502,0.0,0.0,0.0,0.0,0.0,0.0,0.0,0.0,0.0,0.0,0.0,0.0,0.0,0.0,0.0,0.0,-4.2109,-4.2109,0.0,0.0,0.0,0.0,-4.3086,0.0,-4.3496,0.0,-4.4394,-4.5019,-4.5058,-4.5918,-4.6308,-4.6328,-4.6855,-4.7363,-4.791,-4.8574,-4.8867,-4.8867,-4.8867,-4.8867,-4.8867,-4.8867,-4.8867,-4.8867,0.0,0.0,0.0,0.0,0.0,0.0,0.0,-0.6496,-0.5448,-0.5604,-0.872,-1.0863,-1.0716,-1.3959,-1.5975,-1.5813,-1.5951,-1.6048,-1.6048,-1.6048,-1.6202,-1.6568,-1.656,-1.6722,-1.708,-1.6917,-1.7562,0.0,0.0,0.0,0.0,0.0,0.0,0.0,0.0,0.0,0.0,-3.0612,-3.0773,-3.0817,-3.0817,-3.1509,-3.2678,-3.2998,-3.3847,-3.4909,-3.5415,-3.5558,-3.5526,-3.5192,-3.5081,-3.5253,-3.589,-3.6426,-3.6826,-3.759,-3.8096,-3.8585,-3.853,-3.853,-3.8438,-3.8053,-3.7961,-3.7869,-3.7503,-3.7393,-3.7374,-3.7374,-3.7062,-3.6787,-3.6824,-3.6512,-3.6664,0.0,0.0,0.0,0.0,0.0,0.0,-3.8191,0.0,0.0,0.0,0.0,0.0,0.0,0.0,-4.0742,-4.1269,-4.2344,0.0,-4.3691,0.0,-4.3418,-4.3086,-4.3496,0.0,-4.3105,-4.4394,-4.5019,-4.5058,-4.5918,-4.6308,-4.6348,-4.7168,-4.7988,-4.875,-4.8828,-4.8867,-4.8867,-4.8867,-4.8867,-4.8867,-4.8867,-4.8867,-4.8867,0.0,0.0,0.0,0.0,0.0,0.0,0.0,-0.6117,-0.5665,-0.6612,-0.8898,-1.0891,-1.2123,-1.4415,-1.5934,-1.6081,-1.6162,-1.6243,-1.6357,-1.6365,-1.6479,-1.673,-1.6747,-1.686,-1.7104,-1.7039,-1.8286,0.0,0.0,0.0,0.0,0.0,0.0,0.0,0.0,-3.017,-3.0642,-3.0773,-3.0817,-3.0846,-3.1037,-3.1638,-3.2659,-3.3334,-3.4016,-3.5004,-3.5099,-3.5256,-3.5192,-3.4843,-3.4859,-3.5125,-3.5537,-3.6041,-3.674,-3.7344,-3.8293,-3.8988,-3.8988,-3.9171,-3.9263,-3.8841,-3.875,-3.864,-3.8255,-3.7961,-3.7778,-3.7778,-3.7466,-3.7264,-3.7503,-3.7767,-3.7939,0.0,0.0,0.0,0.0,0.0,0.0,0.0,0.0,-3.8498,0.0,0.0,0.0,0.0,0.0,0.0,0.0,-4.2695,0.0,-4.4453,0.0,-4.3242,-4.3086,-4.3496,-4.3496,-4.3105,-4.4394,-4.5156,-4.543,-4.6035,-4.6582,-4.709,-4.7422,-4.8066,-4.8867,-4.8867,-4.8867,-4.8867,-4.8867,-4.8867,-4.8867,-4.8867,-4.8867,-4.8867,-1.0076,0.0,-0.9687,0.0,-0.7906,-0.7037,-0.6275,-0.6158,-0.6666,-0.8414,-1.0045,-1.1716,-1.3137,-1.4952,-1.6032,-1.6284,-1.6349,-1.6438,-1.6568,-1.6584,-1.6665,-1.6844,-1.6901,0.0,-1.7112,-1.7161,-1.8654,-2.1532,-2.2374,0.0,0.0,0.0,0.0,0.0,-3.0001,-3.0281,-3.0817,-3.0817,-3.0876,-3.0993,-3.1381,-3.2074,-3.2991,-3.3578,-3.4405,-3.5177,-3.4988,-3.5033,-3.497,-3.4509,-3.4758,-3.5306,-3.5792,-3.6385,-3.7084,-3.7899,-3.8707,-3.941,-3.941,-3.9612,-3.9777,-3.9483,-3.941,-3.9336,-3.9061,-3.8768,-3.8511,-3.8401,-3.8053,-3.7833,-3.7979,-3.8476,-3.8687,0.0,0.0,0.0,0.0,0.0,0.0,0.0,-3.8841,-3.9376,-3.9971,0.0,0.0,0.0,0.0,0.0,0.0,0.0,0.0,0.0,0.0,0.0,0.0,0.0,-4.3379,-4.3105,-4.4394,-4.5254,-4.5683,-4.6113,-4.6777,-4.7578,-4.7578,-4.8066,-4.8867,-4.8867,-4.8867,-4.8867,-4.8867,-4.8867,-4.8867,-4.8867,-4.8867,-4.8867,-0.9858,-0.9494,-0.8668,-0.8052,-0.7102,-0.6282,-0.546,-0.6769,-0.8406,-1.0367,-1.2006,-1.3152,-1.3152,-1.5081,-1.63,-1.63,-1.647,-1.6576,-1.6584,-1.6584,-1.6665,0.0,0.0,-1.7112,-1.7112,-1.7291,-1.8169,-1.9873,0.0,0.0,-2.2773,0.0,0.0,-3.0165,-3.0665,-3.0817,-3.0817,-3.0817,-3.1007,-3.13,-3.1806,-3.2719,-3.3655,-3.4188,-3.4926,-3.5526,-3.516,-3.5033,-3.4938,-3.4255,-3.4909,-3.6041,-3.6843,-3.7578,-3.8167,-3.954,-3.9832,-3.9832,-3.9832,-3.9832,-3.985,-3.9832,-3.9832,-3.9832,-3.9832,-3.9832,-3.9703,-3.93,-3.8915,-3.8511,-3.8089,-3.7704,-3.773,-3.8601,0.0,0.0,0.0,0.0,0.0,0.0,-4.1235,-4.1775,-4.174,0.0,0.0,0.0,0.0,0.0,0.0,0.0,0.0,-4.373,-4.3711,0.0,-4.2441,-4.2871,-4.3086,-4.3105,-4.4394,-4.5254,-4.5683,-4.6113,-4.6777,-4.7578,-4.7578,-4.8066,-4.8867,-4.8867,-4.8867,-4.8867,-4.8867,-4.8867,-4.8867,-4.8867,-4.8867,-4.8867,-0.8433,-0.9029,-0.8756,-0.7271,-0.6776,-0.6266,-0.5401,-0.6735,-0.857,-1.0367,-1.2332,-1.3999,-1.5295,-1.5973,-1.6405,0.0,-1.673,-1.682,0.0,-1.7063,-1.7153,-1.7218,-1.738,-1.7469,-1.7469,-1.7526,-1.9124,-2.2236,0.0,0.0,0.0,-2.8276,-2.9297,-2.9959,-3.0265,-3.0499,-3.0832,-3.1066,-3.1212,-3.1344,-3.2312,-3.3127,-3.367,-3.4173,-3.4753,-3.5129,-3.4541,-3.4334,-3.4302,-3.4747,-3.556,-3.6737,-3.8084,-3.8477,-3.8541,-3.9632,-4.0052,-4.0272,-4.0272,-4.0473,-4.0602,-4.0345,-4.0272,-4.0198,-3.9905,-3.985,-3.9795,-3.9667,-3.9538,-3.941,-3.9281,-3.9153,-3.9025,-3.9037,0.0,0.0,0.0,0.0,0.0,0.0,-4.0375,-4.0783,0.0,-4.1699,0.0,0.0,0.0,0.0,0.0,0.0,0.0,0.0,-4.373,0.0,-4.3301,-4.3144,-4.3379,-4.3984,-4.4687,-4.541,-4.6113,-4.6543,-4.7031,-4.7598,-4.7891,-4.834,-4.8867,-4.8867,-4.8867,-4.8867,-4.8867,-4.8867,-4.8867,-4.8867,-4.8867,-4.8867,-0.7585,-0.8177,-0.8036,-0.6794,-0.6308,-0.5961,-0.5378,-0.7397,-0.9448,-1.0596,-1.2991,-1.5278,-1.6486,-1.6633,0.0,-1.6933,-1.695,-1.6998,-1.7104,-1.7283,-1.7388,-1.7388,-1.7616,-1.7681,-1.7551,0.0,0.0,-2.2019,-2.3272,-2.5466,-2.843,-2.9267,-2.9761,-2.9761,-3.0251,-3.0571,-3.1022,-3.1227,-3.1616,-3.2052,-3.2985,-3.3573,-3.4185,-3.4392,-3.469,-3.4938,-3.4255,-3.4263,-3.4844,-3.5196,-3.6321,-3.7805,-3.8944,-3.9384,-3.9645,-4.0125,-4.0492,-4.0694,-4.0694,-4.0877,-4.1005,-4.0749,-4.0694,-4.062,-4.0363,-4.029,-4.0253,-4.0107,-4.007,-4.0033,-3.9868,-3.985,-3.9921,-3.9664,0.0,-3.9326,0.0,0.0,0.0,0.0,0.0,0.0,0.0,-4.2129,0.0,0.0,0.0,0.0,0.0,0.0,0.0,-4.4277,-4.3496,0.0,-4.3223,-4.2969,-4.3359,-4.4414,-4.5156,-4.5781,-4.6308,-4.6738,-4.7168,-4.7598,-4.8027,-4.8359,-4.8633,-4.8789,-4.8769,-4.8633,-4.8789,-4.8867,-4.8867,-4.8867,-4.8867,-4.8867,-0.7275,-0.7176,0.0,0.0,-0.5837,0.0,-0.5387,-0.8432,-1.0882,-1.107,-1.4337,-1.6665,-1.6852,-1.7015,-1.7112,-1.7112,0.0,0.0,0.0,-1.7299,-1.7404,-1.7404,-1.7737,0.0,-1.7429,-1.7567,-1.8356,-2.0066,-2.3697,-2.6456,-2.8177,-2.9174,-2.9523,-2.9551,-3.0527,-3.1037,-3.1344,-3.1373,-3.2067,-3.2976,-3.3527,-3.4232,-3.4797,-3.4956,-3.4986,-3.4874,-3.4239,-3.4876,-3.5774,-3.5659,-3.7176,-3.9271,-3.9306,-4.0078,-4.106,-4.106,-4.106,-4.106,-4.106,-4.106,-4.106,-4.106,-4.106,-4.106,-4.106,-4.106,-4.095,-4.0584,-4.051,-4.04,-3.9997,-3.9923,-4.0087,-4.0558,-4.054,-4.0703,-4.1152,0.0,0.0,0.0,0.0,0.0,0.0,-4.3613,-4.332,0.0,0.0,0.0,0.0,0.0,0.0,-4.3125,-4.3047,-4.2851,-4.248,-4.25,-4.3183,-4.4492,-4.5683,-4.6269,-4.6308,-4.6738,-4.7168,-4.7598,-4.8047,-4.8242,-4.8242,-4.8672,-4.8594,-4.8242,-4.8691,-4.8867,-4.8867,-4.8867,-4.8867,-4.8867,0.0,0.0,-0.6467,-0.579,-0.5431,-0.5739,-0.723,-0.9297,-1.1444,-1.3167,-1.5265,-1.6852,-1.7031,-1.7088,-1.7112,-1.7112,-1.7112,-1.7112,-1.7112,-1.7404,-1.7583,-1.7583,-1.7794,-1.7875,-1.7794,-1.7689,-1.9124,-2.2204,-2.4847,-2.6958,-2.8497,-2.9336,-2.9957,-3.0181,-3.0962,-3.1373,-3.1695,-3.2289,-3.2827,-3.3165,-3.4119,-3.4467,-3.4423,-3.4593,-3.4477,-3.4239,-3.4064,-3.4714,-3.5692,-3.6828,-3.8108,-3.9324,-4.03,-4.0819,-4.106,-4.106,-4.106,-4.106,-4.106,-4.106,-4.106,-4.106,-4.106,-4.106,-4.106,-4.106,-4.1024,-4.095,-4.0914,-4.0895,-4.0785,-4.0767,-4.0842,-4.1006,-4.0968,-4.1185,-4.1533,0.0,0.0,0.0,-4.2573,-4.2734,-4.2734,-4.2734,-4.3066,0.0,0.0,0.0,0.0,0.0,-4.3828,-4.3105,-4.2754,-4.2695,-4.293,-4.3242,-4.4062,-4.5371,-4.5683,-4.5996,-4.6308,-4.6738,-4.7168,-4.7617,-4.8379,-4.8516,-4.8242,-4.8672,-4.8594,-4.8242,-4.8691,-4.8867,-4.8867,-4.8867,-4.8867,-4.8867,-0.5002,-0.5671,-0.5826,-0.5462,-0.5313,-0.6001,-0.7869,-0.9835,-1.1857,-1.3899,-1.5805,-1.7006,-1.7096,-1.7112,-1.7112,-1.7112,-1.7112,-1.7145,-1.7234,-1.7494,-1.7681,-1.7762,-1.7867,-1.7916,-1.7916,-1.7737,-1.9375,-2.3149,-2.4339,-2.6297,-2.9136,-2.981,-3.0409,-3.0751,-3.1266,-3.171,-3.2032,-3.2728,-3.324,-3.355,-3.4278,-3.469,-3.4627,-3.4308,-3.4255,-3.4223,-3.4064,-3.5043,-3.671,-3.7453,-3.8891,-4.0264,-4.0819,-4.106,-4.106,-4.106,-4.106,-4.106,-4.106,-4.106,-4.106,-4.106,-4.106,-4.106,-4.106,-4.106,-4.106,-4.106,-4.106,-4.106,-4.106,-4.106,-4.1155,-4.1601,-4.156,-4.1682,-4.2288,-4.2236,0.0,-4.2422,-4.2422,-4.2422,-4.2422,-4.2422,-4.2715,-4.3437,0.0,0.0,-4.3769,-4.3555,-4.3223,-4.2793,-4.2754,-4.293,-4.3359,-4.418,-4.4863,-4.5391,-4.5781,-4.5976,-4.6055,-4.6855,-4.7363,-4.7637,-4.8476,-4.8496,-4.7969,-4.8594,-4.8496,-4.7988,-4.8613,-4.8867,-4.8867,-4.8867,-4.8867,-4.8867,-0.4987,-0.5354,-0.5373,-0.5341,-0.5749,-0.6502,-0.8394,-1.0427,-1.2475,-1.4423,-1.6125,-1.7112,-1.7112,-1.7112,-1.7112,-1.7112,-1.7112,-1.7177,-1.7339,-1.7559,-1.7737,-1.7867,-1.7924,-1.794,-1.7916,-1.7737,-1.9239,-2.2799,-2.3165,-2.529,-2.8831,-2.9886,-3.0606,-3.0835,-3.1526,-3.2046,-3.2354,-3.2877,-3.3565,-3.4143,-3.4312,-3.4658,-3.489,-3.4255,-3.4191,-3.4398,-3.4343,-3.584,-3.7775,-3.7996,-3.9423,-4.106,-4.106,-4.106,-4.106,-4.106,-4.106,-4.106,-4.106,-4.106,-4.106,-4.106,-4.106,-4.106,-4.106,-4.106,-4.106,-4.106,-4.106,-4.106,-4.106,-4.106,-4.1434,-4.2405,-4.2175,-4.2239,-4.3195,0.0,-4.2617,-4.2617,-4.2617,-4.2617,-4.2617,-4.2617,-4.2617,-4.2617,-4.291,0.0,0.0,-4.3086,-4.291,-4.2539,-4.2891,-4.332,-4.3808,-4.498,-4.543,-4.5137,-4.5801,-4.5996,-4.5801,-4.6953,-4.7519,-4.7617,-4.8418,-4.832,-4.7637,-4.8359,-4.8242,-4.7656,-4.8457,-4.8808,-4.8867,-4.8867,-4.8867,-4.8867,-0.5097,-0.5414,-0.5412,-0.5501,-0.6857,-0.8582,-1.0468,-1.2439,-1.4437,-1.6339,-1.6912,-1.7112,-1.7112,-1.7112,-1.7112,-1.7112,-1.7112,-1.712,-1.7153,-1.7607,-1.7819,-1.7689,-1.7973,-1.807,-1.7916,-1.7737,-1.8708,-2.0846,-2.2443,-2.3875,-2.4948,-2.8644,-3.001,-2.9189,-3.1322,-3.2383,-3.269,-3.3571,-3.4128,-3.4319,-3.4658,-3.4859,-3.4541,-3.4159,-3.4048,-3.4279,-3.519,-3.656,-3.7978,-3.8985,-4.0162,-4.106,-4.106,-4.106,-4.106,-4.106,-4.106,-4.106,-4.106,-4.106,-4.106,-4.106,-4.106,-4.106,-4.106,-4.106,-4.106,-4.106,-4.106,-4.106,-4.106,-4.106,-4.1619,-4.3159,-4.2799,-4.2888,0.0,0.0,-4.3516,-4.3516,-4.3516,-4.3516,-4.3516,-4.3516,-4.3516,-4.3516,-4.3242,-4.3086,-4.3086,-4.3086,-4.3047,-4.2969,-4.3047,-4.3476,-4.4277,-4.4844,-4.5273,-4.5566,-4.5332,-4.5566,-4.623,-4.6777,-4.7226,-4.7617,-4.8086,-4.8027,-4.7598,-4.7734,-4.7695,-4.7637,-4.8125,-4.8535,-4.8867,-4.8867,-4.8867,-4.8867,-0.4917,-0.5455,-0.5496,-0.5551,-0.7118,-0.9065,-1.0962,-1.2929,-1.4892,-1.692,-1.7112,-1.7112,-1.7112,-1.7112,-1.7112,-1.7112,-1.7201,-1.7258,-1.7258,-1.7672,-1.7916,-1.7932,-1.8087,-1.8095,-1.7924,-1.7924,-1.8834,-2.0828,-2.1738,-2.2997,-2.4801,-2.6771,-2.8271,-2.9482,-3.056,-3.1897,-3.3293,-3.3822,-3.4242,-3.4216,-3.4548,-3.4541,-3.4223,-3.4064,-3.4128,-3.4486,-3.5684,-3.7064,-3.8271,-3.9296,-4.0367,-4.106,-4.106,-4.106,-4.106,-4.106,-4.106,-4.106,-4.106,-4.106,-4.106,-4.106,-4.106,-4.106,-4.106,-4.106,-4.106,-4.106,-4.106,-4.106,-4.106,-4.106,-4.1526,-4.2744,-4.2459,0.0,0.0,-4.3418,-4.3008,-4.3008,-4.3008,-4.3008,-4.3008,-4.3008,-4.3008,-4.3008,-4.3047,-4.3086,-4.3086,-4.3301,-4.3535,-4.3789,-4.3789,-4.4101,-4.4726,-4.5156,-4.5351,-4.5332,-4.5586,-4.5801,-4.5996,-4.6875,-4.7383,-4.7598,-4.8027,-4.7969,-4.7578,-4.7578,-4.7578,-4.7617,-4.8047,-4.8476,-4.8867,-4.8867,-4.8867,-4.8867,-0.494,-0.5518,-0.5757,-0.6295,-0.7914,-0.9911,-1.1765,-1.3735,-1.5506,-1.6936,-1.7112,-1.7112,-1.7112,-1.7112,-1.7112,-1.7112,-1.7283,-1.7404,-1.7445,-1.7778,-1.8022,-1.8111,-1.8152,-1.8111,-1.7981,-1.8103,-1.8913,-2.0381,-2.0936,-2.2218,-2.4226,-2.5138,-2.6592,-2.8591,-2.895,-3.0575,-3.2925,-3.3264,-3.3785,-3.4314,-3.4482,-3.435,-3.4128,-3.4048,-3.4439,-3.5177,-3.6302,-3.7487,-3.8837,-3.9689,-4.0554,-4.106,-4.106,-4.106,-4.106,-4.106,-4.106,-4.106,-4.106,-4.106,-4.106,-4.106,-4.106,-4.106,-4.106,-4.106,-4.106,-4.106,-4.106,-4.106,-4.106,-4.1229,-4.1621,-4.248,0.0,0.0,0.0,-4.3066,-4.2715,-4.2715,-4.2715,-4.2715,-4.2715,-4.2715,-4.2715,-4.2715,-4.3027,-4.3223,-4.3223,-4.3633,-4.4082,-4.4531,-4.4551,-4.4648,-4.4883,-4.5312,-4.541,-4.5176,-4.584,-4.6094,-4.5996,-4.709,-4.7637,-4.7734,-4.7969,-4.7871,-4.7558,-4.7363,-4.7402,-4.7617,-4.793,-4.8379,-4.8867,-4.8867,-4.8867,-4.8867,-0.5446,-0.5638,-0.6189,-0.8021,-0.9992,-1.1771,-1.3729,-1.569,-1.6928,-1.7112,-1.7112,-1.7112,-1.7112,-1.7112,-1.7112,-1.7112,-1.7283,-1.7453,-1.7607,-1.7957,-1.8095,-1.794,-1.8087,-1.8168,-1.8152,-1.8168,-1.8363,-1.8354,-2.0196,-2.076,-2.0223,-2.386,-2.5138,-2.4602,-2.6423,-2.8578,-3.0917,-3.1259,-3.2515,-3.4314,-3.4482,-3.4493,-3.443,-3.4128,-3.4935,-3.6368,-3.742,-3.8507,-3.9689,-4.0723,-4.106,-4.106,-4.106,-4.106,-4.106,-4.106,-4.106,-4.106,-4.106,-4.106,-4.106,-4.106,-4.106,-4.106,-4.106,-4.106,-4.106,-4.106,-4.106,-4.106,-4.106,-4.1378,-4.2125,-4.3424,0.0,0.0,-4.4596,-4.4141,-4.3613,-4.3613,-4.3613,-4.3613,-4.3613,-4.3613,-4.3613,-4.3613,-4.3633,-4.3652,-4.3652,-4.4101,-4.4551,-4.4961,-4.498,-4.4805,-4.4453,-4.4863,-4.5254,-4.5625,-4.5683,-4.6113,-4.6855,-4.7344,-4.7793,-4.8144,-4.7773,-4.7617,-4.7519,-4.6719,-4.6855,-4.7578,-4.7617,-4.8125,-4.8867,-4.8867,-4.8867,-4.8867,-0.547,-0.5681,-0.6246,-0.8226,-1.0184,-1.2137,-1.4088,-1.5866,-1.7112,-1.7112,-1.7112,-1.7112,-1.7112,-1.7112,-1.7161,-1.7274,-1.7445,-1.7624,-1.7802,-1.8038,-1.8192,-1.8249,-1.82,-1.8176,-1.8176,-1.8176,-1.8176,-1.8176,-1.9285,-1.9666,-1.9674,-2.15,-2.2964,-2.4247,-2.5525,-2.7328,-2.9654,-3.0369,-3.1525,-3.3132,-3.2953,-3.3504,-3.4207,-3.4287,-3.5128,-3.6605,-3.7691,-3.8715,-3.9858,-4.0723,-4.106,-4.106,-4.106,-4.106,-4.106,-4.106,-4.106,-4.106,-4.106,-4.106,-4.106,-4.106,-4.106,-4.106,-4.106,-4.106,-4.106,-4.106,-4.106,-4.106,-4.106,-4.1378,-4.1975,-4.2818,0.0,-4.335,-4.416,-4.3926,-4.3711,-4.3711,-4.3711,-4.3711,-4.3711,-4.3711,-4.3711,-4.3711,-4.3711,-4.3828,-4.4121,-4.4551,-4.4746,-4.4629,-4.4883,-4.4961,-4.4785,-4.5215,-4.5508,-4.5683,-4.5937,-4.6367,-4.6953,-4.7383,-4.7656,-4.7812,-4.7656,-4.7422,-4.7129,-4.6543,-4.6816,-4.7578,-4.7578,-4.8105,-4.8867,-4.8867,-4.8867,-4.8867,-0.5501,-0.6243,-0.7167,-0.9121,-1.1072,-1.2857,-1.4687,-1.6256,-1.7128,-1.7009,-1.6969,-1.7112,-1.7112,-1.7112,-1.7185,-1.7372,-1.8074,-1.8612,-1.8809,-1.8988,-1.8972,-1.8363,-1.8241,-1.8176,-1.8176,-1.8176,-1.8363,-1.8363,-1.8744,-1.9302,-1.986,-2.0223,-2.1325,-2.3158,-2.4247,-2.5843,-2.8092,-2.8981,-3.0427,-3.2274,-3.2035,-3.2861,-3.4191,-3.4767,-3.5815,-3.7129,-3.8408,-3.9348,-4.0198,-4.0892,-4.106,-4.106,-4.106,-4.106,-4.106,-4.106,-4.106,-4.106,-4.106,-4.106,-4.106,-4.106,-4.106,-4.106,-4.106,-4.106,-4.106,-4.106,-4.106,-4.106,-4.106,-4.1546,-4.2049,-4.2402,-4.2902,-4.338,-4.3711,-4.3711,-4.3711,-4.3711,-4.3711,-4.3711,-4.3711,-4.3711,-4.3711,-4.3711,-4.3711,-4.3965,-4.457,-4.4746,-4.4824,-4.4805,-4.5078,-4.5234,-4.5234,-4.5527,-4.5742,-4.5879,-4.6172,-4.6601,-4.7148,-4.7441,-4.7656,-4.7773,-4.7637,-4.7324,-4.6894,-4.6484,-4.6719,-4.7383,-4.7519,-4.8027,-4.8672,-4.8808,-4.8867,-4.8867,-0.5741,-0.7342,-0.9121,-1.1072,-1.3022,-1.485,-1.6278,-1.6872,-1.7001,-1.6643,-1.6864,-1.7112,-1.7112,-1.7112,-1.7185,-1.7372,-1.9321,-2.0592,-2.0781,-2.0998,-2.0196,-1.8363,-1.8176,-1.8176,-1.8176,-1.8176,-1.8363,-1.893,-1.893,-1.9488,-2.0408,-2.0408,-2.0603,-2.1168,-2.2258,-2.3753,-2.5854,-2.6937,-2.9072,-3.1945,-3.1945,-3.2999,-3.4678,-3.5521,-3.6828,-3.8494,-3.9348,-4.0367,-4.106,-4.106,-4.106,-4.106,-4.106,-4.106,-4.106,-4.106,-4.106,-4.106,-4.106,-4.106,-4.106,-4.106,-4.106,-4.106,-4.106,-4.106,-4.106,-4.106,-4.106,-4.106,-4.106,-4.1733,-4.2402,-4.2402,-4.3048,-4.3711,-4.3711,-4.3711,-4.3711,-4.3711,-4.3711,-4.3711,-4.3711,-4.3711,-4.3711,-4.3711,-4.3711,-4.4101,-4.498,-4.4629,-4.4805,-4.5644,-4.5683,-4.5683,-4.5683,-4.5683,-4.5898,-4.6308,-4.6308,-4.6758,-4.7578,-4.7578,-4.7812,-4.8183,-4.7754,-4.7324,-4.6894,-4.6465,-4.6543,-4.6973,-4.7402,-4.7832,-4.8262,-4.8691,-4.8867,-4.8867,-0.5741,-0.7342,-0.9121,-1.0717,-1.2491,-1.4319,-1.5921,-1.627,-1.6293,-1.628,-1.651,-1.6766,-1.6766,-1.7121,-1.7372,-1.7551,-1.8266,-1.9358,-2.0824,-2.1083,-2.0751,-2.0196,-1.8913,-1.8176,-1.8176,-1.8176,-1.8363,-1.893,-1.9302,-1.9851,-2.0408,-2.0788,-2.0983,-2.1353,-2.2995,-2.3946,-2.443,-2.5867,-2.8043,-3.041,-2.9171,-3.1087,-3.4493,-3.4477,-3.6116,-3.8494,-3.9348,-4.0367,-4.106,-4.106,-4.106,-4.106,-4.106,-4.106,-4.106,-4.106,-4.106,-4.106,-4.106,-4.106,-4.106,-4.106,-4.106,-4.106,-4.106,-4.106,-4.106,-4.106,-4.106,-4.1229,-4.1546,-4.2049,-4.2569,-4.2902,-4.338,-4.3711,-4.3711,-4.3711,-4.3711,-4.3711,-4.3711,-4.3711,-4.3711,-4.3711,-4.3711,-4.3711,-4.4277,-4.4609,-4.459,-4.5039,-4.541,-4.5664,-4.5683,-4.582,-4.6113,-4.6113,-4.6172,-4.6308,-4.6308,-4.6758,-4.7578,-4.7578,-4.7656,-4.7754,-4.7637,-4.7168,-4.6484,-4.6348,-4.6543,-4.6973,-4.7402,-4.7832,-4.8262,-4.8691,-4.8867,-4.8867,-0.663,-0.8409,-1.0184,-1.1605,-1.3426,-1.4949,-1.5665,-1.5867,-1.5904,-1.5818,-1.6055,-1.6487,-1.6666,-1.6845,-1.7306,-1.7729,-1.9367,-2.1172,-2.2943,-2.3321,-2.276,-2.1121,-2.001,-1.9099,-1.8549,-1.8549,-1.8735,-1.948,-1.9851,-2.0232,-2.0788,-2.0983,-2.1353,-2.1889,-2.3268,-2.3998,-2.4297,-2.5466,-2.7452,-2.9733,-2.8819,-3.1116,-3.5032,-3.5297,-3.6911,-3.9007,-3.9858,-4.0554,-4.106,-4.106,-4.106,-4.106,-4.106,-4.106,-4.106,-4.106,-4.106,-4.106,-4.106,-4.106,-4.106,-4.106,-4.106,-4.106,-4.106,-4.106,-4.106,-4.106,-4.106,-4.1229,-4.1695,-4.2049,-4.2569,-4.3068,-4.338,-4.3711,-4.3711,-4.3711,-4.3711,-4.3711,-4.3711,-4.3711,-4.3711,-4.3711,-4.3789,-4.3965,-4.4473,-4.4805,-4.4902,-4.5391,-4.5742,-4.5918,-4.5918,-4.6055,-4.6308,-4.6308,-4.6308,-4.6308,-4.6465,-4.6914,-4.7578,-4.7578,-4.7578,-4.7578,-4.7402,-4.6933,-4.6308,-4.6308,-4.6445,-4.6738,-4.7344,-4.7734,-4.8027,-4.8633,-4.8867,-4.8867,-0.823,-1.0184,-1.1782,-1.3205,-1.5276,-1.6339,-1.5426,-1.5629,-1.5811,-1.5469,-1.5701,-1.6137,-1.6689,-1.6689,-1.7002,-1.7892,-2.1549,-2.4419,-2.6265,-2.6435,-2.4956,-2.1481,-2.1121,-2.039,-1.893,-1.893,-1.9302,-2.0408,-2.0408,-2.0603,-2.1168,-2.1168,-2.1714,-2.2606,-2.3294,-2.414,-2.4783,-2.5592,-2.7196,-2.9314,-2.962,-3.2139,-3.5889,-3.7099,-3.832,-3.9858,-4.0723,-4.106,-4.106,-4.106,-4.106,-4.106,-4.106,-4.106,-4.106,-4.106,-4.106,-4.106,-4.106,-4.106,-4.106,-4.106,-4.106,-4.106,-4.106,-4.106,-4.106,-4.106,-4.106,-4.1229,-4.1714,-4.2049,-4.2569,-4.3068,-4.338,-4.3711,-4.3711,-4.3711,-4.3711,-4.3711,-4.3711,-4.3711,-4.3711,-4.3711,-4.3887,-4.4355,-4.4433,-4.4805,-4.5625,-4.5703,-4.5918,-4.6289,-4.6308,-4.6308,-4.6308,-4.6308,-4.6308,-4.6308,-4.6738,-4.7168,-4.7578,-4.7578,-4.7578,-4.7558,-4.7109,-4.6699,-4.6308,-4.6308,-4.6308,-4.6387,-4.7246,-4.7578,-4.7695,-4.8535,-4.8867,-4.8867,-0.823,-1.0184,-1.1782,-1.2857,-1.4659,-1.5631,-1.4896,-1.4744,-1.4785,-1.4908,-1.5514,-1.6003,-1.631,-1.7041,-1.7491,-1.79,-2.0271,-2.2954,-2.6083,-2.3871,-2.277,-2.3321,-2.076,-1.948,-1.9488,-1.9116,-1.9302,-2.0408,-2.0408,-2.0603,-2.1168,-2.1168,-2.1714,-2.2606,-2.3294,-2.414,-2.4783,-2.5592,-2.6523,-2.7799,-2.7431,-3.0097,-3.4324,-3.4997,-3.7079,-3.9858,-4.0723,-4.106,-4.106,-4.106,-4.106,-4.106,-4.106,-4.106,-4.106,-4.106,-4.106,-4.106,-4.106,-4.106,-4.106,-4.106,-4.106,-4.106,-4.106,-4.106,-4.106,-4.106,-4.106,-4.1397,-4.2068,-4.2402,-4.2735,-4.338,-4.3711,-4.3711,-4.3711,-4.3711,-4.3711,-4.3711,-4.3711,-4.3711,-4.3711,-4.3711,-4.3887,-4.4355,-4.4707,-4.5117,-4.5644,-4.5996,-4.6211,-4.6289,-4.6308,-4.6308,-4.6308,-4.6308,-4.6308,-4.6308,-4.6738,-4.7168,-4.7578,-4.7578,-4.7578,-4.7558,-4.7109,-4.6699,-4.6308,-4.6308,-4.6308,-4.6387,-4.7246,-4.7578,-4.7695,-4.8535,-4.8867,-4.8906,-0.9295,-1.054,-1.1782,-1.3925,-1.4878,-1.5319,-1.4682,-1.457,-1.4624,-1.4631,-1.4986,-1.5557,-1.6181,-1.6811,-1.766,-1.8945,-2.0141,-2.184,-2.4613,-2.3321,-2.2586,-2.2586,-2.1121,-2.0214,-1.9674,-1.9674,-2.0037,-2.0788,-2.0788,-2.0973,-2.1168,-2.1607,-2.2099,-2.3175,-2.3738,-2.4572,-2.5302,-2.5574,-2.6897,-2.8964,-2.9091,-3.1904,-3.6208,-3.6741,-3.8271,-4.0367,-4.0892,-4.106,-4.106,-4.106,-4.106,-4.106,-4.106,-4.106,-4.106,-4.106,-4.106,-4.106,-4.106,-4.106,-4.106,-4.106,-4.106,-4.106,-4.106,-4.106,-4.106,-4.106,-4.106,-4.1397,-4.2235,-4.2402,-4.2735,-4.3546,-4.3711,-4.3711,-4.3711,-4.3711,-4.3711,-4.3711,-4.3711,-4.3711,-4.3711,-4.3906,-4.4219,-4.4668,-4.5098,-4.5527,-4.5957,-4.6191,-4.6308,-4.6308,-4.6308,-4.6308,-4.6308,-4.6308,-4.6406,-4.6601,-4.7031,-4.7363,-4.7578,-4.7578,-4.7578,-4.7539,-4.6914,-4.6504,-4.6308,-4.6308,-4.6308,-4.6387,-4.7246,-4.7695,-4.7949,-4.8613,-4.8867,-4.8887,-1.0717,-1.125,-1.2137,-1.5168,-1.5483,-1.5047,-1.4482,-1.4604,-1.4645,-1.4496,-1.4785,-1.5251,-1.6189,-1.6551,-1.7829,-2.0205,-2.0196,-2.0917,-2.3137,-2.3137,-2.2402,-2.1111,-2.1306,-2.0945,-1.9674,-2.0223,-2.0788,-2.1168,-2.1168,-2.1149,-2.1111,-2.1837,-2.2806,-2.4015,-2.4283,-2.5125,-2.6154,-2.5542,-2.7096,-2.9969,-3.1106,-3.4092,-3.7927,-3.9049,-4.0198,-4.106,-4.106,-4.106,-4.106,-4.106,-4.106,-4.106,-4.106,-4.106,-4.106,-4.106,-4.106,-4.106,-4.106,-4.106,-4.106,-4.106,-4.106,-4.106,-4.106,-4.106,-4.106,-4.106,-4.106,-4.1397,-4.2235,-4.2402,-4.2735,-4.3546,-4.3711,-4.3711,-4.3711,-4.3711,-4.3711,-4.3711,-4.3711,-4.3711,-4.3711,-4.4121,-4.457,-4.5,-4.543,-4.5859,-4.6289,-4.6308,-4.6308,-4.6308,-4.6308,-4.6308,-4.6308,-4.6308,-4.6504,-4.6933,-4.7383,-4.7617,-4.7676,-4.7617,-4.7578,-4.7539,-4.668,-4.6308,-4.6308,-4.6308,-4.6308,-4.6387,-4.7168,-4.7773,-4.8281,-4.8789,-4.8965,-4.8965,-1.0895,-1.2314,-1.3735,-1.5352,-1.5483,-1.5012,-1.4346,-1.4448,-1.4489,-1.4346,-1.5163,-1.5852,-1.6174,-1.7203,-1.871,-2.0214,-1.9285,-1.9825,-2.3137,-2.0566,-1.9648,-2.1121,-2.0399,-1.9851,-1.9674,-2.0603,-2.1168,-2.1168,-2.1168,-2.1074,-2.0885,-2.1758,-2.3253,-2.516,-2.4543,-2.5634,-2.7509,-2.6056,-2.5933,-2.6978,-2.9583,-3.2208,-3.4831,-3.747,-3.9501,-4.106,-4.106,-4.106,-4.106,-4.106,-4.106,-4.106,-4.106,-4.106,-4.106,-4.106,-4.106,-4.106,-4.106,-4.106,-4.106,-4.106,-4.106,-4.106,-4.106,-4.106,-4.106,-4.106,-4.106,-4.1397,-4.2235,-4.2402,-4.2735,-4.3546,-4.3711,-4.3711,-4.3711,-4.3711,-4.3711,-4.3711,-4.3711,-4.3711,-4.3711,-4.4121,-4.457,-4.5,-4.543,-4.5859,-4.6289,-4.6308,-4.6308,-4.6308,-4.6308,-4.6308,-4.6308,-4.6308,-4.6504,-4.6933,-4.7383,-4.7773,-4.8105,-4.7754,-4.7578,-4.7539,-4.668,-4.6308,-4.6308,-4.6308,-4.6308,-4.6348,-4.6836,-4.75,-4.8301,-4.9141,-4.9433,-4.9433,-1.2491,-1.3205,-1.3742,-1.5352,-1.5063,-1.4551,-1.4312,-1.4353,-1.4401,-1.4414,-1.5262,-1.5963,-1.6316,-1.7281,-1.8176,-1.9108,-1.8363,-1.8541,-2.0381,-1.9099,-1.8735,-1.9843,-1.9851,-1.9851,-2.0037,-2.0788,-2.1168,-2.1168,-2.1168,-2.1239,-2.1556,-2.2342,-2.393,-2.5953,-2.6032,-2.7106,-2.8791,-2.8487,-2.8696,-2.9564,-3.2677,-3.4694,-3.6306,-3.8933,-4.0367,-4.106,-4.106,-4.106,-4.106,-4.106,-4.106,-4.106,-4.106,-4.106,-4.106,-4.106,-4.106,-4.106,-4.106,-4.106,-4.106,-4.106,-4.106,-4.106,-4.106,-4.106,-4.106,-4.106,-4.121,-4.1546,-4.2235,-4.2569,-4.3068,-4.3546,-4.3711,-4.3711,-4.3711,-4.3711,-4.3711,-4.3711,-4.3711,-4.3711,-4.3711,-4.4336,-4.4824,-4.5019,-4.5644,-4.6113,-4.6289,-4.6308,-4.6308,-4.6308,-4.6308,-4.6308,-4.6308,-4.6543,-4.6875,-4.7305,-4.7734,-4.791,-4.7851,-4.7656,-4.7441,-4.7187,-4.6562,-4.6308,-4.6308,-4.6308,-4.6308,-4.6348,-4.6758,-4.7441,-4.834,-4.9473,-4.957,-4.9365]},{"header":{"parameterUnit":"m.s-1","parameterCategory":1,"la1":30.6,"la2":28.766,"lo1":-90.7593,"lo2":-88.6598,"dx":0.0162,"dy":0.0183,"nx":116,"ny":114,"refTime":"2023-01-14T06:00:00:Z","depth":0,"parameterNumber":3,"parameterNumberName":"V-component_of_WINDS"},"data":[0.0,0.0,0.0,0.0,0.0,0.0,0.0,0.0,0.0,0.0,0.0,0.0,0.0,0.0,0.0,0.0,0.0,0.0,0.0,0.0,0.0,0.0,0.0,0.0,0.0,0.0,0.0,0.0,0.0,0.0,0.0,0.0,0.0,0.0,0.0,0.0,0.0,0.0,0.0,0.0,0.0,0.0,0.0,0.0,0.0,0.0,0.0,0.0,0.0,0.0,0.0,0.0,0.0,0.0,0.0,0.0,0.0,0.0,0.0,0.0,0.0,0.0,0.0,0.0,0.0,0.0,0.0,0.0,0.0,0.0,0.0,0.0,0.0,0.0,0.0,0.0,0.0,0.0,0.0,0.0,0.0,0.0,0.0,0.0,0.0,0.0,0.0,0.0,0.0,0.0,0.0,0.0,0.0,0.0,0.0,0.0,0.0,0.0,0.0,0.0,0.0,0.0,0.0,0.0,0.0,0.0,0.0,0.0,0.0,0.0,0.0,0.0,0.0,0.0,0.0,0.0,0.0,0.0,0.0,0.0,0.0,0.0,0.0,0.0,0.0,0.0,0.0,0.0,0.0,0.0,0.0,0.0,0.0,0.0,0.0,0.0,0.0,0.0,0.0,0.0,0.0,0.0,0.0,0.0,0.0,0.0,0.0,0.0,0.0,0.0,0.0,0.0,0.0,0.0,0.0,0.0,0.0,0.0,0.0,0.0,0.0,0.0,0.0,0.0,0.0,0.0,0.0,0.0,0.0,0.0,0.0,0.0,0.0,0.0,0.0,0.0,0.0,0.0,0.0,0.0,0.0,0.0,0.0,0.0,0.0,0.0,0.0,0.0,0.0,0.0,0.0,0.0,0.0,0.0,0.0,0.0,0.0,0.0,0.0,0.0,0.0,0.0,0.0,0.0,0.0,0.0,0.0,0.0,0.0,0.0,0.0,0.0,0.0,0.0,0.0,0.0,0.0,0.0,0.0,0.0,0.0,0.0,0.0,0.0,0.0,0.0,0.0,0.0,0.0,0.0,0.0,0.0,0.0,0.0,0.0,0.0,0.0,0.0,0.0,0.0,0.0,0.0,0.0,0.0,0.0,0.0,0.0,0.0,0.0,0.0,0.0,0.0,0.0,0.0,0.0,0.0,0.0,0.0,0.0,0.0,0.0,0.0,0.0,0.0,0.0,0.0,0.0,0.0,0.0,0.0,0.0,0.0,0.0,0.0,0.0,0.0,0.0,0.0,0.0,0.0,0.0,0.0,0.0,0.0,0.0,0.0,0.0,0.0,0.0,0.0,0.0,0.0,0.0,0.0,0.0,0.0,0.0,0.0,0.0,0.0,0.0,0.0,0.0,0.0,0.0,0.0,0.0,0.0,0.0,0.0,0.0,0.0,0.0,0.0,0.0,0.0,0.0,0.0,0.0,0.0,0.0,0.0,0.0,0.0,0.0,0.0,0.0,0.0,0.0,0.0,0.0,0.0,0.0,0.0,0.0,0.0,0.0,0.0,0.0,0.0,0.0,0.0,0.0,0.0,0.0,0.0,0.0,0.0,0.0,0.0,0.0,0.0,0.0,0.0,0.0,0.0,0.0,0.0,0.0,0.0,0.0,0.0,0.0,0.0,0.0,0.0,0.0,0.0,0.0,0.0,0.0,0.0,0.0,0.0,0.0,0.0,0.0,0.0,0.0,0.0,0.0,0.0,0.0,0.0,0.0,0.0,0.0,0.0,0.0,0.0,0.0,0.0,0.0,0.0,0.0,0.0,0.0,0.0,0.0,0.0,0.0,0.0,0.0,0.0,0.0,0.0,0.0,0.0,0.0,0.0,0.0,0.0,0.0,0.0,0.0,0.0,0.0,0.0,0.0,0.0,0.0,0.0,0.0,0.0,0.0,0.0,0.0,0.0,0.0,0.0,0.0,0.0,0.0,0.0,0.0,0.0,0.0,0.0,0.0,0.0,0.0,0.0,0.0,0.0,0.0,0.0,0.0,0.0,0.0,0.0,0.0,0.0,0.0,0.0,0.0,0.0,0.0,0.0,0.0,0.0,0.0,0.0,0.0,0.0,0.0,0.0,0.0,0.0,0.0,0.0,0.0,0.0,0.0,0.0,0.0,0.0,0.0,0.0,0.0,0.0,0.0,0.0,0.0,0.0,0.0,0.0,0.0,0.0,0.0,0.0,0.0,0.0,0.0,0.0,0.0,0.0,0.0,0.0,0.0,0.0,0.0,0.0,0.0,0.0,0.0,0.0,0.0,0.0,0.0,0.0,0.0,0.0,0.0,0.0,0.0,0.0,0.0,0.0,0.0,0.0,0.0,0.0,0.0,0.0,0.0,0.0,0.0,0.0,0.0,0.0,0.0,0.0,0.0,0.0,0.0,0.0,0.0,0.0,0.0,0.0,0.0,0.0,0.0,0.0,0.0,0.0,0.0,0.0,0.0,0.0,0.0,0.0,0.0,0.0,0.0,0.0,0.0,0.0,0.0,0.0,0.0,0.0,0.0,0.0,0.0,0.0,0.0,0.0,0.0,0.0,0.0,0.0,0.0,0.0,0.0,0.0,0.0,0.0,0.0,0.0,0.0,0.0,0.0,0.0,0.0,0.0,0.0,0.0,0.0,0.0,0.0,0.0,0.0,0.0,0.0,0.0,0.0,0.0,0.0,0.0,0.0,0.0,0.0,0.0,0.0,0.0,0.0,0.0,0.0,0.0,0.0,0.0,0.0,0.0,0.0,0.0,0.0,0.0,0.0,0.0,0.0,0.0,0.0,0.0,0.0,0.0,0.0,0.0,0.0,0.0,0.0,0.0,0.0,0.0,0.0,0.0,0.0,0.0,0.0,0.0,0.0,0.0,0.0,0.0,0.0,0.0,0.0,0.0,0.0,0.0,0.0,0.0,0.0,0.0,0.0,0.0,0.0,0.0,0.0,0.0,0.0,0.0,0.0,0.0,0.0,0.0,0.0,0.0,0.0,0.0,0.0,0.0,0.0,0.0,0.0,0.0,0.0,0.0,0.0,0.0,0.0,0.0,0.0,0.0,0.0,0.0,0.0,0.0,0.0,0.0,0.0,0.0,0.0,0.0,0.0,0.0,0.0,0.0,0.0,0.0,0.0,0.0,0.0,0.0,0.0,0.0,0.0,0.0,0.0,0.0,0.0,0.0,0.0,0.0,0.0,0.0,0.0,0.0,0.0,0.0,0.0,0.0,0.0,0.0,0.0,0.0,0.0,0.0,0.0,0.0,0.0,0.0,0.0,0.0,0.0,0.0,0.0,0.0,0.0,0.0,0.0,0.0,0.0,0.0,0.0,0.0,0.0,0.0,0.0,0.0,0.0,0.0,0.0,0.0,0.0,0.0,0.0,0.0,0.0,0.0,0.0,0.0,0.0,0.0,0.0,0.0,0.0,0.0,0.0,0.0,0.0,0.0,0.0,0.0,0.0,0.0,0.0,0.0,0.0,0.0,0.0,0.0,0.0,0.0,0.0,0.0,0.0,0.0,0.0,0.0,0.0,0.0,0.0,0.0,0.0,0.0,0.0,0.0,0.0,0.0,0.0,0.0,0.0,0.0,0.0,0.0,0.0,0.0,0.0,0.0,0.0,0.0,0.0,0.0,0.0,0.0,0.0,0.0,0.0,0.0,0.0,0.0,0.0,0.0,0.0,0.0,0.0,0.0,0.0,0.0,0.0,0.0,0.0,0.0,0.0,0.0,0.0,0.0,0.0,0.0,0.0,0.0,0.0,0.0,0.0,0.0,0.0,0.0,0.0,0.0,0.0,0.0,0.0,0.0,0.0,0.0,0.0,0.0,0.0,0.0,0.0,0.0,0.0,0.0,0.0,0.0,0.0,0.0,0.0,0.0,0.0,0.0,0.0,0.0,0.0,0.0,0.0,0.0,0.0,0.0,0.0,0.0,0.0,0.0,0.0,0.0,0.0,0.0,0.0,0.0,0.0,0.0,0.0,0.0,0.0,0.0,0.0,0.0,0.0,0.0,0.0,0.0,0.0,0.0,0.0,0.0,0.0,0.0,0.0,0.0,0.0,0.0,0.0,0.0,0.0,0.0,0.0,0.0,0.0,0.0,0.0,0.0,0.0,0.0,0.0,0.0,0.0,0.0,0.0,0.0,0.0,0.0,0.0,0.0,0.0,0.0,0.0,0.0,0.0,0.0,0.0,0.0,0.0,0.0,0.0,0.0,0.0,0.0,0.0,0.0,0.0,0.0,0.0,0.0,0.0,0.0,0.0,0.0,0.0,0.0,0.0,0.0,0.0,0.0,0.0,0.0,0.0,0.0,0.0,0.0,0.0,0.0,0.0,0.0,0.0,0.0,0.0,0.0,0.0,0.0,0.0,0.0,0.0,0.0,0.0,0.0,0.0,0.0,0.0,0.0,0.0,0.0,0.0,0.0,0.0,0.0,0.0,0.0,0.0,0.0,0.0,0.0,0.0,0.0,0.0,0.0,0.0,0.0,0.0,0.0,0.0,0.0,0.0,0.0,0.0,0.0,0.0,0.0,0.0,0.0,0.0,0.0,0.0,0.0,0.0,0.0,0.0,0.0,0.0,0.0,0.0,0.0,0.0,0.0,0.0,0.0,0.0,0.0,0.0,0.0,0.0,0.0,0.0,0.0,0.0,0.0,0.0,0.0,0.0,0.0,0.0,0.0,0.0,0.0,0.0,0.0,0.0,0.0,0.0,0.0,0.0,0.0,0.0,0.0,0.0,0.0,0.0,0.0,0.0,0.0,0.0,0.0,0.0,0.0,0.0,0.0,0.0,0.0,0.0,0.0,0.0,0.0,0.0,0.0,0.0,0.0,0.0,0.0,0.0,0.0,0.0,0.0,0.0,0.0,0.0,0.0,0.0,0.0,0.0,0.0,0.0,0.0,0.0,0.0,0.0,0.0,0.0,0.0,0.0,0.0,0.0,0.0,0.0,0.0,0.0,0.0,0.0,0.0,0.0,0.0,0.0,0.0,0.0,0.0,0.0,0.0,0.0,0.0,0.0,0.0,0.0,0.0,0.0,0.0,0.0,0.0,0.0,0.0,0.0,0.0,0.0,0.0,0.0,0.0,0.0,0.0,0.0,0.0,0.0,0.0,0.0,0.0,0.0,0.0,0.0,0.0,0.0,0.0,0.0,0.0,0.0,0.0,0.0,0.0,0.0,0.0,0.0,0.0,0.0,0.0,0.0,0.0,0.0,0.0,0.0,0.0,0.0,0.0,0.0,0.0,0.0,0.0,0.0,0.0,0.0,0.0,0.0,0.0,0.0,0.0,0.0,0.0,0.0,0.0,0.0,0.0,0.0,0.0,0.0,0.0,0.0,0.0,0.0,0.0,0.0,0.0,0.0,0.0,0.0,0.0,0.0,0.0,0.0,0.0,0.0,0.0,0.0,0.0,0.0,0.0,0.0,0.0,0.0,0.0,0.0,0.0,0.0,0.0,0.0,0.0,0.0,0.0,0.0,0.0,0.0,0.0,0.0,0.0,0.0,0.0,0.0,0.0,0.0,0.0,0.0,0.0,0.0,0.0,0.0,0.0,0.0,0.0,0.0,0.0,0.0,0.0,0.0,0.0,0.0,0.0,0.0,0.0,0.0,0.0,0.0,0.0,0.0,0.0,0.0,0.0,0.0,0.0,0.0,0.0,0.0,0.0,0.0,0.0,0.0,0.0,0.0,0.0,0.0,0.0,0.0,0.0,0.0,0.0,0.0,0.0,0.0,0.0,0.0,0.0,0.0,0.0,0.0,0.0,0.0,0.0,0.0,0.0,0.0,0.0,0.0,0.0,0.0,0.0,0.0,0.0,0.0,0.0,0.0,0.0,0.0,0.0,0.0,0.0,0.0,0.0,0.0,0.0,0.0,0.0,0.0,0.0,0.0,0.0,0.0,0.0,0.0,0.0,0.0,0.0,0.0,0.0,0.0,0.0,0.0,0.0,0.0,0.0,0.0,0.0,0.0,0.0,0.0,0.0,0.0,0.0,0.0,0.0,0.0,0.0,0.0,0.0,0.0,0.0,0.0,0.0,0.0,0.0,0.0,0.0,0.0,0.0,0.0,0.0,0.0,0.0,0.0,0.0,0.0,0.0,0.0,0.0,0.0,0.0,0.0,0.0,-4.9383,0.0,0.0,0.0,0.0,0.0,0.0,0.0,0.0,0.0,0.0,0.0,0.0,0.0,0.0,0.0,0.0,0.0,0.0,0.0,0.0,0.0,0.0,0.0,0.0,0.0,0.0,0.0,0.0,0.0,0.0,0.0,0.0,0.0,0.0,0.0,0.0,0.0,0.0,0.0,-2.9194,-3.094,-3.2164,-3.0715,-2.9997,-2.9899,0.0,0.0,0.0,0.0,0.0,0.0,0.0,0.0,0.0,0.0,0.0,0.0,0.0,0.0,0.0,0.0,0.0,0.0,0.0,0.0,0.0,0.0,0.0,0.0,0.0,0.0,0.0,0.0,0.0,0.0,0.0,0.0,0.0,0.0,0.0,0.0,0.0,0.0,0.0,0.0,0.0,0.0,0.0,0.0,0.0,0.0,0.0,0.0,0.0,0.0,0.0,0.0,0.0,0.0,0.0,0.0,0.0,0.0,0.0,0.0,0.0,0.0,0.0,0.0,0.0,0.0,0.0,0.0,0.0,0.0,0.0,-4.9936,0.0,0.0,0.0,0.0,0.0,0.0,0.0,0.0,0.0,0.0,0.0,0.0,0.0,0.0,0.0,0.0,0.0,0.0,0.0,0.0,0.0,0.0,0.0,0.0,0.0,0.0,0.0,0.0,0.0,0.0,0.0,0.0,0.0,0.0,0.0,0.0,0.0,0.0,-3.1863,-3.4073,-3.5476,-3.4997,-3.4685,-3.4517,-3.315,0.0,0.0,0.0,0.0,0.0,0.0,0.0,0.0,0.0,0.0,0.0,0.0,0.0,0.0,0.0,0.0,0.0,0.0,0.0,0.0,0.0,0.0,0.0,0.0,0.0,0.0,0.0,0.0,0.0,0.0,0.0,0.0,0.0,0.0,0.0,0.0,0.0,0.0,0.0,0.0,0.0,0.0,0.0,0.0,0.0,0.0,0.0,0.0,0.0,0.0,0.0,0.0,0.0,0.0,0.0,0.0,0.0,0.0,0.0,0.0,0.0,0.0,0.0,0.0,-5.4373,-5.4988,-5.6154,-5.6996,-5.7417,-5.4438,-5.2657,-5.1879,0.0,0.0,0.0,0.0,0.0,0.0,0.0,0.0,0.0,0.0,0.0,0.0,0.0,0.0,0.0,0.0,0.0,0.0,0.0,0.0,0.0,0.0,0.0,0.0,0.0,0.0,0.0,0.0,0.0,0.0,0.0,0.0,0.0,0.0,-3.1417,-3.1843,-3.1843,-3.5297,-3.7394,-3.8205,-3.9537,-4.0116,-3.9821,-3.6731,-3.4883,-3.4132,0.0,0.0,0.0,0.0,0.0,0.0,0.0,0.0,0.0,0.0,0.0,0.0,0.0,0.0,0.0,0.0,0.0,0.0,0.0,0.0,0.0,0.0,0.0,0.0,0.0,0.0,0.0,0.0,0.0,0.0,0.0,0.0,0.0,0.0,0.0,0.0,0.0,0.0,0.0,0.0,0.0,-4.4668,-4.532,0.0,0.0,0.0,0.0,0.0,0.0,0.0,0.0,0.0,0.0,0.0,0.0,0.0,0.0,-5.2823,-5.4352,-5.5345,-5.588,-5.6608,-5.7061,-5.7158,-5.7352,-5.7482,-5.7547,-5.7061,0.0,-5.4891,-5.5031,0.0,0.0,0.0,0.0,0.0,0.0,0.0,0.0,0.0,0.0,0.0,0.0,0.0,0.0,0.0,0.0,0.0,0.0,0.0,0.0,0.0,0.0,0.0,0.0,0.0,0.0,0.0,0.0,0.0,0.0,0.0,0.0,0.0,-3.3933,-3.5285,-3.6764,-3.8289,-3.9395,-4.021,-4.0393,-4.0442,-4.0314,-3.9346,-3.8109,-3.6769,-3.6592,0.0,0.0,0.0,0.0,0.0,0.0,0.0,0.0,0.0,0.0,0.0,0.0,0.0,0.0,0.0,0.0,0.0,0.0,0.0,0.0,0.0,0.0,0.0,0.0,0.0,0.0,0.0,0.0,0.0,0.0,0.0,0.0,0.0,0.0,0.0,0.0,0.0,0.0,0.0,-4.3253,-4.4474,-4.5768,-4.6306,-4.6791,0.0,0.0,0.0,0.0,0.0,0.0,0.0,0.0,0.0,-5.4684,-5.5183,-5.5784,-5.6428,-5.6809,-5.7102,-5.7261,-5.7923,-5.8162,-5.8194,-5.8583,-5.8777,-5.8777,-5.8777,-5.8421,-5.7806,-5.7151,-5.6456,-5.5834,0.0,0.0,0.0,0.0,0.0,-5.3866,0.0,0.0,0.0,0.0,0.0,0.0,0.0,0.0,0.0,0.0,0.0,0.0,0.0,0.0,0.0,-2.9994,0.0,0.0,0.0,0.0,0.0,0.0,0.0,0.0,0.0,0.0,-3.7926,-3.9888,-4.0215,-4.0842,-4.1639,-4.1092,-4.0972,-4.12,-4.1882,-4.1108,-3.9421,-3.9014,-3.7879,-3.6318,0.0,0.0,0.0,0.0,0.0,0.0,0.0,0.0,0.0,0.0,0.0,0.0,0.0,0.0,0.0,0.0,0.0,0.0,0.0,0.0,0.0,0.0,0.0,0.0,0.0,0.0,0.0,0.0,0.0,0.0,0.0,0.0,0.0,0.0,0.0,0.0,0.0,-4.4932,-4.5802,-4.7295,-4.8226,-4.8807,0.0,0.0,0.0,0.0,0.0,0.0,-5.4494,-5.5057,-5.5951,-5.721,-5.7734,-5.8312,-5.8758,-5.854,-5.8437,-5.8385,-5.8929,-5.9101,-5.8939,-5.9652,-5.9878,-5.9716,-5.9716,-5.9716,-5.9619,-5.8551,-5.8162,-5.8204,-5.8204,-5.7809,0.0,-5.7268,-5.6925,-5.6711,0.0,0.0,0.0,0.0,0.0,0.0,0.0,0.0,0.0,0.0,0.0,0.0,0.0,0.0,-3.188,-3.1854,-3.3417,-3.3981,0.0,0.0,0.0,0.0,0.0,0.0,0.0,0.0,0.0,-3.8994,-4.0672,-4.1799,-4.2375,-4.3133,-4.3929,-4.4649,-4.4687,-4.3777,-4.2162,-4.125,-4.1556,-4.237,-3.9608,0.0,0.0,0.0,0.0,0.0,0.0,0.0,0.0,0.0,0.0,0.0,0.0,0.0,0.0,0.0,0.0,0.0,0.0,0.0,0.0,0.0,0.0,0.0,0.0,0.0,0.0,0.0,0.0,0.0,0.0,0.0,0.0,0.0,0.0,0.0,0.0,0.0,0.0,-5.201,-5.2641,0.0,0.0,0.0,0.0,-5.5355,-5.6051,-5.6779,-5.7541,-5.7608,-5.7972,-5.8767,-5.9218,-5.9449,-5.9231,-5.9781,-5.9881,-5.9619,-6.0332,-6.0332,-5.9684,-6.0397,-6.0364,-5.9716,-5.9716,-5.9716,-5.9716,-5.9652,-5.9355,-5.894,-5.894,-5.8223,-5.7412,-5.9088,-5.8599,-5.7497,0.0,0.0,0.0,0.0,0.0,0.0,0.0,0.0,0.0,0.0,0.0,0.0,0.0,-3.2804,-3.4489,-3.438,-3.5981,-3.6608,-3.5626,0.0,0.0,0.0,0.0,0.0,0.0,0.0,-4.181,-4.2259,-4.3017,-4.335,-4.3246,-4.3118,-4.3133,-4.3284,-4.3284,-4.3284,-4.3208,-4.2858,-4.2599,-4.2291,-4.1166,-3.9941,0.0,0.0,0.0,0.0,0.0,0.0,0.0,0.0,0.0,0.0,0.0,0.0,0.0,0.0,0.0,0.0,0.0,0.0,0.0,0.0,0.0,0.0,0.0,0.0,0.0,0.0,0.0,0.0,0.0,0.0,0.0,0.0,0.0,0.0,0.0,0.0,0.0,-5.1836,-5.3243,0.0,-5.4539,-5.5339,-5.6216,-5.6978,-5.7707,-5.8436,-5.9164,-5.9231,-5.9448,-6.001,-6.0107,-5.9984,-5.9847,-5.9849,-6.0031,-6.0397,-6.0656,-6.0882,-6.1077,-6.1336,-6.1303,-6.1044,-6.1044,-6.1044,-6.1044,-6.1044,-6.0696,-6.0129,-6.0129,-5.9878,-5.9685,-6.0499,-6.075,-6.0811,0.0,0.0,0.0,0.0,0.0,0.0,0.0,0.0,0.0,0.0,0.0,-3.1562,-3.2414,-3.48,-3.645,-3.6617,-3.8002,-3.8433,-3.7444,0.0,0.0,0.0,-4.0689,0.0,0.0,-4.2479,-4.3041,-4.3747,-4.3838,-4.4001,-4.4174,-4.3672,-4.3665,-4.408,-4.408,-4.408,-4.4118,-4.4118,-4.368,-4.2963,-4.2769,-4.2089,-4.1151,0.0,0.0,0.0,0.0,0.0,0.0,0.0,0.0,0.0,0.0,0.0,0.0,0.0,0.0,0.0,0.0,0.0,0.0,0.0,0.0,0.0,0.0,0.0,0.0,0.0,0.0,0.0,0.0,0.0,0.0,0.0,0.0,0.0,0.0,0.0,-5.3099,-5.2842,-5.4586,-5.587,-5.5951,-5.7077,-5.8005,-5.8502,-5.9231,-5.986,-6.0357,-6.039,-6.0506,-6.0685,-6.0463,-6.0554,-6.0782,-6.0518,-6.0915,-6.1886,-6.2113,-6.234,-6.2566,-6.2566,-6.2404,-6.2145,-6.1919,-6.1821,-6.1821,-6.1821,-6.153,-6.1141,-6.0961,-6.087,-6.0961,-6.1699,-6.2015,-6.2273,0.0,0.0,0.0,0.0,0.0,0.0,0.0,0.0,0.0,0.0,-3.1637,-3.3125,-3.5703,-3.679,-3.7652,-3.8473,-3.9277,-3.9366,-3.8438,-3.9959,0.0,0.0,0.0,0.0,-4.2808,-4.2178,-4.2264,-4.3166,-4.3056,-4.379,-4.523,-4.5048,-4.5824,-4.734,-4.7378,-4.6506,-4.499,-4.499,-4.499,-4.4927,-4.4557,-4.4355,-4.4101,0.0,0.0,0.0,0.0,0.0,0.0,0.0,0.0,0.0,0.0,0.0,0.0,0.0,0.0,0.0,0.0,0.0,0.0,0.0,0.0,0.0,0.0,0.0,0.0,0.0,0.0,0.0,0.0,0.0,0.0,0.0,0.0,0.0,-5.1765,-5.2898,-5.4295,-5.5572,-5.6929,-5.8085,-5.888,-5.9595,-6.0026,-6.0026,-6.0688,-6.1119,-6.1119,-6.1119,-6.1035,-6.075,-6.0561,-6.1077,-6.2216,-6.1977,-6.2599,-6.4056,-6.4704,-6.4704,-6.4088,-6.4088,-6.3667,-6.2923,-6.2242,-6.1919,-6.1919,-6.1919,-6.1951,-6.186,-6.1335,-6.1148,-6.1302,-6.2684,-6.2507,-6.1789,0.0,0.0,0.0,0.0,0.0,0.0,0.0,0.0,0.0,0.0,-3.2141,-3.3781,-3.5781,-3.7343,-3.8547,-3.9303,-4.0167,-4.05,-4.0152,0.0,0.0,0.0,0.0,0.0,-4.3125,-4.2999,-4.3489,-4.4747,-4.5323,-4.5701,-4.5935,-4.6467,-4.6645,-4.6544,-4.715,-4.715,-4.6695,-4.6695,-4.6695,-4.6544,-4.4651,-4.4459,-4.5181,0.0,0.0,0.0,0.0,0.0,0.0,0.0,0.0,0.0,0.0,0.0,0.0,0.0,0.0,0.0,0.0,0.0,0.0,0.0,0.0,0.0,0.0,0.0,0.0,0.0,0.0,0.0,0.0,0.0,0.0,0.0,0.0,-5.5349,-5.4188,-5.569,-5.7253,-5.7971,-5.8394,-5.8873,-5.9595,-5.9893,-6.0225,-6.0755,-6.0986,-6.1119,-6.1119,-6.1616,-6.1712,-6.125,-6.2179,-6.2754,-6.2691,-6.3149,-6.3862,-6.4768,-6.493,-6.5189,-6.5546,-6.5546,-6.5125,-6.4445,-6.4768,-6.4639,-6.4185,-6.4704,-6.4642,-6.4191,-6.2934,-6.2691,-6.3121,-6.4332,-6.5359,-6.6142,0.0,0.0,0.0,0.0,0.0,0.0,0.0,0.0,0.0,0.0,-3.3122,-3.4759,-3.6871,-3.8302,-3.9563,-4.063,-4.0868,-4.1197,-4.1816,0.0,0.0,0.0,0.0,-4.2473,-4.3827,-4.3827,-4.4523,-4.5899,-4.6033,-4.6292,-4.6683,-4.686,-4.6834,-4.6733,-4.7188,-4.7378,-4.7378,-4.7378,-4.7378,-4.7264,-4.5824,-4.5495,-4.5779,-4.4373,-4.4213,-4.4594,-4.3101,-4.2557,-4.2347,-4.1075,0.0,0.0,0.0,0.0,0.0,0.0,0.0,0.0,0.0,0.0,0.0,0.0,0.0,0.0,0.0,0.0,0.0,0.0,0.0,0.0,0.0,0.0,0.0,0.0,-5.6199,-5.7668,-5.7416,-5.8118,-5.8923,-5.9396,-5.9352,-5.9661,-6.039,-6.0456,-6.0788,-6.1516,-6.155,-6.1682,-6.2013,-6.2326,-6.2385,-6.195,-6.2942,-6.3518,-6.3764,-6.4509,-6.5384,-6.6355,-6.6647,-6.7035,-6.7424,-6.7424,-6.7035,0.0,-6.6517,-6.6161,-6.5513,-6.5934,-6.5803,0.0,0.0,0.0,0.0,0.0,-6.7355,-6.8625,0.0,0.0,0.0,0.0,0.0,0.0,0.0,0.0,0.0,0.0,0.0,-3.5702,-3.8311,-3.9312,-4.046,-4.2074,-4.1391,-4.1545,0.0,0.0,0.0,-4.2164,-4.2783,-4.3595,-4.4601,-4.4664,-4.5356,-4.6724,-4.6071,-4.6326,-4.7353,-4.6733,-4.6809,-4.7378,-4.7378,-4.7491,-4.7681,-4.7567,-4.7605,-4.7681,-4.7567,-4.7036,-4.614,-4.4244,-4.4014,-4.4551,-4.3482,-4.3103,-4.3044,-4.2643,0.0,0.0,0.0,0.0,0.0,0.0,0.0,0.0,0.0,0.0,0.0,0.0,0.0,0.0,0.0,0.0,0.0,0.0,0.0,0.0,0.0,0.0,0.0,0.0,-5.8871,-5.9908,-6.046,-6.0023,-5.9798,-6.0141,-6.0125,-6.0423,-6.1152,-6.1218,-6.1516,-6.2245,-6.2278,-6.2577,-6.3239,0.0,0.0,0.0,0.0,-6.4114,-6.5384,-6.6096,-6.7132,-6.846,-6.9108,-6.9399,-6.9399,-6.9399,-6.8978,-6.8169,-6.7651,-6.6971,-6.6226,-6.6323,-6.6192,-6.596,-6.6062,-6.5998,-6.5998,-6.7526,-6.8863,0.0,0.0,0.0,0.0,0.0,0.0,0.0,0.0,0.0,0.0,-3.207,-3.375,-3.5701,-3.8294,-3.9307,-4.0462,-4.2083,-4.1415,-4.1274,0.0,0.0,-4.1081,-4.2976,-4.255,-4.2976,-4.4562,-4.5156,-4.605,-4.7401,-4.7853,-4.777,-4.7257,-4.772,-4.7764,-4.7378,-4.7378,-4.8136,-4.9349,-4.8704,-4.8818,-4.9349,-4.8704,-4.7908,-4.7036,-4.6001,-4.571,-4.5798,-4.5275,-4.5086,-4.5073,-4.5068,-4.4841,-4.4294,-4.3351,-4.3355,0.0,0.0,0.0,0.0,0.0,0.0,0.0,0.0,0.0,0.0,0.0,0.0,0.0,0.0,0.0,0.0,0.0,0.0,0.0,-5.8187,-5.957,-6.0613,-6.0411,-6.0765,-6.1017,-6.0887,-6.0887,-6.1185,-6.1881,-6.198,-6.2278,-6.3007,-6.3073,-6.3107,-6.3272,-6.3573,0.0,-6.4309,-6.5274,-6.6452,-6.7586,-6.8298,-6.9108,-6.9982,0.0,0.0,-7.0177,-7.0177,-6.9464,-6.8234,-6.8687,-6.8169,-6.7035,-6.7553,-6.8634,-6.9614,-6.7096,-6.759,-6.949,-6.9362,-7.0046,-7.0893,0.0,0.0,0.0,0.0,0.0,0.0,0.0,0.0,0.0,0.0,-3.2962,-3.4843,-3.6993,-3.8338,-3.9879,-4.197,-4.2125,0.0,0.0,-4.0848,-4.1081,-4.3208,-4.2899,-4.344,-4.5142,-4.577,-4.6569,-4.751,-4.7846,-4.7704,-4.7052,-4.7607,-4.7261,-4.6203,-4.7036,-4.787,-4.8628,-4.8666,-4.9159,-4.9841,-4.9462,-4.878,-4.7946,-4.7112,-4.6809,-4.6821,-4.7068,-4.6862,-4.6553,-4.6861,-4.6663,-4.6202,-4.5667,-4.5241,-4.4838,0.0,0.0,0.0,0.0,0.0,0.0,0.0,0.0,0.0,0.0,0.0,0.0,0.0,0.0,-5.5924,0.0,0.0,-5.9771,-6.0107,-6.0687,-6.1065,-6.0865,-6.1401,-6.1783,-6.1649,-6.1649,-6.1914,-6.2643,-6.2709,-6.304,-6.3769,-6.4046,-6.4321,-6.4685,-6.5049,-6.5493,-6.6119,-6.6874,-6.775,-6.8719,-6.9464,-7.0047,-7.0403,-7.0759,-7.0921,-7.0921,-7.0921,-7.0338,-6.9302,-6.927,-6.8687,-6.7748,-6.8428,-6.9612,-7.0766,-6.9015,-6.9747,-7.1993,-7.1867,-7.2085,-7.236,0.0,0.0,0.0,0.0,0.0,0.0,0.0,0.0,0.0,0.0,0.0,-3.3945,-3.5707,-3.734,-3.9301,0.0,0.0,0.0,0.0,-4.1235,-4.1467,-4.2976,-4.3208,-4.3968,-4.5501,-4.6201,-4.6827,-4.734,-4.7543,-4.7435,-4.7162,-4.7511,-4.6923,-4.5672,-4.6885,-4.7567,-4.7908,-4.8477,-4.9159,-4.9879,-4.9879,-4.95,-4.8856,-4.8136,-4.7681,-4.7491,-4.831,-4.8132,-4.7624,-4.813,-4.8068,-4.7786,-4.7735,-4.6876,-4.5923,-4.595,-4.577,0.0,0.0,0.0,0.0,0.0,0.0,0.0,0.0,0.0,-5.3439,-5.5256,-5.7011,-5.8448,-5.9475,-6.0342,-6.112,-6.1958,-6.1639,-6.1369,-6.1565,-6.1949,-6.2278,-6.2577,-6.2477,-6.2676,-6.3405,-6.3504,-6.3835,-6.473,-6.5024,-6.5626,-6.6516,-6.6638,-6.7069,-6.7916,-6.8204,-6.8816,-6.9691,-7.0306,-7.0662,-7.0824,-7.1375,-7.1634,-7.1634,-7.1472,-7.1051,-7.0371,-6.9798,-6.9213,-6.8856,-6.9509,-7.0431,-7.1555,-7.1019,-7.2117,-7.3883,-7.3578,-7.3477,-7.3477,0.0,0.0,0.0,0.0,0.0,0.0,0.0,0.0,0.0,0.0,0.0,0.0,0.0,0.0,0.0,0.0,0.0,0.0,-4.2048,-4.1235,-4.1197,-4.2125,-4.2899,-4.3656,-4.4437,-4.5726,-4.671,-4.7208,-4.7937,-4.8202,-4.8063,-4.8418,-4.8439,-4.8249,-4.7643,-4.8211,-4.9576,-4.8969,-4.9159,-4.9879,-4.9879,-4.9841,-4.9765,-4.9652,-4.8704,-4.7465,-4.7984,-4.8123,-4.8101,-4.8576,-4.8931,-4.9032,-4.8295,-4.8194,-4.8147,-4.6743,-4.6361,-4.6178,-4.5381,-4.6939,-4.9474,-5.2299,-5.3121,-5.3942,0.0,0.0,-5.7469,-6.0449,-6.0791,-6.1138,-6.3243,-6.2613,-6.1993,-6.2327,-6.1828,-6.1599,-6.2031,-6.2197,-6.2676,-6.3968,-6.357,-6.3438,-6.42,-6.4266,-6.4829,-6.6187,-6.608,-6.6615,-6.8031,-6.7653,-6.8046,-6.9447,-6.9242,-6.982,-7.1148,-7.1278,-7.1634,-7.2282,-7.2346,-7.2379,-7.2346,-7.1699,-7.1051,-7.0371,-7.0402,-7.0601,-7.0926,-7.1127,-7.2183,-7.3502,-7.3207,-7.4031,-7.5175,-7.2935,-7.2658,-7.3477,0.0,0.0,0.0,0.0,0.0,0.0,0.0,0.0,0.0,0.0,0.0,0.0,0.0,0.0,0.0,0.0,0.0,0.0,-4.2009,-4.1235,-4.1132,-4.1837,-4.2724,-4.3512,-4.4149,-4.5459,-4.6228,-4.6452,-4.7099,-4.7432,-4.7537,-4.8183,-4.8321,-4.7946,-4.859,-4.8969,-4.9197,-4.9349,-4.9576,-4.9879,-4.9879,-4.9879,-4.9879,-4.9879,-4.9462,-4.8867,-4.8859,-4.8551,0.0,0.0,-4.9551,-5.0016,-4.9678,-4.9533,-4.9301,-4.7904,-4.7673,-4.8134,-4.9184,-5.1212,0.0,0.0,-5.5541,-5.6649,-5.9237,-5.9258,-5.9636,-6.2783,-6.319,-6.3093,-6.3498,-6.2922,-6.2336,0.0,-6.1881,-6.1983,-6.2197,-6.2908,-6.3703,-6.4299,-6.4465,-6.463,-6.4962,-6.5359,-6.5965,-6.6806,-6.7476,-6.8238,-6.9059,-6.9119,-6.9599,-7.0604,-7.0533,-7.1019,-7.2022,-7.2055,-7.2184,-7.2508,-7.3005,-7.2972,-7.2476,-7.2222,-7.1709,-7.1055,-7.1095,-7.1557,-7.2216,-7.3005,-7.3633,-7.4204,-7.482,-7.531,-7.5608,-7.468,-7.4573,-7.4762,0.0,0.0,0.0,0.0,0.0,0.0,0.0,0.0,0.0,0.0,0.0,0.0,0.0,0.0,0.0,0.0,0.0,0.0,0.0,-4.1528,-4.1485,-4.1801,-4.2601,-4.338,-4.4039,-4.482,-4.5443,-4.5844,-4.6202,-4.6562,-4.6915,-4.7721,-4.7813,-4.7401,-4.8666,-4.8894,-4.8363,-4.8969,-4.9197,-4.9197,-4.9197,-4.9349,-4.9576,-4.9576,-4.9635,-4.9741,-4.9506,-4.9152,0.0,0.0,-4.9931,-5.0418,-5.0418,-5.0182,-4.9714,-4.886,-4.9049,-5.0053,-5.2226,-5.4363,0.0,-5.6536,-5.7567,-5.9071,-6.1028,-6.0977,-6.1272,-6.3905,-6.4126,-6.3647,-6.3136,-6.2678,-6.2167,-6.1465,-6.1766,-6.2245,-6.2444,-6.357,-6.4465,-6.463,-6.5293,-6.579,-6.6022,-6.6428,-6.7096,-6.8064,-6.8732,-6.9549,-7.0261,-7.0507,-7.0986,-7.1699,-7.1699,-7.1958,-7.2508,-7.2508,-7.2508,-7.2508,-7.3077,-7.3208,-7.2767,-7.2827,-7.2512,-7.192,-7.2282,-7.2876,-7.3607,-7.4674,-7.4978,-7.4835,-7.5676,-7.5899,-7.5709,-7.5899,-7.5899,-7.5709,0.0,0.0,0.0,0.0,0.0,0.0,0.0,0.0,0.0,0.0,0.0,0.0,0.0,0.0,0.0,0.0,0.0,0.0,0.0,-4.2258,-4.2391,-4.1825,-4.2497,-4.3235,-4.3878,-4.3687,-4.4271,-4.5735,-4.5589,-4.5941,-4.6725,-4.709,-4.7229,-4.7229,-4.7401,-4.7453,-4.7453,-4.7453,-4.7491,-4.7491,-4.7491,-4.7984,-4.8742,-4.8742,-4.9032,-4.9415,-4.9415,0.0,0.0,0.0,-5.0005,-5.0005,-5.0005,-4.9751,-4.9407,-4.937,-5.0253,-5.1574,-5.3204,-5.4798,-5.6355,-5.7949,-5.9562,-6.1211,-6.2799,-6.2602,-6.2587,-6.4179,-6.3203,-6.2272,-6.27,-6.2088,-6.1383,-6.1202,-6.1715,-6.2411,-6.314,-6.3902,-6.463,-6.5293,-6.6022,-6.6784,0.0,-6.7301,-6.8097,-7.0239,-6.9943,-7.0294,-7.1694,-7.148,-7.1731,-7.2443,-7.2476,-7.2476,-7.2508,-7.2508,-7.2508,-7.2508,-7.2508,-7.2864,-7.3512,-7.3684,-7.3237,-7.2645,-7.4208,-7.5059,-7.5291,-7.6088,-7.6182,-7.5676,-7.5709,-7.5709,-7.5709,-7.5709,-7.5709,-7.5709,0.0,0.0,0.0,0.0,0.0,0.0,0.0,0.0,0.0,0.0,0.0,0.0,0.0,0.0,0.0,0.0,0.0,0.0,0.0,-4.1055,-4.1457,-4.0597,-4.1836,-4.2667,-4.2883,-4.3076,-4.3755,-4.4881,-4.4087,-4.4498,-4.6052,-4.6139,-4.6609,-4.7326,-4.7352,-4.7378,-4.7378,-4.7378,-4.7378,-4.7453,-4.8022,-4.8439,-4.8742,-4.9051,-4.9281,-4.939,0.0,0.0,0.0,0.0,-5.078,-5.1332,-5.1845,-5.2279,-5.27,-5.298,-5.3707,-5.4544,-5.5088,0.0,-5.8637,-5.9724,-6.0855,-6.2248,-6.4354,-6.385,-6.3467,-6.4999,-6.3973,-6.2781,-6.2836,-6.2009,-6.1467,-6.1799,-6.2411,-6.3338,-6.4531,-6.5326,-6.6055,-6.6784,-6.7512,0.0,0.0,0.0,0.0,-7.083,-7.1084,-7.1461,-7.2193,-7.212,-7.2249,-7.2508,-7.2508,-7.2508,-7.2508,-7.2508,-7.2508,-7.2508,-7.3077,-7.3957,-7.5132,-7.4705,-7.4636,-7.4854,-7.5303,-7.5722,-7.6334,-7.6461,-7.6309,-7.6028,-7.6028,-7.5805,-7.5709,-7.5899,-7.5805,-7.5709,0.0,0.0,0.0,0.0,0.0,0.0,0.0,0.0,0.0,0.0,0.0,0.0,0.0,0.0,0.0,0.0,0.0,0.0,0.0,0.0,-4.0431,-3.9857,-4.1382,-4.2281,-4.227,-4.2752,-4.3315,-4.3962,-4.3535,-4.3826,-4.474,-4.5162,-4.5892,-4.6845,-4.6935,-4.7112,-4.7378,-4.7378,-4.7757,-4.8249,-4.7488,-4.7737,-4.8428,-4.7733,-4.7585,0.0,0.0,0.0,0.0,0.0,-5.0957,-5.1731,-5.1907,-5.2747,-5.3872,-5.4967,-5.5631,-5.6138,0.0,-5.842,-6.0177,-6.0719,-6.1901,-6.327,-6.4552,-6.4119,-6.3729,-6.47,-6.3719,-6.2591,-6.2479,-6.2038,-6.1684,-6.1748,-6.2842,-6.4001,-6.4929,-6.5889,-6.6784,-6.7546,-6.8473,-6.9471,0.0,0.0,0.0,-7.1775,-7.1988,-7.2201,-7.2476,-7.2508,-7.2508,-7.2508,-7.2508,-7.2508,-7.2508,-7.2767,-7.3208,-7.3681,-7.4248,-7.4966,-7.5939,-7.5766,-7.5783,-7.602,-7.6148,-7.6461,-7.6736,-7.6645,-7.6402,-7.6122,-7.6216,-7.6122,-7.5994,-7.6216,-7.6088,-7.5994,0.0,0.0,0.0,0.0,0.0,0.0,0.0,0.0,0.0,0.0,0.0,0.0,0.0,0.0,0.0,0.0,0.0,0.0,0.0,0.0,0.0,-3.9588,-4.1105,-4.1942,-4.1942,-4.253,-4.2855,-4.2893,-4.3677,-4.3639,-4.2922,-4.3998,-4.4923,-4.5666,-4.5937,-4.6468,-4.7188,-4.7188,-4.8136,-4.9322,-4.5875,-4.5876,-4.7717,-4.5065,0.0,0.0,0.0,0.0,0.0,0.0,0.0,-5.1176,-5.056,-5.1466,-5.3204,0.0,0.0,-5.6536,-5.8094,-5.9598,-6.081,-6.1033,-6.2683,-6.4202,-6.3612,-6.3448,-6.3457,-6.3531,-6.2547,-6.1709,0.0,0.0,-6.198,-6.1384,-6.3007,-6.4432,-6.4531,-6.5724,-6.685,0.0,0.0,0.0,0.0,0.0,0.0,-7.2867,0.0,-7.2508,-7.2508,-7.2508,-7.2508,-7.2508,-7.2508,-7.2508,-7.2573,-7.3253,-7.4398,-7.5938,-7.5839,-7.5964,-7.6139,-7.6821,-7.67,-7.6114,-7.6828,-7.6953,-7.6495,-7.6736,-7.6553,-7.6122,-7.6402,-7.6495,-7.6495,-7.6495,-7.6495,-7.6495,0.0,0.0,0.0,0.0,0.0,0.0,0.0,0.0,0.0,0.0,0.0,0.0,0.0,0.0,0.0,0.0,0.0,0.0,0.0,0.0,0.0,0.0,0.0,0.0,0.0,0.0,0.0,-4.1514,-4.1056,-4.1056,-4.1514,-4.1829,-4.2196,-4.2717,-4.352,-4.4131,-4.4461,-4.4346,-4.4858,-4.5697,0.0,-4.4505,-4.5034,0.0,0.0,0.0,0.0,0.0,0.0,0.0,0.0,0.0,0.0,-5.5196,-5.6355,0.0,0.0,-5.8891,-5.9905,-6.0555,-6.114,-6.2378,-6.2798,-6.3136,-6.4111,-6.3432,-6.2813,-6.3199,-6.2469,-6.1795,-6.2199,0.0,0.0,-6.3405,-6.4001,0.0,-6.6585,-6.7115,0.0,-6.9103,0.0,-7.1128,-7.1027,-7.1999,0.0,0.0,-7.2508,-7.2508,-7.2508,-7.2508,-7.2508,-7.2508,-7.2508,-7.2767,-7.3285,-7.3998,-7.5115,-7.6663,-7.6166,-7.6508,-7.7634,-7.7306,-7.709,-7.6918,-7.6918,-7.6828,-7.6736,-7.6645,-7.6495,-7.6402,-7.6495,-7.6495,-7.6495,-7.6645,-7.6645,-7.6495,0.0,0.0,0.0,0.0,0.0,0.0,0.0,0.0,0.0,0.0,0.0,0.0,0.0,0.0,0.0,0.0,0.0,0.0,0.0,0.0,0.0,0.0,0.0,0.0,0.0,0.0,0.0,0.0,0.0,0.0,-4.0478,-4.124,-4.1952,-4.25,-4.2731,-4.3332,-4.4092,-4.3689,0.0,0.0,0.0,0.0,0.0,0.0,0.0,0.0,0.0,0.0,0.0,0.0,0.0,-5.2299,-5.5124,-5.6319,-5.6899,-5.8166,0.0,-5.9707,-6.0195,-6.1149,-6.2124,-6.2692,-6.31,-6.3377,-6.3612,-6.3158,-6.2702,-6.2668,-6.2076,-6.1781,-6.2349,-6.2614,-6.2941,0.0,0.0,0.0,-6.6916,-6.7413,-6.8175,0.0,-7.0896,0.0,-7.1221,-7.2189,-7.2827,0.0,-7.2508,-7.2508,-7.2508,-7.2508,-7.2508,-7.2508,-7.3193,-7.4163,-7.5602,-7.5997,-7.6815,-7.808,-7.7279,-7.7363,-7.8229,-7.7559,-7.7223,-7.7223,0.0,-7.6918,-7.6793,-7.6862,-7.6771,-7.6645,-7.6771,-7.6771,-7.6862,-7.6918,-7.6918,-7.6896,0.0,0.0,0.0,0.0,0.0,0.0,0.0,0.0,0.0,0.0,0.0,0.0,0.0,0.0,0.0,0.0,0.0,0.0,0.0,0.0,0.0,0.0,0.0,0.0,0.0,0.0,0.0,0.0,0.0,0.0,0.0,0.0,0.0,0.0,0.0,0.0,0.0,0.0,0.0,0.0,0.0,0.0,0.0,0.0,0.0,0.0,0.0,0.0,0.0,0.0,-5.0995,-5.277,-5.5341,-5.6138,-5.6319,-5.7261,-5.8513,-5.9673,-5.9938,-6.1483,-6.2952,-6.2576,-6.3481,-6.4074,-6.2557,-6.2634,-6.2753,-6.1807,-6.1327,-6.1317,-6.2083,-6.2647,-6.304,-6.3239,0.0,-6.5591,-6.6552,-6.7214,-6.8175,-6.9633,-7.0699,-7.1291,-7.112,-7.2124,-7.2624,-7.2476,-7.2508,-7.2508,-7.2508,-7.2508,-7.2647,-7.2851,-7.4412,-7.6233,-7.8149,-7.8149,-7.859,-7.9386,-7.8502,-7.8169,-7.8361,-7.7568,-7.7223,-7.7223,0.0,0.0,-7.6884,-7.7099,-7.7009,-7.6918,-7.7133,-7.7223,-7.7223,-7.7223,-7.7292,-7.7465,0.0,0.0,0.0,0.0,0.0,0.0,0.0,0.0,0.0,0.0,0.0,0.0,0.0,0.0,0.0,0.0,0.0,0.0,0.0,0.0,0.0,0.0,0.0,0.0,0.0,0.0,0.0,0.0,0.0,0.0,0.0,0.0,0.0,0.0,0.0,0.0,0.0,0.0,0.0,0.0,0.0,0.0,0.0,0.0,0.0,0.0,0.0,0.0,0.0,0.0,-5.0198,-5.2154,-5.5812,-5.6971,-5.7261,-5.8746,-5.9456,-6.0067,-6.1343,-6.1606,-6.1813,-6.3017,-6.346,-6.3271,-6.1616,-6.1784,0.0,-6.0057,-5.9664,-5.9738,-6.0306,-6.0986,-6.1881,-6.3073,-6.4001,-6.5227,-6.7148,-6.7546,-6.8082,0.0,-6.9977,-7.0533,-7.0852,-7.1357,0.0,0.0,0.0,0.0,-7.2508,-7.2508,-7.3054,-7.4346,-7.6465,-7.7813,-7.8149,-7.8149,-7.8556,-7.9386,-7.7992,-7.7691,-7.8361,-7.7568,-7.7223,-7.7223,0.0,0.0,-7.7133,-7.7223,-7.7223,-7.7133,-7.7223,-7.7223,-7.7223,-7.7223,-7.7637,-7.8223,0.0,0.0,0.0,0.0,0.0,0.0,0.0,0.0,0.0,0.0,0.0,0.0,0.0,0.0,0.0,0.0,0.0,0.0,0.0,0.0,0.0,0.0,0.0,0.0,0.0,0.0,0.0,0.0,0.0,0.0,0.0,0.0,0.0,0.0,0.0,0.0,0.0,0.0,0.0,0.0,0.0,0.0,0.0,0.0,0.0,0.0,0.0,0.0,0.0,0.0,-4.9739,-5.2198,-5.6016,-5.7478,-5.7985,-5.8746,-5.9653,-6.0535,-6.0822,-6.104,-6.1424,-6.2152,-6.2387,-6.2099,-6.1234,-6.1144,-6.0918,-5.9498,-5.9139,-5.9212,-5.986,-6.0291,-6.102,-6.2477,-6.3338,-6.4432,-6.622,-6.7148,-6.7916,-6.869,-6.9616,-7.027,-7.075,-7.1123,0.0,0.0,0.0,0.0,-7.3077,-7.3854,-7.5234,-7.7145,-7.8286,-7.9056,-7.9484,-7.9386,-7.9206,-7.8837,-7.8118,-7.7755,-7.7775,-7.7396,-7.7223,-7.7223,0.0,0.0,-7.7223,-7.7223,-7.7223,-7.7223,-7.7223,-7.7223,-7.7223,-7.7223,-7.7706,-7.8465,0.0,0.0,0.0,0.0,0.0,0.0,0.0,0.0,0.0,0.0,0.0,0.0,0.0,0.0,0.0,0.0,0.0,0.0,0.0,0.0,0.0,0.0,0.0,0.0,0.0,0.0,0.0,0.0,0.0,0.0,0.0,0.0,0.0,0.0,0.0,0.0,0.0,0.0,0.0,0.0,0.0,0.0,0.0,0.0,0.0,0.0,0.0,0.0,0.0,0.0,-4.8621,-5.1651,-5.4835,-5.7144,-5.8621,-5.8697,-5.9809,-6.0838,-6.0148,-6.0566,-6.1273,-6.1282,-6.1535,-6.1481,-6.0852,-6.0583,-6.0144,-5.8952,-5.8515,-5.8601,-5.9198,-5.9429,-5.9993,0.0,-6.2345,-6.3405,-6.516,-6.6461,-6.7526,-6.8101,-6.9157,0.0,-7.0615,-7.12,0.0,0.0,0.0,0.0,0.0,-7.5706,-7.7408,-7.9318,-7.9717,-8.0138,-8.0638,-8.0465,-7.9707,-7.8396,-7.8223,-7.781,-7.7223,-7.7223,-7.7223,-7.7223,0.0,0.0,0.0,-7.7223,-7.7223,-7.7223,-7.7223,-7.7223,-7.7258,-7.7396,-7.7982,-7.8741,0.0,0.0,0.0,0.0,0.0,0.0,0.0,0.0,0.0,0.0,0.0,0.0,0.0,0.0,0.0,0.0,0.0,0.0,0.0,0.0,0.0,0.0,0.0,0.0,0.0,0.0,0.0,0.0,0.0,0.0,0.0,0.0,0.0,0.0,0.0,0.0,0.0,0.0,0.0,0.0,0.0,0.0,0.0,0.0,0.0,0.0,0.0,0.0,0.0,0.0,0.0,-4.9097,-5.0894,-5.5186,-5.9509,-5.9645,0.0,0.0,-6.0289,-6.0647,-6.1274,-6.1298,-6.2156,-6.2434,-6.0147,-6.0023,-5.9685,-5.7387,-5.6879,-5.6912,-5.6978,-5.7541,0.0,0.0,-6.0821,-6.2278,-6.5028,-6.5907,-6.6653,-6.7845,0.0,0.0,-7.0377,-7.112,0.0,0.0,0.0,0.0,0.0,-7.7269,-7.8502,-7.9415,-8.0782,-8.1233,-8.0638,-7.9948,-7.9224,-7.8396,-7.7672,-7.7292,-7.7223,-7.7223,-7.7223,-7.7223,0.0,0.0,0.0,-7.7223,-7.7223,-7.7223,-7.7223,-7.7223,-7.7292,-7.8017,-7.8775,-7.95,0.0,0.0,0.0,0.0,0.0,0.0,0.0,0.0,0.0,0.0,0.0,0.0,0.0,0.0,0.0,0.0,0.0,0.0,0.0,0.0,0.0,0.0,0.0,0.0,0.0,0.0,0.0,0.0,0.0,0.0,0.0,0.0,0.0,0.0,0.0,0.0,0.0,0.0,0.0,0.0,0.0,0.0,0.0,0.0,0.0,0.0,0.0,0.0,0.0,0.0,0.0,-4.7195,-4.996,-5.3068,-5.613,-5.7989,-5.9131,-5.9906,-6.06,-6.0677,-6.0689,-6.1197,-6.1211,-6.0808,-5.9745,0.0,-5.7842,-5.6316,-5.5686,-5.5521,-5.5984,-5.6282,-5.6978,-5.8436,-5.9944,-6.1363,-6.2979,-6.5173,-6.6729,-6.7033,-6.8369,0.0,0.0,0.0,0.0,0.0,0.0,0.0,0.0,-7.9145,-7.9788,-8.0062,-8.0725,-8.05,-7.9293,-7.8982,-7.8465,-7.7672,-7.7361,-7.7223,-7.7223,-7.7223,-7.7223,-7.7223,0.0,0.0,0.0,-7.7223,-7.7223,-7.7223,-7.7223,-7.7534,-7.7982,-7.8292,-7.9155,-8.0224,0.0,0.0,0.0,0.0,0.0,0.0,0.0,0.0,0.0,0.0,0.0,0.0,0.0,0.0,0.0,0.0,0.0,0.0,0.0,0.0,0.0,0.0,0.0,0.0,0.0,0.0,0.0,-3.3259,0.0,0.0,0.0,0.0,0.0,0.0,0.0,0.0,0.0,0.0,0.0,0.0,0.0,0.0,0.0,0.0,0.0,0.0,0.0,0.0,0.0,0.0,0.0,-4.5061,-4.8028,-5.0349,-5.2579,-5.5768,-5.7612,-5.8737,-5.9663,-6.0115,-6.0444,-6.0782,-6.0045,-5.9242,-5.9087,0.0,-5.6037,-5.5388,-5.4891,-5.4759,-5.5487,-5.562,-5.6117,-5.7541,-5.9267,-6.0652,-6.1376,-6.417,-6.6119,-6.6157,0.0,0.0,0.0,0.0,0.0,0.0,0.0,0.0,0.0,-7.9879,-8.0396,-8.0603,-8.0396,-7.9672,-7.843,-7.8396,-7.8017,-7.7223,-7.7223,-7.7223,-7.7223,-7.7223,-7.7223,0.0,0.0,0.0,0.0,-7.7223,-7.7223,-7.7258,-7.7465,-7.7913,-7.8465,-7.8913,-7.9707,-8.0638,0.0,0.0,0.0,0.0,0.0,0.0,0.0,0.0,0.0,0.0,0.0,0.0,0.0,0.0,0.0,0.0,0.0,0.0,0.0,0.0,0.0,0.0,0.0,0.0,0.0,0.0,-3.4079,-3.4079,-3.4829,-3.5614,0.0,0.0,0.0,0.0,0.0,0.0,0.0,0.0,0.0,0.0,0.0,0.0,0.0,0.0,0.0,0.0,0.0,0.0,0.0,0.0,0.0,0.0,0.0,-4.6709,-4.978,-5.3341,-5.6012,-5.7671,-5.7012,-5.8815,-6.0718,-6.0011,-5.8964,-5.8119,0.0,0.0,-5.4527,-5.4527,-5.4527,-5.4759,-5.5487,-5.562,-5.6117,-5.7541,-5.8837,0.0,-6.0619,-6.2778,-6.4626,0.0,0.0,0.0,0.0,0.0,0.0,0.0,0.0,0.0,0.0,0.0,-7.9879,-8.0603,-7.9913,-7.9155,-7.843,-7.8396,-7.8017,-7.7223,-7.7223,-7.7223,-7.7223,-7.7223,0.0,0.0,0.0,0.0,0.0,-7.7223,-7.7223,-7.7292,-7.8085,-7.8396,-7.8603,-8.0051,-8.0603,-8.0741,0.0,0.0,0.0,0.0,0.0,0.0,0.0,0.0,0.0,0.0,0.0,0.0,0.0,0.0,0.0,0.0,0.0,0.0,0.0,0.0,0.0,0.0,0.0,0.0,0.0,0.0,-3.4365,-3.4865,-3.565,-3.6149,-3.6399,-3.6934,0.0,0.0,0.0,0.0,0.0,0.0,0.0,0.0,0.0,0.0,0.0,0.0,0.0,0.0,0.0,0.0,0.0,0.0,0.0,0.0,0.0,0.0,0.0,-4.9786,-5.2595,-5.5009,-5.568,-5.6482,-5.7217,-5.7338,-5.6646,-5.6062,-5.6454,-5.5107,-5.3632,-5.3169,-5.3069,-5.3268,-5.3997,-5.4527,-5.5279,-5.6657,0.0,0.0,0.0,0.0,0.0,-6.5903,-6.955,0.0,0.0,0.0,0.0,0.0,0.0,0.0,0.0,0.0,-7.8879,-7.9086,-7.8879,-7.8396,-7.7603,-7.7603,-7.7465,-7.7223,-7.7223,-7.7223,-7.7223,-7.7223,0.0,0.0,0.0,0.0,0.0,-7.7223,-7.7223,-7.7292,-7.8085,-7.8706,-7.9293,-8.0258,-8.0948,-8.1466,0.0,0.0,0.0,0.0,0.0,0.0,0.0,0.0,0.0,0.0,0.0,0.0,0.0,0.0,0.0,0.0,0.0,0.0,0.0,0.0,0.0,0.0,0.0,0.0,0.0,-3.4401,-3.5328,-3.6114,-3.6899,-3.7327,-3.7327,-3.8112,-3.8185,-3.7721,0.0,0.0,0.0,0.0,0.0,0.0,0.0,0.0,0.0,0.0,0.0,0.0,0.0,0.0,0.0,0.0,0.0,0.0,0.0,0.0,0.0,0.0,-4.9068,-5.1258,-5.3446,-5.4384,-5.495,-5.5542,-5.4828,0.0,-5.5547,-5.4336,-5.3036,-5.3169,-5.3202,-5.34,-5.4129,-5.4858,-5.5742,0.0,0.0,0.0,0.0,0.0,0.0,-6.8069,0.0,0.0,0.0,0.0,0.0,0.0,0.0,0.0,0.0,0.0,-7.7948,-7.7948,-7.7948,-7.7706,-7.7223,-7.7223,-7.7223,-7.7223,-7.7223,-7.7223,-7.7223,0.0,0.0,0.0,0.0,0.0,0.0,-7.7223,-7.7223,-7.7327,-7.8396,-7.912,-7.9638,-8.0672,-8.1362,-8.181,0.0,0.0,0.0,0.0,0.0,0.0,0.0,0.0,0.0,0.0,0.0,0.0,0.0,0.0,0.0,0.0,0.0,0.0,0.0,0.0,0.0,0.0,0.0,0.0,0.0,-3.565,-3.6827,-3.7684,-3.8433,-3.8826,-3.8897,-3.9575,-3.9149,-3.7829,-3.8617,0.0,0.0,0.0,0.0,0.0,0.0,0.0,0.0,0.0,0.0,0.0,0.0,0.0,0.0,0.0,0.0,0.0,0.0,0.0,0.0,0.0,0.0,0.0,0.0,-5.2363,-5.3523,-5.4356,-5.3413,-5.287,-5.499,-5.3897,0.0,-5.4162,-5.4494,-5.4725,-5.5421,-5.6183,-5.7099,0.0,0.0,0.0,0.0,-6.5038,0.0,0.0,0.0,0.0,0.0,0.0,0.0,0.0,0.0,0.0,0.0,0.0,0.0,-7.7223,-7.7223,-7.7223,-7.7223,-7.7223,-7.7223,-7.7223,-7.7223,-7.7223,-7.7223,0.0,0.0,0.0,0.0,0.0,0.0,-7.7223,-7.7258,-7.7465,-7.8948,-7.9534,-7.9776,-8.1259,-8.181,-8.181,0.0,0.0,0.0,0.0,0.0,0.0,0.0,0.0,0.0,0.0,0.0,0.0,0.0,0.0,0.0,0.0,0.0,0.0,0.0,0.0,0.0,0.0,0.0,0.0,0.0,-3.5899,-3.7113,-3.854,-3.8719,-3.9111,-3.9646,-3.9902,-3.9621,-3.8762,-3.9014,-3.876,0.0,0.0,0.0,0.0,0.0,0.0,0.0,0.0,0.0,0.0,0.0,-3.6781,0.0,0.0,0.0,0.0,0.0,0.0,0.0,0.0,-4.4808,0.0,0.0,0.0,-4.9892,-5.1719,-5.1848,-5.1943,0.0,-5.3533,-5.3268,-5.3599,-5.4129,-5.456,-5.4759,-5.5699,-5.6896,0.0,0.0,0.0,-6.2781,0.0,0.0,0.0,0.0,0.0,0.0,0.0,0.0,0.0,0.0,0.0,0.0,0.0,0.0,-7.7223,-7.7223,-7.7223,-7.7223,-7.7223,-7.7223,-7.7223,-7.7223,-7.7223,-7.7223,0.0,0.0,0.0,0.0,0.0,0.0,-7.7223,-7.7568,-7.8223,-7.9155,-7.9844,-8.0465,-8.1431,-8.181,-8.181,0.0,0.0,0.0,0.0,0.0,0.0,0.0,0.0,0.0,0.0,0.0,0.0,0.0,0.0,0.0,0.0,0.0,0.0,0.0,0.0,0.0,0.0,0.0,0.0,-3.5721,-3.6542,-3.7577,-3.8826,-3.8826,-3.9182,-3.9896,-4.0047,-3.9729,-3.8977,-3.8546,-3.8187,0.0,0.0,0.0,0.0,0.0,0.0,0.0,0.0,0.0,0.0,-3.6612,-3.7,0.0,-3.8096,-3.9059,-4.012,0.0,0.0,0.0,0.0,-4.3631,-4.4218,-4.6311,-4.7237,-4.8131,-5.022,-5.1048,-5.1744,-5.3533,-5.4195,-5.4527,-5.4858,-5.5222,-5.562,-5.5951,-5.7753,-5.9172,0.0,-6.1447,0.0,0.0,0.0,0.0,0.0,0.0,0.0,0.0,0.0,0.0,0.0,0.0,0.0,0.0,0.0,0.0,0.0,-7.7223,-7.7223,-7.7223,-7.7223,-7.7223,-7.7223,-7.7133,-7.7099,-7.7223,0.0,0.0,0.0,0.0,0.0,-7.7223,-7.7223,-7.7672,-7.8465,-7.9224,-7.9982,-8.0707,-8.15,-8.181,-8.181,0.0,0.0,0.0,0.0,0.0,0.0,0.0,0.0,0.0,0.0,0.0,0.0,0.0,0.0,0.0,0.0,0.0,0.0,0.0,0.0,0.0,0.0,0.0,-3.565,-3.6542,-3.722,-3.8041,-3.8968,-3.9111,-3.9611,-4.0467,-4.0581,-4.0047,-3.9009,-3.7964,-3.7425,0.0,0.0,0.0,0.0,0.0,0.0,0.0,0.0,0.0,0.0,0.0,0.0,0.0,-3.8419,-3.8824,-3.916,-4.0299,0.0,0.0,0.0,0.0,0.0,-4.6113,-4.7073,-4.7736,-4.9856,-5.0916,-5.1976,-5.4063,-5.509,-5.5819,-5.6547,-5.668,-5.7056,-5.8141,-6.0181,-6.1602,0.0,0.0,0.0,0.0,0.0,0.0,0.0,0.0,0.0,0.0,0.0,0.0,0.0,0.0,0.0,0.0,0.0,0.0,0.0,-7.7223,-7.7223,-7.7223,-7.7223,-7.7223,-7.7223,-7.6918,-7.6918,-7.7133,-7.6771,0.0,0.0,0.0,0.0,-7.7223,-7.7361,-7.7879,-7.8637,-7.9396,-8.012,-8.0879,-8.1569,-8.181,-8.181,0.0,0.0,0.0,0.0,0.0,0.0,0.0,0.0,0.0,0.0,0.0,0.0,0.0,0.0,0.0,0.0,0.0,0.0,0.0,0.0,0.0,0.0,-3.4686,-3.5899,-3.7362,-3.7541,-3.829,-3.9753,-4.0431,-4.1502,-4.2965,-4.3012,-4.1868,-3.9605,-3.8435,-3.7536,-3.6939,0.0,0.0,0.0,0.0,0.0,0.0,0.0,0.0,0.0,0.0,0.0,0.0,-3.8538,-3.911,-3.9595,-3.9778,0.0,0.0,0.0,0.0,0.0,-4.6113,-4.7802,-4.9127,-5.0717,-5.1678,-5.2605,-5.4162,-5.509,-5.5819,-5.6547,-5.668,-5.7553,-6.0266,-5.9731,-5.9828,0.0,0.0,0.0,0.0,0.0,0.0,0.0,0.0,0.0,0.0,0.0,0.0,0.0,0.0,0.0,0.0,0.0,0.0,0.0,0.0,-7.7223,-7.7223,-7.7223,-7.7223,-7.7223,-7.6918,-7.6793,-7.6884,-7.6828,-7.6793,0.0,0.0,0.0,-7.7258,-7.7948,-7.8672,-7.9396,-8.0155,-8.0914,-8.1638,-8.1741,-8.181,-8.181,0.0,0.0,0.0,0.0,0.0,0.0,0.0,0.0,0.0,0.0,0.0,0.0,0.0,0.0,0.0,0.0,0.0,0.0,0.0,0.0,0.0,-3.4044,-3.5221,-3.6185,-3.6934,-3.7362,-3.8148,-3.9325,-4.0075,-4.1502,-4.35,-4.2531,-4.1029,-3.9142,-3.7697,-3.6887,-3.6574,-3.6114,0.0,0.0,0.0,0.0,0.0,0.0,0.0,0.0,0.0,0.0,0.0,0.0,-3.941,-3.9677,-3.952,0.0,0.0,0.0,0.0,0.0,-4.6212,-4.7968,-4.9858,-5.2939,-5.4925,-5.6264,-5.7338,-5.8822,-5.9749,-5.9261,-5.9185,-5.9775,-6.1511,0.0,-6.36,-6.7398,0.0,0.0,0.0,0.0,0.0,0.0,0.0,0.0,0.0,0.0,0.0,0.0,0.0,0.0,0.0,0.0,0.0,0.0,0.0,0.0,-7.7223,-7.7223,-7.7223,-7.7223,-7.6828,-7.6736,-7.6793,-7.6427,-7.6427,0.0,0.0,-7.6862,-7.7292,-7.7869,-7.8718,-7.9569,-8.0327,-8.1121,-8.181,-8.181,-8.162,-8.1393,0.0,0.0,0.0,0.0,0.0,0.0,0.0,0.0,0.0,0.0,0.0,0.0,0.0,0.0,0.0,0.0,0.0,0.0,0.0,0.0,-3.2902,-3.4294,-3.5864,-3.6756,-3.697,-3.7577,-3.8433,-3.9611,-4.0396,-4.1747,-4.3622,-4.1775,-4.01,-3.8549,-3.7082,-3.6371,-3.6284,-3.5932,-3.5756,0.0,0.0,0.0,0.0,0.0,0.0,0.0,0.0,0.0,0.0,0.0,0.0,0.0,0.0,0.0,0.0,-4.1044,-4.2469,-4.4158,-4.651,-4.8498,-5.0857,-5.476,-5.6858,-5.8524,-6.0319,-6.2096,-6.3102,-6.2275,-6.2131,-6.2395,-6.3373,-6.5138,0.0,-6.9871,0.0,0.0,0.0,0.0,0.0,0.0,0.0,0.0,0.0,0.0,0.0,0.0,0.0,0.0,0.0,0.0,0.0,0.0,0.0,0.0,-7.7223,-7.7223,-7.7223,-7.7223,-7.6771,-7.6587,-7.6736,-7.6088,-7.6088,-7.6645,-7.6275,-7.6495,-7.7112,-7.7858,-7.8671,-7.9511,-8.0441,-8.1164,-8.181,-8.181,-8.149,-8.1005,0.0,0.0,0.0,0.0,0.0,0.0,0.0,0.0,0.0,0.0,0.0,0.0,0.0,0.0,0.0,0.0,0.0,0.0,0.0,0.0,-3.4294,-3.5114,-3.6649,-3.7862,-3.8611,-3.8683,-3.9825,-4.2037,-4.2858,-4.3507,-4.4011,-4.2146,-4.0214,-3.8377,-3.7285,-3.6614,-3.6284,-3.6241,-3.6241,-3.6241,0.0,0.0,0.0,0.0,0.0,0.0,0.0,0.0,0.0,0.0,0.0,0.0,0.0,0.0,0.0,-4.121,-4.2469,-4.4257,-4.7139,-4.9988,-5.2705,-5.5032,-5.5198,-5.6111,-6.1177,-6.2398,-6.2847,-6.4255,-6.4576,-6.5124,-6.7065,-6.7564,-6.7472,-6.6608,0.0,0.0,0.0,0.0,0.0,0.0,0.0,0.0,0.0,0.0,0.0,0.0,0.0,0.0,0.0,0.0,0.0,0.0,0.0,0.0,-7.7223,-7.7223,-7.7223,-7.7223,-7.6771,-7.6495,-7.6495,-7.6216,-7.6122,-7.6122,-7.6402,-7.6495,-7.669,-7.8032,-7.8837,-7.9231,-8.0741,-8.1551,-8.181,-8.181,-8.149,-8.1005,0.0,0.0,0.0,0.0,0.0,0.0,0.0,0.0,0.0,0.0,0.0,0.0,0.0,0.0,0.0,0.0,0.0,0.0,0.0,0.0,-3.515,-3.5899,-3.7006,-3.8183,-3.9468,-3.904,-3.9718,-4.1538,-4.3606,-4.4466,-4.4173,-4.1499,-3.9606,-3.8446,-3.7109,-3.6423,-3.6284,-3.6284,-3.6284,-3.6241,-3.5985,0.0,0.0,0.0,0.0,0.0,0.0,0.0,0.0,0.0,-3.9415,0.0,0.0,0.0,0.0,-4.121,-4.3429,-4.6013,-4.757,-5.1495,-5.5602,-5.7386,-5.8219,-5.9776,-6.3698,-6.5278,-6.6011,-6.6173,-6.6508,-6.6899,-6.6971,0.0,-6.9529,0.0,0.0,0.0,0.0,0.0,0.0,0.0,0.0,0.0,0.0,0.0,0.0,0.0,0.0,0.0,0.0,0.0,0.0,0.0,0.0,0.0,0.0,-7.7223,-7.7133,-7.6918,-7.6679,-7.6495,-7.6495,-7.5994,-7.5899,-7.6122,-7.5994,-7.6182,-7.6597,-7.7911,-7.862,-7.9042,-8.068,-8.1585,-8.181,-8.181,-8.149,-8.1005,0.0,0.0,0.0,0.0,0.0,0.0,0.0,0.0,0.0,0.0,0.0,0.0,0.0,0.0,0.0,0.0,0.0,0.0,0.0,-3.4044,-3.5578,-3.6363,-3.7148,-3.8076,-3.9147,-3.9182,-4.0039,-4.1859,-4.3651,-4.4258,-4.3694,-4.062,-3.9135,-3.8881,-3.6947,-3.6464,-3.701,-3.6513,-3.6367,-3.6451,-3.6258,-3.6435,0.0,0.0,0.0,0.0,0.0,0.0,0.0,0.0,-3.9362,-3.9288,0.0,0.0,0.0,0.0,-4.4704,-4.8155,-4.9124,-5.3247,-5.7624,-5.9375,-6.0932,-6.2881,-6.6214,-6.7392,-6.7959,-6.8693,-6.8682,-6.8274,-6.7409,-6.9014,0.0,0.0,0.0,0.0,0.0,0.0,0.0,0.0,0.0,0.0,0.0,0.0,0.0,0.0,0.0,0.0,0.0,0.0,0.0,0.0,0.0,0.0,0.0,-7.7099,-7.6918,-7.6736,-7.6495,-7.6402,-7.6402,-7.5899,-7.5805,-7.5994,-7.5805,-7.6035,-7.6692,-7.7856,-7.8638,-7.9439,-8.0789,-8.1393,-8.149,-8.149,-8.1434,-8.1248,0.0,0.0,0.0,0.0,0.0,0.0,0.0,0.0,0.0,0.0,0.0,0.0,0.0,0.0,0.0,0.0,0.0,0.0,0.0,-3.4365,-3.5578,-3.6363,-3.7148,-3.7577,-3.7612,-3.9111,-4.1074,-4.35,-4.3085,-4.2783,-4.245,-3.9686,-3.8883,-3.956,-3.6831,-3.6748,-3.8574,-3.6969,-3.6533,-3.693,-3.7282,-3.7192,0.0,0.0,0.0,0.0,0.0,0.0,0.0,0.0,-3.952,-3.9288,0.0,0.0,0.0,-4.2303,-4.6227,-5.0561,-5.2021,-5.5076,-5.8443,-6.0701,-6.2432,-6.4571,-6.8527,-6.8194,-6.8148,-7.1979,-7.1028,-6.937,-6.885,-6.9132,0.0,0.0,0.0,0.0,0.0,0.0,0.0,0.0,0.0,0.0,0.0,0.0,0.0,0.0,0.0,0.0,0.0,0.0,0.0,0.0,0.0,0.0,0.0,-7.6793,-7.6736,-7.6495,-7.6216,-7.6122,-7.6122,-7.5805,-7.5709,-7.5709,-7.5709,-7.6149,-7.6961,-7.7705,-7.9053,-8.061,-8.0906,-8.1005,-8.1005,-8.1005,-8.1251,-8.1664,0.0,0.0,0.0,0.0,0.0,0.0,0.0,0.0,0.0,0.0,0.0,0.0,0.0,0.0,0.0,0.0,0.0,0.0,0.0,-3.5721,-3.697,-3.722,-3.747,-3.7862,-3.8433,-3.9397,-4.1114,-4.3549,-4.2908,-4.2275,-4.1681,-4.0089,-3.886,-3.8043,-3.7567,-3.737,-3.7408,-3.7193,-3.7162,-3.7282,-3.7627,-3.8184,0.0,0.0,0.0,0.0,0.0,0.0,0.0,0.0,0.0,0.0,-3.9288,0.0,0.0,-4.2469,-4.5801,-4.9692,-5.0627,-5.5483,-6.0524,-6.1121,-6.4462,-6.8055,-6.9762,-6.9372,-6.9161,-7.1124,-6.991,-6.8785,-6.9481,-7.0754,0.0,0.0,0.0,0.0,0.0,0.0,0.0,0.0,0.0,0.0,0.0,0.0,0.0,0.0,0.0,0.0,0.0,0.0,0.0,0.0,0.0,0.0,0.0,0.0,-7.6645,-7.6216,-7.6122,-7.6122,-7.6122,-7.5805,-7.5709,-7.5709,-7.5709,-7.6149,-7.6995,-7.8247,-7.9528,-8.061,-8.0709,-8.0808,-8.1005,-8.1005,-8.0944,-8.0984,0.0,0.0,0.0,0.0,0.0,0.0,0.0,0.0,0.0,0.0,-3.3473,-3.3361,0.0,0.0,0.0,0.0,0.0,0.0,0.0,0.0,-3.7255,-3.7577,-3.7577,-3.7969,-3.879,-3.9256,-4.0584,-4.2705,-4.1552,-4.1121,-4.1216,-3.9877,-3.9128,-3.8811,-3.8655,-3.8566,-3.847,-3.8069,-3.8043,-3.8308,-3.8905,-3.95,0.0,0.0,0.0,0.0,0.0,0.0,0.0,0.0,0.0,0.0,-3.9288,-4.0382,-4.2062,-4.414,-4.7659,-5.142,-5.3954,-5.884,-6.3345,-6.4245,-6.6872,-6.9593,-7.0696,-7.0658,-7.0514,-7.0726,-7.0001,-6.9508,-7.0437,-7.1472,0.0,0.0,0.0,0.0,0.0,0.0,0.0,0.0,0.0,0.0,0.0,0.0,0.0,0.0,0.0,0.0,0.0,0.0,0.0,0.0,0.0,0.0,0.0,0.0,0.0,-7.5899,-7.5899,-7.5899,-7.5933,-7.5805,-7.5709,-7.5743,-7.6352,-7.6893,-7.7435,-7.8923,-7.9903,-8.041,-8.041,-8.051,-8.0709,-8.0709,-8.078,-8.0919,0.0,0.0,0.0,0.0,0.0,0.0,0.0,0.0,0.0,0.0,-3.4439,-3.4104,0.0,0.0,0.0,0.0,0.0,0.0,0.0,0.0,-3.6756,-3.7541,-3.7577,-3.7933,-3.8683,-3.8759,-3.9586,-4.1315,-3.9693,-3.961,-4.0856,-3.9433,-3.9476,-4.0709,-3.9776,-3.9923,-4.0659,-3.9303,-3.9043,-3.9686,-4.0585,-4.0943,-4.0918,0.0,0.0,0.0,0.0,0.0,0.0,0.0,0.0,0.0,-3.9288,-3.9818,-4.1444,-4.6278,-5.0463,-5.4522,-5.9383,-6.3196,-6.6355,-6.8602,-6.9389,-6.9988,-7.1303,-7.1907,-7.1862,-7.082,-7.0833,-7.1213,-7.167,0.0,0.0,0.0,0.0,0.0,0.0,0.0,0.0,0.0,0.0,0.0,0.0,0.0,0.0,0.0,0.0,0.0,0.0,0.0,0.0,0.0,0.0,0.0,0.0,0.0,0.0,0.0,-7.5709,-7.5709,-7.5709,-7.5709,-7.5743,-7.5879,-7.7333,-7.801,-7.8213,-7.96,-8.0209,-8.0209,-8.0209,-8.0209,-8.0209,-8.0209,-8.0648,-8.1393,0.0,0.0,0.0,0.0,0.0,0.0,0.0,0.0,0.0,0.0,0.0,0.0,0.0,0.0,0.0,0.0,0.0,0.0,0.0,0.0,-3.6756,-3.7541,-3.7577,-3.7684,-3.7826,-3.7936,-3.8833,-4.0561,-3.9494,-3.937,-4.011,-4.0046,-3.9491,-3.8707,-3.9722,-3.9756,-3.9068,-3.934,-3.956,-3.9813,-4.0916,-4.1366,-4.1321,-4.1116,0.0,0.0,0.0,0.0,0.0,0.0,0.0,0.0,-3.9288,-4.015,-4.1664,-4.3931,-4.8422,-5.3195,-5.5414,-6.0877,-6.639,-6.8046,-7.0239,-7.1873,-7.1303,-7.147,-7.1663,-7.1412,-7.1647,-7.2173,-7.3135,0.0,0.0,0.0,0.0,0.0,0.0,0.0,0.0,0.0,0.0,0.0,0.0,0.0,0.0,0.0,0.0,0.0,0.0,0.0,0.0,0.0,0.0,0.0,-7.6495,-7.6402,-7.6182,0.0,-7.5709,-7.5709,-7.5709,-7.5709,-7.6048,-7.669,-7.7604,-7.8314,-7.8923,-7.9837,-8.0209,-8.0209,-8.0209,-8.0209,-8.0209,-8.0209,-8.0648,-8.1393,0.0,0.0,0.0,0.0,0.0,0.0,0.0,0.0,0.0,0.0,0.0,0.0,0.0,0.0,0.0,0.0,0.0,0.0,0.0,0.0,0.0,0.0,-3.7577,-3.7577,-3.7577,-3.7721,-3.8438,-3.9733,-3.8741,-3.8958,-4.02,-4.017,-3.9686,-3.8938,-4.0536,-4.0778,-3.9946,-4.0374,-4.0791,-4.1139,-4.1796,-4.2061,-4.2016,-4.1509,-4.1112,-4.0611,-3.9952,0.0,0.0,0.0,0.0,0.0,0.0,0.0,-4.1587,-4.4767,-4.845,-5.2384,-5.6667,-6.1564,-6.6178,-6.9141,-7.1233,-7.2335,-7.1338,-7.1211,-7.1315,-7.1315,-7.1907,0.0,0.0,0.0,0.0,0.0,0.0,0.0,0.0,0.0,0.0,0.0,0.0,0.0,0.0,0.0,0.0,0.0,0.0,0.0,0.0,0.0,0.0,0.0,0.0,0.0,-7.6309,-7.6309,-7.6088,-7.5709,-7.5709,-7.5709,-7.5709,-7.5709,-7.6149,-7.6927,-7.7671,-7.8416,-7.916,-7.9904,-8.0209,-8.0209,-8.0209,-8.0209,-8.0209,-8.0209,-8.0648,-8.1393,0.0,0.0,0.0,0.0,0.0,0.0,0.0,0.0,0.0,0.0,0.0,0.0,0.0,0.0,0.0,0.0,0.0,0.0,0.0,0.0,0.0,0.0,0.0,0.0,0.0,0.0,0.0,-3.9085,-3.8115,-3.8654,-4.0673,-4.0123,-3.9893,-3.9917,-4.1497,-4.1888,-4.141,-4.1543,-4.1939,-4.2402,-4.2537,-4.2537,-4.2356,-4.1973,-4.1306,-4.0528,-4.0003,0.0,-3.9501,-3.9415,0.0,0.0,0.0,0.0,-4.1311,-4.5925,-4.8761,-5.1691,-5.8189,-6.2424,-6.6105,-7.059,-7.1873,-7.1867,-7.1157,-7.088,-7.0863,-7.0888,0.0,0.0,0.0,0.0,0.0,0.0,0.0,0.0,0.0,0.0,0.0,0.0,0.0,0.0,0.0,0.0,0.0,0.0,0.0,0.0,0.0,0.0,0.0,0.0,0.0,-7.6402,-7.6122,-7.6122,-7.6028,-7.5709,-7.5709,-7.5709,-7.5709,-7.5845,-7.6352,-7.713,-7.7739,-7.8483,-7.9363,-7.9938,-8.0209,-8.0209,-8.0209,-8.0209,-8.0209,-8.0209,-8.075,-8.1562,0.0,0.0,0.0,0.0,0.0,0.0,0.0,0.0,0.0,0.0,-3.7188,-3.6318,0.0,0.0,0.0,0.0,0.0,0.0,0.0,0.0,0.0,0.0,0.0,0.0,0.0,0.0,0.0,-3.9085,-3.8435,-3.9298,-4.1505,-4.041,-4.002,-4.0278,-4.1582,-4.1717,-4.0943,-4.176,-4.1959,-4.1684,-4.2108,-4.1987,-4.1595,-4.1128,-4.0823,-4.0577,-4.0368,-3.9952,-3.9554,-3.9817,-3.9644,0.0,0.0,0.0,0.0,-4.3448,-4.712,-5.089,-5.3778,-6.0078,-6.6776,-7.0733,-7.1482,-7.1122,-7.0723,0.0,-7.0158,0.0,0.0,0.0,0.0,0.0,0.0,0.0,0.0,0.0,0.0,0.0,0.0,0.0,0.0,0.0,0.0,0.0,0.0,0.0,0.0,0.0,0.0,0.0,-7.6495,-7.6495,-7.6495,0.0,-7.6122,-7.6122,-7.6028,-7.5709,-7.5709,-7.5709,-7.5709,-7.642,-7.713,-7.7841,-7.7942,-7.8754,-8.0073,-8.0175,-8.0209,-8.0209,-8.0209,-8.0209,-8.0209,-8.0209,-8.1088,-8.2272,0.0,0.0,0.0,0.0,0.0,0.0,0.0,0.0,0.0,0.0,0.0,-3.6774,0.0,0.0,0.0,0.0,0.0,0.0,0.0,0.0,0.0,0.0,0.0,0.0,0.0,0.0,-3.7646,-3.8473,-3.8721,-3.9623,-4.0999,-4.096,-4.1085,-4.1392,-4.1955,-4.1973,-4.1622,-4.2512,-4.2732,-4.2562,-4.3273,-4.4024,-4.4636,-4.3104,-4.3602,-4.4829,-4.3346,-4.2398,-4.1794,-4.1459,-4.0721,-3.9818,-3.9388,0.0,0.0,0.0,-4.559,-4.9641,-5.5206,-6.0909,-6.6421,-7.0626,-7.1232,-7.0828,-7.1101,-7.0357,-6.9738,0.0,0.0,0.0,0.0,0.0,0.0,0.0,0.0,0.0,0.0,0.0,0.0,0.0,0.0,0.0,0.0,0.0,0.0,0.0,0.0,0.0,0.0,-7.6088,-7.6088,-7.6088,-7.6216,0.0,-7.5899,-7.6028,-7.6028,-7.5709,-7.5709,-7.5709,-7.5743,-7.6521,-7.7299,-7.801,-7.845,-7.9228,-8.0209,-8.0209,-8.0209,-8.0209,-8.0209,-8.0209,-8.0242,-8.0648,-8.1494,-8.2475,0.0,0.0,0.0,0.0,0.0,0.0,0.0,0.0,0.0,0.0,0.0,0.0,0.0,0.0,0.0,0.0,0.0,0.0,0.0,0.0,0.0,0.0,0.0,0.0,0.0,-3.6678,-3.7214,-3.829,-3.9045,-4.0093,-4.1433,-4.1832,-4.2477,-4.3274,-4.288,-4.2517,-4.2251,-4.3251,-4.3536,-4.3422,-4.476,-4.6223,-4.7448,-4.6222,-4.735,-4.927,-4.6695,-4.5407,-4.4633,-4.3284,-4.1971,-4.0779,-3.9852,0.0,0.0,0.0,0.0,-4.8692,-5.5754,-6.0319,-6.4179,-6.907,-7.0021,-6.9998,0.0,0.0,0.0,0.0,0.0,0.0,0.0,0.0,0.0,0.0,0.0,0.0,0.0,0.0,0.0,0.0,0.0,0.0,0.0,0.0,0.0,0.0,0.0,0.0,-7.5709,-7.5709,-7.5709,-7.5709,-7.5899,-7.5899,-7.5709,-7.5899,-7.5899,-7.5709,-7.5709,-7.5709,-7.5743,-7.6724,-7.7468,-7.8044,-7.8788,-7.9532,-8.0209,-8.0209,-8.0209,-8.0209,-8.0209,-8.0209,-8.0276,-8.1021,-8.1765,-8.2509,0.0,0.0,0.0,0.0,0.0,0.0,0.0,0.0,0.0,0.0,0.0,0.0,-3.612,-3.5921,-3.5447,-3.4181,-3.4044,0.0,0.0,0.0,0.0,0.0,0.0,0.0,0.0,-3.6678,-3.7502,-3.912,-3.9298,-4.0963,-4.3896,-4.3172,-4.4077,-4.621,-4.4654,-4.3336,-4.2323,-4.3779,-4.4071,-4.3601,-4.6177,-4.7629,-4.8318,-5.0075,-5.1473,-5.2192,-4.9643,-4.8487,-4.7638,-4.5026,-4.3376,-4.217,-4.0779,-4.1309,-4.2469,0.0,0.0,0.0,-5.2572,-5.5723,-5.9254,-6.5082,-6.7143,-6.8154,0.0,0.0,0.0,0.0,0.0,0.0,0.0,0.0,0.0,0.0,0.0,0.0,0.0,0.0,0.0,0.0,0.0,0.0,0.0,0.0,0.0,0.0,0.0,0.0,-7.5709,-7.5709,-7.5709,-7.5709,-7.5709,-7.5709,-7.5709,-7.5709,-7.5709,-7.5709,-7.5709,-7.5709,-7.5743,-7.7232,-7.7942,-7.8044,-7.8788,-7.9532,-8.0209,-8.0209,-8.0209,-8.0209,-8.0209,-8.0209,-8.0276,-8.1021,-8.1765,-8.2509,0.0,0.0,0.0,0.0,0.0,0.0,0.0,0.0,0.0,0.0,0.0,0.0,0.0,-3.6911,-3.6431,-3.4932,-3.4829,0.0,0.0,0.0,0.0,0.0,0.0,0.0,0.0,-3.6139,-3.7284,-3.8399,-4.0094,-4.147,-4.2592,-4.3317,-4.4114,-4.4947,-4.4367,-4.3855,-4.348,-4.4157,-4.4634,-4.5142,-4.8176,-5.1052,-5.3575,-5.4051,-5.6109,-5.8322,-5.579,-5.3869,-5.2172,-5.0101,-4.7617,-4.4933,-4.298,-4.2745,-4.333,-4.3761,-4.5123,-4.7237,-5.1244,-5.4083,-5.7191,-6.2542,-6.4986,-6.6512,-6.8084,0.0,0.0,0.0,0.0,0.0,0.0,0.0,0.0,0.0,0.0,0.0,0.0,0.0,0.0,0.0,0.0,0.0,0.0,0.0,0.0,0.0,0.0,0.0,-7.5709,-7.5709,-7.5709,-7.5709,-7.5709,-7.5709,-7.5709,-7.5709,-7.5709,-7.5709,-7.5709,-7.598,-7.6487,-7.7536,-7.8247,-7.8754,-7.9498,-7.9972,-8.0209,-8.0209,-8.0209,-8.0209,-8.0209,-8.0209,-8.0344,-8.1562,-8.2171,-8.2644,0.0,0.0,0.0,0.0,0.0,0.0,0.0,0.0,-3.9082,-3.9082,0.0,0.0,0.0,0.0,-3.7394,-3.5854,-3.5398,-3.49,-3.4151,-3.4115,0.0,0.0,0.0,0.0,0.0,-3.5774,-3.7174,-3.8865,-4.0492,-4.1723,-4.2556,-4.3607,-4.4222,-4.4476,-4.4222,-4.3999,-4.3913,-4.4947,-4.5534,-4.6105,-5.0453,-5.3723,-5.6129,-5.7485,-5.9687,-6.1661,-5.942,-5.8034,-5.6944,-5.4965,-5.266,-5.0163,-4.6805,-4.4917,-4.4092,-4.4556,-4.5246,-4.6524,-4.9486,-5.2277,-5.5438,-5.9627,-6.2718,-6.5148,-6.6676,0.0,0.0,0.0,0.0,0.0,0.0,0.0,0.0,0.0,0.0,0.0,0.0,0.0,0.0,0.0,0.0,0.0,0.0,0.0,0.0,0.0,0.0,0.0,-7.5709,-7.5709,-7.5709,-7.5709,-7.5709,-7.5709,-7.5709,-7.5709,-7.5709,-7.5709,-7.5709,-7.6115,-7.6927,-7.7638,-7.8382,-7.916,-7.987,-8.0209,-8.0209,-8.0209,-8.0209,-8.0209,-8.0209,-8.0209,-8.0378,-8.1866,-8.2577,-8.3016,0.0,0.0,0.0,0.0,0.0,0.0,0.0,0.0,-3.9082,-3.9082,0.0,0.0,0.0,0.0,0.0,-3.7022,-3.5964,-3.5043,-3.4258,-3.4222,0.0,0.0,0.0,0.0,-3.5652,-3.576,-3.7311,-4.0492,-4.0528,-4.1759,-4.4077,-4.4077,-4.4512,-4.5236,-4.4476,-4.3876,-4.3565,-4.6116,-4.6719,-4.6472,-5.2998,-5.5365,-5.5595,-6.0267,-6.2114,-6.195,-6.0305,-6.0747,-6.1782,-5.9171,-5.8299,-5.7393,-5.1987,-4.7726,-4.4721,-4.4782,-4.5671,-4.6768,0.0,0.0,0.0,-5.6406,0.0,0.0,0.0,0.0,0.0,0.0,0.0,0.0,0.0,0.0,0.0,0.0,0.0,0.0,0.0,0.0,0.0,0.0,0.0,0.0,0.0,0.0,0.0,0.0,0.0,-7.5676,-7.5709,-7.5709,-7.5709,-7.5709,-7.5709,-7.5709,-7.5709,-7.5709,-7.5709,-7.5709,-7.5709,-7.6115,-7.6961,-7.7671,-7.8416,-7.9194,-7.9904,-8.0209,-8.0209,-8.0209,-8.0209,-8.0209,-8.0209,-8.0209,-8.0412,-8.1866,-8.2881,-8.3625,0.0,0.0,0.0,0.0,0.0,0.0,-3.9082,-3.9082,-3.9082,0.0,0.0,0.0,-3.9614,-3.9853,-3.9872,-3.9686,-3.9013,-3.8041,-3.672,-3.722,-3.6719,-3.482,-3.5352,-3.5634,-3.5555,-3.6739,-3.8072,-3.9553,-4.0782,-4.2013,-4.3244,-4.3824,-4.4222,-4.444,-4.4443,-4.4378,-4.4392,-4.6219,-4.7144,-4.7925,-5.3262,-5.6868,-5.9434,-6.1933,-6.4649,-6.7076,-6.5967,-6.5104,-6.4279,0.0,-6.0131,-5.6465,-5.1713,-4.8006,-4.5607,-4.5999,-4.6166,-4.6368,-4.7248,0.0,0.0,0.0,0.0,0.0,0.0,0.0,0.0,0.0,0.0,0.0,0.0,0.0,0.0,0.0,0.0,0.0,0.0,0.0,0.0,0.0,0.0,0.0,0.0,0.0,0.0,0.0,0.0,-7.5134,-7.5676,-7.5709,-7.5709,-7.5709,-7.5709,-7.5709,-7.5709,-7.5709,-7.5709,-7.5709,-7.5709,-7.6386,-7.7705,-7.7908,-7.8686,-7.9904,-8.0107,-8.0209,-8.0209,-8.0209,-8.0209,-8.0209,-8.0209,-8.0513,-8.1088,-8.2069,-8.2881,-8.3693,0.0,0.0,0.0,0.0,0.0,0.0,-3.9157,-3.9417,-3.9491,0.0,0.0,0.0,-3.9909,-4.0331,-4.0563,-4.0598,-4.02,-3.9473,-3.8221,-3.8689,-3.8259,-3.6568,-3.6638,-3.6705,-3.663,-3.7241,-3.8142,-3.9263,-4.0565,-4.1615,-4.2411,-4.357,-4.3932,-4.3643,-4.4283,-4.4749,-4.5213,-4.75,-4.8555,-4.9115,-5.4597,-5.8179,-6.0593,-6.32,-6.5663,0.0,0.0,0.0,-6.6837,-6.651,-6.3199,-5.8616,-5.5046,-5.1401,-4.8281,-4.7428,-4.7014,-4.6986,-4.7898,-4.8862,-5.0317,-5.2881,0.0,0.0,0.0,-6.3496,0.0,0.0,0.0,0.0,0.0,0.0,0.0,0.0,0.0,0.0,0.0,0.0,0.0,0.0,0.0,0.0,0.0,0.0,0.0,0.0,-7.4255,-7.4931,-7.5676,-7.5709,-7.5709,-7.5709,-7.5709,-7.5709,-7.5709,-7.5709,-7.5709,-7.5709,-7.5709,-7.6487,-7.7976,-7.7976,-7.8788,-8.0209,-8.0209,-8.0209,-8.0209,-8.0209,-8.0378,-8.0648,-8.0648,-8.1088,-8.1832,-8.2577,-8.3321,-8.4099,0.0,0.0,0.0,0.0,0.0,0.0,-3.9491,-4.0048,-4.0271,0.0,-3.9454,-3.9703,-4.0136,-4.072,-4.0922,-4.06,-4.045,-4.0014,-3.9263,-3.9409,-3.9121,-3.829,-3.7675,-3.7636,-3.8319,-3.7631,-3.7957,-3.9405,-4.013,-4.0926,-4.1759,-4.3244,-4.357,-4.2955,-4.4026,-4.5035,-4.615,-4.9305,-5.0555,-5.0904,-5.6706,-5.9418,0.0,0.0,-6.6025,-6.646,-6.7112,-6.815,-6.9363,-6.9497,-6.6524,0.0,-6.0035,-5.6374,-5.2356,-4.9308,-4.8495,-4.8618,-4.8868,-4.9548,-5.054,-5.2002,0.0,0.0,-6.0254,-6.2048,0.0,0.0,0.0,0.0,0.0,0.0,0.0,0.0,0.0,0.0,0.0,0.0,0.0,0.0,0.0,0.0,0.0,0.0,0.0,-7.2259,-7.3713,-7.4897,-7.554,-7.5676,-7.5709,-7.5709,-7.5709,-7.5709,-7.5709,-7.5709,-7.5709,-7.5709,-7.5777,-7.6589,-7.7976,-7.8077,-7.8855,-8.0209,-8.0209,-8.0209,-8.0209,-8.0209,-8.0581,-8.1156,-8.1156,-8.1663,-8.2475,-8.3152,-8.3896,-8.464,0.0,0.0,0.0,0.0,0.0,0.0,0.0,-4.1237,-4.1311,-4.1126,-4.1683,-4.2038,-4.1936,-4.2404,-4.2668,-4.2411,-4.2142,-4.1701,-4.0953,-4.1643,-4.143,-3.9987,-4.0456,-4.0239,-3.9188,-3.9007,-3.9079,-3.9405,-4.013,-4.0926,-4.1686,-4.2665,-4.3027,-4.2955,-4.4103,-4.5609,-4.7457,-4.9663,-5.296,-5.6891,-5.9501,-6.1358,-6.2802,-6.5518,-6.8561,-7.1241,-7.077,-7.1205,-7.1512,-6.8877,-6.6381,-6.389,0.0,0.0,0.0,-5.3112,-5.2219,-5.1997,-5.0041,-4.9333,-4.9758,-5.2494,0.0,0.0,-5.8012,-5.9254,-6.0254,0.0,0.0,0.0,0.0,0.0,0.0,0.0,0.0,0.0,0.0,0.0,0.0,0.0,0.0,0.0,0.0,0.0,-7.1104,-7.1481,-7.3443,-7.4661,-7.483,-7.5371,-7.5709,-7.5709,-7.5709,-7.5709,-7.5709,-7.5709,-7.5709,-7.5709,-7.6352,-7.713,-7.801,-7.8619,-7.9363,-8.0209,-8.0209,-8.0209,-8.0209,-8.0209,-8.0276,-8.0412,-8.0412,-8.1224,-8.2441,-8.2577,-8.349,-8.464,0.0,-3.8478,0.0,0.0,0.0,0.0,0.0,-4.1943,-4.2054,-4.1646,-4.2649,-4.3478,-4.3726,-4.4195,-4.4418,-4.4233,-4.4321,-4.4088,-4.3336,-4.414,-4.3927,-4.23,-4.2265,-4.1759,-4.0564,-4.0166,-3.9948,-3.9948,-4.0745,-4.1288,-4.1759,-4.2918,-4.4152,-4.5388,-4.5222,-4.7024,-5.0242,-5.0996,-5.3833,-5.8058,-6.0483,0.0,-6.5844,-6.8235,-7.0625,-7.2726,-7.2726,-7.285,-7.2762,-7.0913,-6.8904,0.0,-6.3886,-6.2204,-6.048,0.0,-5.4545,-5.3509,0.0,0.0,0.0,-5.1218,0.0,0.0,0.0,-5.6771,0.0,0.0,0.0,0.0,0.0,0.0,0.0,0.0,0.0,0.0,0.0,0.0,0.0,0.0,0.0,0.0,0.0,0.0,-7.0588,-7.1244,-7.3003,-7.4221,-7.4593,-7.5303,-7.5709,-7.5709,-7.5709,-7.5709,-7.5709,-7.5709,-7.5709,-7.5709,-7.6521,-7.7299,-7.801,-7.8754,-7.9498,-8.0209,-8.0209,-8.0209,-8.0209,-8.0209,-8.0412,-8.0784,-8.1156,-8.2205,-8.3524,-8.3524,-8.3998,-8.464,-3.7599,-3.8568,0.0,0.0,0.0,0.0,0.0,0.0,-4.2872,-4.2389,-4.3869,-4.5207,-4.5778,-4.6428,-4.6838,-4.6728,-4.7083,-4.6957,-4.6114,-4.6739,-4.6481,-4.5091,-4.3969,-4.3063,-4.2411,-4.1325,-4.0673,-4.0528,0.0,-4.1723,-4.1759,-4.3172,-4.5062,-4.7175,-4.6931,-4.8992,-5.2717,-5.3294,0.0,-5.9072,0.0,-6.4975,-6.8307,-7.0951,-7.2472,-7.3269,-7.4066,-7.4127,-7.3787,-7.347,-7.1899,-6.959,-6.7336,-6.5734,0.0,0.0,0.0,0.0,0.0,0.0,0.0,0.0,0.0,-5.1839,0.0,0.0,0.0,0.0,0.0,0.0,0.0,0.0,0.0,0.0,0.0,0.0,0.0,0.0,0.0,0.0,0.0,0.0,0.0,0.0,-7.0804,-7.1278,-7.2935,-7.4052,-7.439,-7.51,-7.554,-7.5709,-7.5709,-7.5709,-7.5709,-7.5709,-7.5709,-7.5709,-7.6657,-7.7401,-7.801,-7.8923,-7.9634,-8.0209,-8.0209,-8.0209,-8.0209,-8.0344,-8.0851,-8.1562,-8.2002,-8.3118,-8.4403,-8.4403,-8.4505,-8.464,-3.845,-3.8839,-3.9658,0.0,0.0,0.0,0.0,0.0,-4.4098,-4.4804,-4.7047,-4.8572,-4.8373,-4.9955,-5.0953,-5.0743,-5.0852,-5.0413,-4.9269,-4.9306,-4.9035,-4.8351,-4.6214,-4.4983,-4.4874,-4.2737,-4.1216,-4.0528,0.0,0.0,0.0,-4.2629,-4.3534,-4.4732,-4.8944,-5.1447,-5.277,-5.7102,-6.1118,0.0,-6.5808,-6.6967,0.0,-7.2219,-7.4138,-7.4935,-7.5732,-7.5855,-7.5438,0.0,-7.3508,-7.2013,0.0,-6.9269,-6.8449,-6.2061,0.0,0.0,0.0,0.0,0.0,0.0,-5.3046,0.0,0.0,0.0,0.0,0.0,0.0,0.0,0.0,0.0,0.0,0.0,0.0,0.0,0.0,0.0,0.0,0.0,0.0,0.0,0.0,0.0,0.0,-7.1345,-7.3883,-7.4897,-7.368,-7.4322,-7.5033,-7.5676,-7.5709,-7.5709,-7.5709,-7.5709,-7.5709,-7.5709,-7.7164,-7.7908,-7.8044,-7.9431,-8.0107,-8.0209,-8.0209,-8.0209,-8.0242,-8.0885,-8.1596,-8.2238,-8.1629,-8.2306,-8.3625,-8.3625,-8.4065,-8.464,-3.8719,-3.8852,-3.964,-4.1311,0.0,0.0,0.0,0.0,-4.543,-4.7308,-4.8525,-4.9599,-5.0665,-5.1724,-5.2619,-5.3136,-5.3899,-5.3833,-5.2557,-5.2481,-5.161,-4.9699,-4.7735,-4.6468,-4.5997,-4.4077,-4.2918,-4.2592,-4.2448,0.0,0.0,0.0,0.0,-4.7134,-5.0162,-5.3172,-5.62,0.0,-6.2382,0.0,0.0,0.0,0.0,-7.3812,-7.5116,-7.5841,-7.6032,-7.5971,-7.5762,0.0,-7.4369,0.0,0.0,0.0,0.0,0.0,0.0,0.0,0.0,0.0,0.0,0.0,0.0,0.0,-5.4184,0.0,-5.2908,0.0,0.0,0.0,0.0,0.0,0.0,0.0,0.0,0.0,0.0,0.0,0.0,0.0,0.0,0.0,0.0,0.0,0.0,0.0,0.0,-7.4322,-7.4153,-7.4424,-7.4931,-7.5676,-7.5709,-7.5709,-7.5709,-7.5709,-7.5709,-7.5709,-7.7232,-7.7976,-7.8044,-7.9532,-8.0209,-8.0209,-8.0209,-8.0445,-8.0851,-8.1156,-8.1968,-8.3016,-8.2678,-8.3219,-8.4167,-8.4167,-8.4336,-8.464,-3.906,-3.9076,-3.9751,-4.1341,0.0,0.0,0.0,-4.5281,-4.6792,-4.8931,-5.0263,-5.17,-5.339,-5.4538,-5.563,-5.662,-5.7623,-5.7603,0.0,-5.5909,-5.4847,-5.292,-5.0162,-4.8581,-4.8389,-4.6009,-4.4657,-4.444,0.0,0.0,0.0,0.0,0.0,0.0,0.0,-5.4672,-5.8442,0.0,-6.3805,-6.7945,-6.9353,-7.1759,-7.4645,-7.5225,-7.5804,-7.6275,-7.6072,-7.5901,-7.5798,-7.5585,-7.4691,0.0,-7.369,0.0,0.0,0.0,0.0,0.0,-6.1467,0.0,0.0,0.0,0.0,0.0,0.0,0.0,0.0,0.0,0.0,0.0,0.0,0.0,0.0,-5.4672,0.0,0.0,0.0,0.0,0.0,0.0,0.0,0.0,0.0,0.0,0.0,0.0,-7.2834,0.0,-7.4018,-7.439,-7.4864,-7.5371,-7.5574,-7.5709,-7.5709,-7.5709,-7.5709,-7.5709,-7.7232,-7.7976,-7.8044,-7.9532,-8.0209,-8.0209,-8.0209,-8.0513,-8.1021,-8.1426,-8.2238,-8.3253,-8.3659,-8.4133,-8.464,-8.464,-8.464,-8.464,-3.9759,-3.9595,-3.9926,-4.137,-4.1609,0.0,0.0,-4.6786,-4.8221,-4.908,-5.2973,-5.6031,-5.6932,-5.9495,-6.1438,-6.2275,-6.2582,-6.214,-6.077,-5.9478,-5.9061,-5.9734,-5.4252,-5.1777,-5.3071,-4.8685,-4.6033,0.0,0.0,0.0,0.0,0.0,0.0,0.0,-5.2799,-5.5946,-5.7837,-6.2476,-6.6801,-7.0544,-7.1195,-7.3378,-7.6203,0.0,-7.6275,-7.6275,-7.6072,0.0,0.0,-7.5585,-7.4297,0.0,0.0,0.0,0.0,0.0,0.0,0.0,0.0,0.0,0.0,-6.1116,0.0,0.0,0.0,0.0,-5.446,0.0,0.0,0.0,0.0,-5.2372,-5.2379,-4.933,-5.1234,0.0,0.0,0.0,0.0,0.0,0.0,0.0,0.0,0.0,0.0,0.0,-7.4289,0.0,-7.2631,-7.3815,-7.4627,-7.4661,-7.5337,-7.5709,-7.5709,-7.5709,-7.5709,-7.5709,-7.7232,-7.7976,-7.8044,-7.9532,-8.0209,-8.0209,-8.0209,-8.0209,-8.0344,-8.1799,-8.2408,-8.2577,-8.4031,-8.4606,-8.464,-8.464,-8.464,-8.464,-4.0691,-4.0462,-4.0562,-4.1444,-4.2054,-4.3237,0.0,-4.7703,0.0,0.0,-5.5389,0.0,0.0,-6.207,-6.3638,0.0,0.0,-6.5003,-6.4285,-6.2485,-6.1614,-6.1796,-5.6742,-5.4305,-5.5003,-5.0566,-4.7824,0.0,0.0,0.0,0.0,0.0,0.0,0.0,0.0,-5.7084,0.0,0.0,0.0,0.0,0.0,-7.5659,-7.7072,0.0,0.0,-7.6867,-7.6658,-7.6517,0.0,-7.5513,-7.4905,-7.4404,-7.4404,-7.3298,-7.1907,-7.1268,-6.974,0.0,0.0,0.0,-6.4841,-6.3807,0.0,0.0,0.0,0.0,0.0,0.0,0.0,0.0,0.0,-5.2826,-5.2626,-5.096,-5.1452,-5.2013,0.0,0.0,0.0,0.0,0.0,0.0,0.0,0.0,0.0,-7.0094,-7.2496,-7.368,0.0,-7.4052,-7.4627,-7.4627,-7.4864,-7.5202,-7.5709,-7.5236,-7.5236,-7.5709,-7.7232,-7.7976,-7.8044,-7.9532,-8.0209,-8.0209,-8.0209,-8.075,-8.1697,-8.2205,-8.2983,-8.393,-8.4437,-8.464,-8.464,-8.464,-8.464,-8.464,-4.1585,-4.1556,-4.1675,-4.1965,-4.2946,0.0,0.0,0.0,0.0,0.0,-5.7826,0.0,-6.2758,0.0,-6.5273,0.0,-6.6885,-6.7202,-6.7493,-6.5237,0.0,-6.5389,-6.065,-5.8424,-5.9474,-5.4552,-5.1559,-5.0717,0.0,-4.7814,0.0,0.0,0.0,0.0,0.0,-5.7615,-6.2259,-6.4436,-6.9189,0.0,0.0,-7.6782,0.0,0.0,-7.7369,0.0,0.0,-7.6374,-7.6159,-7.544,-7.501,-7.4796,-7.4796,-7.3869,-7.2798,-7.2868,-7.1226,-6.927,-6.8518,-6.7683,0.0,0.0,-6.5842,0.0,-6.4083,0.0,0.0,0.0,0.0,0.0,0.0,0.0,-5.2975,-5.2706,-5.1736,-5.1376,0.0,-5.3246,0.0,0.0,0.0,0.0,0.0,0.0,-6.776,-7.0026,-7.1785,-7.2868,0.0,0.0,-7.4627,-7.4627,-7.4864,-7.5236,-7.5709,-7.5236,-7.5236,-7.5709,-7.7232,-7.7976,-7.8044,-7.9532,-8.0209,-8.0209,-8.0209,-8.0885,-8.2035,-8.2306,-8.3118,-8.4234,-8.4505,-8.464,-8.464,-8.464,-8.464,-8.464,0.0,-4.2875,-4.325,0.0,-4.4321,0.0,0.0,0.0,-5.4676,0.0,-6.0339,-6.3113,-6.5498,-6.587,-6.6835,-6.9098,-6.8591,-6.8814,-7.0419,-6.7759,0.0,0.0,-6.5691,-6.3952,-6.6023,0.0,-5.6862,-5.5854,0.0,0.0,0.0,0.0,0.0,0.0,-5.3566,0.0,-6.2476,-6.5467,-7.0132,-7.5451,-7.6088,-7.6818,-7.7507,-7.7507,0.0,-7.7052,-7.6192,-7.5692,-7.555,-7.5297,-7.4689,-7.4083,-7.4083,-7.3512,-7.3012,-7.3725,-7.2823,-7.1587,-7.1658,-6.9436,-6.7152,-6.7118,0.0,0.0,0.0,0.0,-6.3082,0.0,0.0,0.0,0.0,0.0,-5.3396,-5.4141,-5.1979,-5.0744,-5.2164,0.0,0.0,0.0,0.0,0.0,0.0,-6.4918,-6.759,-6.9958,-7.2157,-7.3105,0.0,0.0,0.0,-7.4627,-7.5236,-7.5642,-7.5709,-7.5676,-7.5676,-7.5709,-7.7232,-7.7976,-7.8044,-7.9532,-8.0209,-8.0209,-8.0209,-8.0648,-8.1393,-8.2103,-8.2881,-8.3625,-8.4336,-8.464,-8.464,-8.464,-8.464,-8.464,-4.3208,-4.4045,-4.4935,0.0,-4.6531,-4.7703,0.0,0.0,0.0,0.0,-6.345,-6.6852,-6.9378,-7.0131,-7.0844,-7.1909,-7.1833,0.0,0.0,0.0,0.0,-7.2291,-6.8679,-6.6783,-6.7007,-6.1836,-5.8354,-5.6784,0.0,0.0,-5.19,0.0,0.0,0.0,0.0,0.0,-6.3909,-6.5301,-6.9466,-7.5291,-7.6637,-7.7326,0.0,0.0,-7.7264,-7.6947,-7.6661,-7.641,-7.6083,-7.5403,-7.5082,-7.4903,-7.4903,-7.4368,-7.3654,-7.3576,-7.2599,-7.1511,-7.1237,-7.0347,-6.9394,-6.8842,-6.8808,-6.8532,0.0,0.0,0.0,0.0,0.0,0.0,0.0,0.0,0.0,-5.4805,-5.3415,-5.2773,-5.3145,0.0,0.0,0.0,0.0,0.0,0.0,-6.2753,-6.5155,-6.9079,-7.0939,0.0,0.0,0.0,0.0,-7.4627,-7.4255,-7.4593,-7.5676,-7.5168,-7.5168,-7.5709,-7.7232,-7.7976,-7.8044,-7.9532,-8.0209,-8.0209,-8.0209,-8.0919,-8.2137,-8.234,-8.3186,-8.437,-8.4539,-8.464,-8.464,-8.464,-8.464,-8.464,-4.5887,0.0,0.0,-4.7979,0.0,0.0,-5.1654,-5.5949,0.0,-6.313,-6.6322,0.0,-7.175,-7.203,-7.2447,-7.3433,-7.3208,0.0,-7.4049,0.0,0.0,-7.4545,-7.1787,-7.0573,-7.1439,-6.6672,0.0,-6.1251,0.0,0.0,-5.3116,0.0,0.0,0.0,0.0,-5.9998,-6.512,-6.8017,-7.1712,-7.5696,-7.6601,0.0,0.0,-7.704,-7.7122,-7.738,-7.6985,-7.666,-7.6367,-7.6259,-7.6224,-7.6224,-7.6224,-7.5505,-7.4645,-7.4102,-7.2695,-7.121,-7.0663,-6.9956,-6.9291,-6.8877,-6.9084,-6.9049,-6.7773,-6.7221,-6.6807,0.0,0.0,0.0,0.0,0.0,0.0,-5.6904,-5.5649,-5.4938,0.0,0.0,0.0,0.0,0.0,0.0,0.0,0.0,0.0,0.0,0.0,0.0,0.0,0.0,0.0,0.0,-7.4356,-7.4525,-7.5676,-7.5303,-7.5303,-7.5709,-7.7232,-7.7976,-7.8044,-7.9532,-8.0209,-8.0209,-8.0209,-8.1054,-8.2408,-8.2408,-8.3287,-8.464,-8.464,-8.464,-8.464,-8.464,-8.464,-8.464,0.0,0.0,0.0,0.0,0.0,0.0,0.0,-5.9397,0.0,-6.6781,0.0,-7.0837,-7.3149,-7.2736,-7.2847,-7.4274,0.0,-7.3934,-7.5386,-7.4125,-7.4354,-7.6609,-7.4622,-7.4469,-7.6647,-7.2432,-6.9133,0.0,0.0,0.0,0.0,0.0,0.0,0.0,0.0,0.0,0.0,-7.1893,-7.4935,0.0,-7.642,-7.6818,-7.7221,-7.6578,-7.6982,-7.7847,-7.7235,-7.6764,-7.6652,-7.7294,-7.7508,-7.7508,-7.7508,-7.6636,-7.5549,-7.4835,-7.3062,-7.1141,-7.048,-6.9505,-6.8635,-6.8428,-6.8394,-6.8359,-6.8152,-6.7601,-6.7497,-6.8842,-6.7014,0.0,0.0,0.0,0.0,-5.996,0.0,0.0,0.0,0.0,0.0,0.0,0.0,0.0,0.0,0.0,0.0,0.0,0.0,0.0,0.0,0.0,0.0,0.0,-7.4999,0.0,-7.5676,0.0,-7.5709,-7.5709,-7.7232,-7.7976,-7.8044,-7.9532,-8.0209,-8.0209,-8.031,-8.1122,-8.2408,-8.2509,-8.3389,-8.464,-8.464,-8.464,-8.464,-8.464,-8.464,-8.464,0.0,0.0,0.0,0.0,0.0,-5.9939,-6.218,-6.4762,-6.6979,-6.839,-7.0522,-7.2616,-7.4408,-7.4158,-7.4231,-7.5195,-7.5119,0.0,0.0,0.0,0.0,-7.6647,-7.6265,-7.6265,-7.6685,-7.3573,-7.0833,0.0,0.0,0.0,0.0,0.0,0.0,0.0,0.0,0.0,-7.0661,-7.3631,0.0,-7.6348,-7.7,-7.6895,-7.6433,-7.7519,-7.7559,-7.7091,-7.8201,-7.8016,-7.733,-7.7473,-7.7508,-7.7508,-7.7508,-7.6636,-7.5613,-7.516,-7.4017,-7.28,-7.2334,-7.2064,-7.1567,-7.0291,-6.998,-6.9635,-6.8394,-6.8014,-6.798,-6.8256,-6.7876,-6.7384,-6.7192,0.0,0.0,0.0,0.0,0.0,0.0,0.0,0.0,0.0,0.0,0.0,0.0,0.0,0.0,0.0,0.0,0.0,0.0,0.0,0.0,0.0,0.0,0.0,0.0,0.0,0.0,-7.5709,-7.7232,-7.7976,-7.8044,-7.9532,-8.0209,-8.0242,-8.0818,-8.1596,-8.2475,-8.305,-8.3828,-8.464,-8.464,-8.464,-8.464,-8.464,-8.464,-8.464,0.0,0.0,0.0,0.0,0.0,0.0,0.0,-6.9433,0.0,-7.0813,-7.2345,-7.396,-7.5154,-7.5072,-7.5042,-7.5462,-7.5501,-7.5501,-7.5501,-7.5501,-7.6036,-7.7335,-7.6953,-7.7105,-7.8022,-7.6235,-7.3913,-7.0968,0.0,0.0,0.0,0.0,0.0,0.0,0.0,-6.9245,0.0,0.0,0.0,-7.6311,-7.671,-7.6823,-7.6863,-7.7413,-7.7775,-7.8133,-7.8663,-7.8798,-7.8757,-7.8757,-7.8757,-7.8686,-7.8258,-7.7163,-7.5838,-7.4827,-7.3461,-7.223,-7.1684,-7.1498,-7.1325,-7.0567,-7.0394,-7.0187,-6.9463,-6.898,-6.8704,-6.8704,-6.8394,-6.8039,-6.7914,-6.709,0.0,0.0,0.0,0.0,0.0,0.0,0.0,0.0,0.0,0.0,0.0,0.0,0.0,0.0,0.0,0.0,0.0,0.0,0.0,0.0,0.0,0.0,0.0,0.0,0.0,-7.5168,-7.7063,-7.7976,-7.8044,-7.9532,-8.0209,-8.0242,-8.0953,-8.1731,-8.2509,-8.3625,-8.4302,-8.464,-8.464,-8.464,-8.464,-8.464,-8.464,-8.464,0.0,-5.6816,0.0,0.0,-6.4656,0.0,-7.0176,-7.2896,-7.4327,-7.3315,-7.3997,-7.4851,-7.5505,-7.5545,-7.5424,-7.5233,-7.5386,-7.5501,-7.5501,-7.5501,-7.6227,-7.7946,-7.7335,-7.7793,-7.9513,-7.871,-7.6769,0.0,0.0,0.0,0.0,0.0,0.0,0.0,0.0,0.0,0.0,0.0,-7.5152,-7.6275,-7.6275,-7.6714,-7.7369,-7.7199,-7.799,-7.9174,-7.9053,-7.9364,-7.9864,-7.9721,-7.965,-7.9543,-7.8823,-7.739,-7.5765,-7.4492,-7.2986,-7.1636,-7.105,-7.0877,-7.0843,-7.067,-7.0636,-7.0567,-7.0429,-6.9946,-6.9497,-6.9497,-6.8911,-6.8452,-6.8876,-6.8713,0.0,0.0,0.0,0.0,0.0,0.0,0.0,0.0,0.0,0.0,0.0,0.0,0.0,0.0,0.0,0.0,-7.2935,-7.2935,0.0,0.0,0.0,0.0,-7.4627,0.0,-7.5337,0.0,-7.6893,-7.7976,-7.8044,-7.9532,-8.0209,-8.0242,-8.1156,-8.2035,-8.2983,-8.4133,-8.464,-8.464,-8.464,-8.464,-8.464,-8.464,-8.464,-8.464,0.0,0.0,0.0,0.0,0.0,0.0,0.0,-7.4247,-7.5546,-7.5417,-7.5081,-7.492,-7.5059,-7.5319,-7.5157,-7.4393,-7.5042,-7.5501,-7.5501,-7.5501,-7.6227,-7.7946,-7.7908,-7.8672,-8.0353,-7.9589,-7.8409,0.0,0.0,0.0,0.0,0.0,0.0,0.0,0.0,0.0,0.0,-7.5768,-7.6167,-7.6275,-7.6275,-7.6541,-7.6984,-7.7739,-7.8311,-7.8869,-7.9543,-7.9864,-7.9792,-7.9043,-7.8793,-7.8716,-7.8299,-7.6799,-7.5088,-7.4578,-7.3573,-7.2567,-7.2464,-7.2464,-7.2291,-7.1567,-7.1394,-7.1222,-7.0532,-7.0325,-7.0291,-7.0291,-6.9704,-6.9187,-6.9256,-6.867,-6.8234,0.0,0.0,0.0,0.0,0.0,0.0,-7.034,0.0,0.0,0.0,0.0,0.0,0.0,0.0,-7.0567,-7.1481,-7.3341,0.0,-7.5676,0.0,-7.5202,-7.4627,-7.5337,0.0,-7.4661,-7.6893,-7.7976,-7.8044,-7.9532,-8.0209,-8.0276,-8.1697,-8.3118,-8.4437,-8.4573,-8.464,-8.464,-8.464,-8.464,-8.464,-8.464,-8.464,-8.464,0.0,0.0,0.0,0.0,0.0,0.0,0.0,-7.5612,-7.6235,-7.5571,-7.5178,-7.5113,-7.5478,-7.5034,-7.4966,-7.5653,-7.6036,-7.6418,-7.6953,-7.6991,-7.7526,-7.871,-7.8787,-7.9321,-8.0468,-8.0162,-7.9205,0.0,0.0,0.0,0.0,0.0,0.0,0.0,0.0,-7.5146,-7.5841,-7.6167,-7.6275,-7.6348,-7.6818,-7.7333,-7.7883,-7.853,-7.9174,-7.9553,-7.9298,-7.9186,-7.9043,-7.8258,-7.8294,-7.8431,-7.7086,-7.5987,-7.4913,-7.4089,-7.3559,-7.3326,-7.3326,-7.3671,-7.3843,-7.305,-7.2877,-7.2671,-7.1946,-7.1394,-7.105,-7.105,-7.0463,-7.0084,-7.0532,-7.0657,-7.0609,0.0,0.0,0.0,0.0,0.0,0.0,0.0,0.0,-6.8743,0.0,0.0,0.0,0.0,0.0,0.0,0.0,-7.395,0.0,-7.6995,0.0,-7.4897,-7.4627,-7.5337,-7.5337,-7.4661,-7.6893,-7.8213,-7.8686,-7.9735,-8.0682,-8.1562,-8.2137,-8.3253,-8.464,-8.464,-8.464,-8.464,-8.464,-8.464,-8.464,-8.464,-8.464,-8.464,-6.8442,0.0,-7.118,0.0,-7.3678,-7.4787,-7.5521,-7.6118,-7.6193,-7.5312,-7.5034,-7.5028,-7.5466,-7.5168,-7.5424,-7.6609,-7.6914,-7.7335,-7.7946,-7.8022,-7.8404,-7.9245,-7.9513,0.0,-8.0506,-8.0735,-8.0002,-7.8304,-7.8027,0.0,0.0,0.0,0.0,0.0,-7.5676,-7.5901,-7.6275,-7.6275,-7.642,-7.671,-7.7185,-7.7914,-7.8675,-7.9106,-7.9601,-7.9947,-7.9048,-7.8686,-7.8543,-7.7508,-7.7611,-7.7921,-7.6321,-7.5433,-7.4787,-7.3982,-7.396,-7.4119,-7.4119,-7.4499,-7.4809,-7.4257,-7.4119,-7.3981,-7.3464,-7.2912,-7.2429,-7.2222,-7.1567,-7.1153,-7.1429,-7.1607,-7.1626,0.0,0.0,0.0,0.0,0.0,0.0,0.0,-7.0072,-6.9952,-7.0648,0.0,0.0,0.0,0.0,0.0,0.0,0.0,0.0,0.0,0.0,0.0,0.0,0.0,-7.5134,-7.4661,-7.6893,-7.8382,-7.9126,-7.987,-8.1021,-8.2408,-8.2408,-8.3253,-8.464,-8.464,-8.464,-8.464,-8.464,-8.464,-8.464,-8.464,-8.464,-8.464,-7.1274,-7.2112,-7.3239,-7.5038,-7.5487,-7.5599,-7.5702,-7.5478,-7.5235,-7.495,-7.4745,-7.4591,-7.4591,-7.5819,-7.6685,-7.6685,-7.7487,-7.7984,-7.8022,-7.8022,-7.8404,0.0,0.0,-8.0506,-8.0506,-8.1347,-8.1115,-7.9708,0.0,0.0,-6.9571,0.0,0.0,-7.6578,-7.6378,-7.6275,-7.6275,-7.6275,-7.6746,-7.747,-7.7264,-7.8027,-7.9285,-7.9099,-7.9374,-7.9792,-7.8972,-7.8686,-7.8472,-7.6937,-7.66,-7.6851,-7.6383,-7.537,-7.4504,-7.4757,-7.4912,-7.4912,-7.4912,-7.4912,-7.4947,-7.4912,-7.4912,-7.4912,-7.4912,-7.4912,-7.4671,-7.3912,-7.3188,-7.2429,-7.1636,-7.0912,-7.0588,-7.1095,0.0,0.0,0.0,0.0,0.0,0.0,-7.3254,-7.2722,-7.3776,0.0,0.0,0.0,0.0,0.0,0.0,0.0,0.0,-7.5743,-7.5709,0.0,-7.351,-7.4255,-7.4627,-7.4661,-7.6893,-7.8382,-7.9126,-7.987,-8.1021,-8.2408,-8.2408,-8.3253,-8.464,-8.464,-8.464,-8.464,-8.464,-8.464,-8.464,-8.464,-8.464,-8.464,-7.4013,-7.4887,-7.5391,-7.551,-7.5556,-7.5404,-7.4883,-7.5089,-7.5216,-7.495,-7.5721,-7.6463,-7.6892,-7.6794,-7.7182,0.0,-7.871,-7.913,0.0,-8.0277,-8.0697,-8.1003,-8.1767,-8.2187,-8.2187,-8.2455,-8.2019,-8.0865,0.0,0.0,0.0,-7.5128,-7.5826,-7.7539,-7.6832,-7.6445,-7.6311,-7.6891,-7.7253,-7.7579,-7.8492,-7.8999,-7.9321,-7.9064,-7.8981,-7.89,-7.758,-7.7116,-7.7045,-7.6245,-7.5826,-7.574,-7.6384,-7.5924,-7.5234,-7.493,-7.5326,-7.574,-7.574,-7.612,-7.6361,-7.5878,-7.574,-7.5602,-7.505,-7.4947,-7.4843,-7.4602,-7.4361,-7.4119,-7.3878,-7.3636,-7.3395,-7.3034,0.0,0.0,0.0,0.0,0.0,0.0,-7.1362,-7.1355,0.0,-7.2225,0.0,0.0,0.0,0.0,0.0,0.0,0.0,0.0,-7.5743,0.0,-7.4999,-7.4728,-7.5134,-7.6183,-7.7401,-7.8653,-7.987,-8.0615,-8.146,-8.2441,-8.2949,-8.3727,-8.464,-8.464,-8.464,-8.464,-8.464,-8.464,-8.464,-8.464,-8.464,-8.464,-7.5322,-7.6203,-7.6454,-7.575,-7.591,-7.5742,-7.4572,-7.5105,-7.5583,-7.5392,-7.6601,-7.7692,-7.8402,-7.8252,0.0,-7.9665,-7.9742,-7.9971,-8.0468,-8.1308,-8.1805,-8.1805,-8.2875,-8.3181,-8.2569,0.0,0.0,-8.0763,-7.9841,-7.8964,-7.8112,-7.776,-7.7531,-7.7531,-7.6796,-7.6627,-7.6782,-7.7289,-7.7764,-7.8345,-7.9144,-7.9575,-7.9569,-7.9096,-7.8838,-7.8472,-7.6937,-7.6506,-7.6458,-7.5909,-7.5724,-7.5825,-7.6431,-7.6469,-7.6158,-7.5862,-7.6154,-7.6533,-7.6533,-7.6878,-7.712,-7.6637,-7.6533,-7.6395,-7.5913,-7.5775,-7.5706,-7.543,-7.5361,-7.5292,-7.4981,-7.4947,-7.4688,-7.4205,0.0,-7.3189,0.0,0.0,0.0,0.0,0.0,0.0,0.0,-7.2969,0.0,0.0,0.0,0.0,0.0,0.0,0.0,-7.669,-7.5337,0.0,-7.4864,-7.4424,-7.51,-7.6927,-7.8213,-7.9295,-8.0209,-8.0953,-8.1697,-8.2441,-8.3186,-8.3761,-8.4234,-8.4505,-8.4471,-8.4234,-8.4505,-8.464,-8.464,-8.464,-8.464,-8.464,-7.5549,-7.6265,0.0,0.0,-7.63,0.0,-7.4689,-7.5468,-7.6219,-7.635,-7.7354,-7.8404,-7.9283,-8.0047,-8.0506,-8.0506,0.0,0.0,0.0,-8.1385,-8.1881,-8.1881,-8.3448,0.0,-8.1996,-8.2646,-8.1954,-7.974,-7.8738,-7.7937,-7.7414,-7.7002,-7.6911,-7.6984,-7.6518,-7.6818,-7.7579,-7.7651,-7.8382,-7.9612,-7.9467,-7.9676,-8.0028,-7.8977,-7.8579,-7.8329,-7.6902,-7.6529,-7.6717,-7.6038,-7.6222,-7.6659,-7.6729,-7.699,-7.7223,-7.7223,-7.7223,-7.7223,-7.7223,-7.7223,-7.7223,-7.7223,-7.7223,-7.7223,-7.7223,-7.7223,-7.7016,-7.6326,-7.6189,-7.5982,-7.5223,-7.5085,-7.4998,-7.4699,-7.4665,-7.4576,-7.424,0.0,0.0,0.0,0.0,0.0,0.0,-7.554,-7.5033,0.0,0.0,0.0,0.0,0.0,0.0,-7.4695,-7.4559,-7.4221,-7.3578,-7.3612,-7.4796,-7.7063,-7.9126,-8.0141,-8.0209,-8.0953,-8.1697,-8.2441,-8.3219,-8.3558,-8.3558,-8.4302,-8.4167,-8.3558,-8.4336,-8.464,-8.464,-8.464,-8.464,-8.464,0.0,0.0,-7.5818,-7.5677,-7.5312,-7.5015,-7.5082,-7.572,-7.6571,-7.7641,-7.853,-7.9283,-8.0124,-8.0391,-8.0506,-8.0506,-8.0506,-8.0506,-8.0506,-8.1881,-8.2722,-8.2722,-8.3715,-8.4098,-8.3715,-8.3219,-8.2019,-8.0064,-8.002,-7.9416,-7.8295,-7.7943,-7.8041,-7.8625,-7.7606,-7.7651,-7.8448,-7.8924,-7.9251,-7.9576,-7.9894,-7.9745,-7.9168,-7.8155,-7.7437,-7.6902,-7.6509,-7.6174,-7.6109,-7.678,-7.6852,-7.6764,-7.7006,-7.7175,-7.7223,-7.7223,-7.7223,-7.7223,-7.7223,-7.7223,-7.7223,-7.7223,-7.7223,-7.7223,-7.7223,-7.7223,-7.7154,-7.7016,-7.6947,-7.6913,-7.6706,-7.6671,-7.641,-7.5523,-7.5455,-7.507,-7.4162,0.0,0.0,0.0,-7.4111,-7.4018,-7.4018,-7.4018,-7.4593,0.0,0.0,0.0,0.0,0.0,-7.5912,-7.4661,-7.4052,-7.395,-7.4356,-7.4897,-7.6318,-7.8585,-7.9126,-7.9667,-8.0209,-8.0953,-8.1697,-8.2475,-8.3795,-8.4031,-8.3558,-8.4302,-8.4167,-8.3558,-8.4336,-8.464,-8.464,-8.464,-8.464,-8.464,-7.632,-7.6313,-7.6144,-7.5741,-7.5986,-7.6248,-7.6471,-7.7306,-7.8168,-7.8823,-7.9459,-8.0009,-8.043,-8.0506,-8.0506,-8.0506,-8.0506,-8.0659,-8.1079,-8.2302,-8.3181,-8.3563,-8.4059,-8.4289,-8.4289,-8.3448,-8.2281,-8.0731,-8.087,-8.0337,-7.8976,-7.8683,-7.8705,-7.9075,-7.8368,-7.8484,-7.9281,-7.9503,-7.9756,-8.0008,-7.9784,-7.9307,-7.8695,-7.7512,-7.6937,-7.6866,-7.6509,-7.6453,-7.6534,-7.7217,-7.7159,-7.6937,-7.7175,-7.7223,-7.7223,-7.7223,-7.7223,-7.7223,-7.7223,-7.7223,-7.7223,-7.7223,-7.7223,-7.7223,-7.7223,-7.7223,-7.7223,-7.7223,-7.7223,-7.7223,-7.7223,-7.7223,-7.6996,-7.6222,-7.5754,-7.5197,-7.4364,-7.3898,0.0,-7.3477,-7.3477,-7.3477,-7.3477,-7.3477,-7.3984,-7.5236,0.0,0.0,-7.5811,-7.5439,-7.4864,-7.4119,-7.4052,-7.4356,-7.51,-7.6521,-7.7705,-7.8619,-7.9295,-7.9634,-7.9769,-8.1156,-8.2035,-8.2509,-8.3964,-8.3998,-8.3084,-8.4167,-8.3998,-8.3118,-8.42,-8.464,-8.464,-8.464,-8.464,-8.464,-7.6087,-7.6571,-7.6843,-7.6376,-7.7365,-7.8246,-7.8223,-7.9199,-7.9891,-7.9761,-8.0152,-8.0506,-8.0506,-8.0506,-8.0506,-8.0506,-8.0506,-8.0812,-8.1576,-8.2607,-8.3448,-8.4059,-8.4327,-8.4403,-8.4289,-8.3448,-8.2513,-8.152,-8.1457,-8.0823,-7.9753,-7.9406,-7.9215,-7.9293,-7.9021,-7.9318,-8.0078,-7.9865,-8.0044,-8.0436,-7.9386,-7.8767,-7.8365,-7.6937,-7.6795,-7.7259,-7.6684,-7.6859,-7.7451,-7.7473,-7.7371,-7.7223,-7.7223,-7.7223,-7.7223,-7.7223,-7.7223,-7.7223,-7.7223,-7.7223,-7.7223,-7.7223,-7.7223,-7.7223,-7.7223,-7.7223,-7.7223,-7.7223,-7.7223,-7.7223,-7.7223,-7.7223,-7.7112,-7.6895,-7.6085,-7.5423,-7.5195,0.0,-7.3815,-7.3815,-7.3815,-7.3815,-7.3815,-7.3815,-7.3815,-7.3815,-7.4322,0.0,0.0,-7.4627,-7.4322,-7.368,-7.4289,-7.5033,-7.5879,-7.7908,-7.8686,-7.8179,-7.9329,-7.9667,-7.9329,-8.1325,-8.2306,-8.2475,-8.3862,-8.3693,-8.2509,-8.3761,-8.3558,-8.2543,-8.393,-8.4539,-8.464,-8.464,-8.464,-8.464,-7.7763,-7.7428,-7.7389,-7.8675,-7.8372,-7.8359,-7.9509,-7.966,-7.9838,-8.0308,-8.0428,-8.0506,-8.0506,-8.0506,-8.0506,-8.0506,-8.0506,-8.0544,-8.0697,-8.2837,-8.383,-8.3219,-8.4556,-8.5015,-8.4289,-8.3448,-8.2675,-8.2082,-8.1619,-8.1252,-8.097,-7.9779,-7.9735,-8.0745,-8.0026,-8.0151,-8.0911,-8.055,-8.04,-8.0361,-7.9236,-7.8294,-7.758,-7.6723,-7.6474,-7.6542,-7.6772,-7.7082,-7.7438,-7.7767,-7.7562,-7.7223,-7.7223,-7.7223,-7.7223,-7.7223,-7.7223,-7.7223,-7.7223,-7.7223,-7.7223,-7.7223,-7.7223,-7.7223,-7.7223,-7.7223,-7.7223,-7.7223,-7.7223,-7.7223,-7.7223,-7.7223,-7.7456,-7.8263,-7.7212,-7.6582,0.0,0.0,-7.5371,-7.5371,-7.5371,-7.5371,-7.5371,-7.5371,-7.5371,-7.5371,-7.4897,-7.4627,-7.4627,-7.4627,-7.4559,-7.4424,-7.4559,-7.5303,-7.669,-7.7671,-7.8416,-7.8923,-7.8517,-7.8923,-8.0073,-8.1021,-8.1799,-8.2475,-8.3287,-8.3186,-8.2441,-8.2678,-8.2611,-8.2509,-8.3355,-8.4065,-8.464,-8.464,-8.464,-8.464,-7.7618,-7.8012,-7.8597,-7.9376,-7.9369,-7.9563,-8.0546,-8.0492,-8.035,-8.0467,-8.0506,-8.0506,-8.0506,-8.0506,-8.0506,-8.0506,-8.0926,-8.1194,-8.1194,-8.3142,-8.4289,-8.4365,-8.5091,-8.5129,-8.4327,-8.4327,-8.4088,-8.3536,-8.3304,-8.2925,-8.2403,-8.1784,-8.1526,-8.1553,-8.1197,-8.0975,-8.0876,-8.0656,-8.0182,-7.964,-7.8516,-7.758,-7.6866,-7.6509,-7.6652,-7.7005,-7.7405,-7.7707,-7.8034,-7.7961,-7.7544,-7.7223,-7.7223,-7.7223,-7.7223,-7.7223,-7.7223,-7.7223,-7.7223,-7.7223,-7.7223,-7.7223,-7.7223,-7.7223,-7.7223,-7.7223,-7.7223,-7.7223,-7.7223,-7.7223,-7.7223,-7.7223,-7.7284,-7.7511,-7.6597,0.0,0.0,-7.5202,-7.4492,-7.4492,-7.4492,-7.4492,-7.4492,-7.4492,-7.4492,-7.4492,-7.4559,-7.4627,-7.4627,-7.4999,-7.5405,-7.5845,-7.5845,-7.6386,-7.7468,-7.8213,-7.8551,-7.8517,-7.8957,-7.9329,-7.9667,-8.119,-8.2069,-8.2441,-8.3186,-8.3084,-8.2408,-8.2408,-8.2408,-8.2475,-8.3219,-8.3964,-8.464,-8.464,-8.464,-8.464,-7.7969,-7.8909,-7.9832,-7.9987,-8.0353,-8.0722,-8.1143,-8.0992,-8.0711,-8.0543,-8.0506,-8.0506,-8.0506,-8.0506,-8.0506,-8.0506,-8.1308,-8.1881,-8.2073,-8.3639,-8.4785,-8.5206,-8.5397,-8.5206,-8.4594,-8.5167,-8.5311,-8.4892,-8.4757,-8.439,-8.3795,-8.3525,-8.3074,-8.2449,-8.2323,-8.1776,-8.0984,-8.0804,-8.0079,-7.8917,-7.7905,-7.7152,-7.6652,-7.6474,-7.6898,-7.7637,-7.785,-7.8154,-7.8322,-7.7893,-7.749,-7.7223,-7.7223,-7.7223,-7.7223,-7.7223,-7.7223,-7.7223,-7.7223,-7.7223,-7.7223,-7.7223,-7.7223,-7.7223,-7.7223,-7.7223,-7.7223,-7.7223,-7.7223,-7.7223,-7.7223,-7.7133,-7.7056,-7.7032,0.0,0.0,0.0,-7.4593,-7.3984,-7.3984,-7.3984,-7.3984,-7.3984,-7.3984,-7.3984,-7.3984,-7.4525,-7.4864,-7.4864,-7.5574,-7.6352,-7.713,-7.7164,-7.7333,-7.7739,-7.8483,-7.8653,-7.8247,-7.9397,-7.9837,-7.9667,-8.1562,-8.2509,-8.2678,-8.3084,-8.2915,-8.2374,-8.2035,-8.2103,-8.2475,-8.3016,-8.3795,-8.464,-8.464,-8.464,-8.464,-8.0402,-8.0623,-8.0896,-8.1442,-8.1381,-8.1182,-8.0953,-8.0716,-8.0505,-8.0506,-8.0506,-8.0506,-8.0506,-8.0506,-8.0506,-8.0506,-8.1308,-8.2111,-8.2837,-8.448,-8.5129,-8.4403,-8.5091,-8.5473,-8.5397,-8.5473,-8.5471,-8.5433,-8.4937,-8.484,-8.5051,-8.39,-8.3525,-8.3726,-8.3169,-8.2412,-8.1605,-8.1433,-8.0476,-7.8917,-7.7905,-7.7473,-7.733,-7.6652,-7.7103,-7.7992,-7.7579,-7.7657,-7.7893,-7.7402,-7.7223,-7.7223,-7.7223,-7.7223,-7.7223,-7.7223,-7.7223,-7.7223,-7.7223,-7.7223,-7.7223,-7.7223,-7.7223,-7.7223,-7.7223,-7.7223,-7.7223,-7.7223,-7.7223,-7.7223,-7.7223,-7.7009,-7.7182,-7.834,0.0,0.0,-7.7634,-7.6454,-7.554,-7.554,-7.554,-7.554,-7.554,-7.554,-7.554,-7.554,-7.5574,-7.5608,-7.5608,-7.6386,-7.7164,-7.7874,-7.7908,-7.7604,-7.6995,-7.7705,-7.8382,-7.9025,-7.9126,-7.987,-8.1156,-8.2002,-8.278,-8.3389,-8.2746,-8.2475,-8.2306,-8.0919,-8.1156,-8.2408,-8.2475,-8.3355,-8.464,-8.464,-8.464,-8.464,-8.0752,-8.1247,-8.1636,-8.1696,-8.1475,-8.1207,-8.0931,-8.0681,-8.0506,-8.0506,-8.0506,-8.0506,-8.0506,-8.0506,-8.0735,-8.127,-8.2073,-8.2913,-8.3754,-8.4862,-8.5588,-8.5855,-8.5626,-8.5511,-8.5511,-8.5511,-8.5511,-8.5511,-8.5228,-8.5181,-8.5219,-8.4656,-8.423,-8.387,-8.349,-8.2876,-8.2031,-8.1227,-8.003,-7.8531,-7.7631,-7.7054,-7.683,-7.7009,-7.753,-7.8054,-7.8142,-7.8077,-7.7807,-7.7402,-7.7223,-7.7223,-7.7223,-7.7223,-7.7223,-7.7223,-7.7223,-7.7223,-7.7223,-7.7223,-7.7223,-7.7223,-7.7223,-7.7223,-7.7223,-7.7223,-7.7223,-7.7223,-7.7223,-7.7223,-7.7223,-7.7009,-7.6908,-7.7247,0.0,-7.6232,-7.6487,-7.6082,-7.5709,-7.5709,-7.5709,-7.5709,-7.5709,-7.5709,-7.5709,-7.5709,-7.5709,-7.5912,-7.642,-7.7164,-7.7502,-7.7299,-7.7739,-7.7874,-7.757,-7.8314,-7.8822,-7.9126,-7.9566,-8.031,-8.1325,-8.2069,-8.2543,-8.2813,-8.2543,-8.2137,-8.1629,-8.0615,-8.1088,-8.2408,-8.2408,-8.3321,-8.464,-8.464,-8.464,-8.464,-8.122,-8.1597,-8.1913,-8.164,-8.1359,-8.1175,-8.1222,-8.0803,-8.0582,-8.0887,-8.0696,-8.0506,-8.0506,-8.0506,-8.085,-8.1729,-8.2376,-8.3097,-8.3974,-8.4774,-8.5578,-8.639,-8.5817,-8.5511,-8.5511,-8.5511,-8.5471,-8.5471,-8.5429,-8.5304,-8.5176,-8.5051,-8.4741,-8.4218,-8.387,-8.3228,-8.2166,-8.1276,-7.9785,-7.7916,-7.7339,-7.6949,-7.6795,-7.7179,-7.7689,-7.8282,-7.8315,-7.8066,-7.7632,-7.7313,-7.7223,-7.7223,-7.7223,-7.7223,-7.7223,-7.7223,-7.7223,-7.7223,-7.7223,-7.7223,-7.7223,-7.7223,-7.7223,-7.7223,-7.7223,-7.7223,-7.7223,-7.7223,-7.7223,-7.7223,-7.7223,-7.6918,-7.6645,-7.6495,-7.6216,-7.5899,-7.5709,-7.5709,-7.5709,-7.5709,-7.5709,-7.5709,-7.5709,-7.5709,-7.5709,-7.5709,-7.5709,-7.6149,-7.7198,-7.7502,-7.7638,-7.7604,-7.8077,-7.8348,-7.8348,-7.8855,-7.9228,-7.9464,-7.9972,-8.0716,-8.1663,-8.2171,-8.2543,-8.2746,-8.2509,-8.1968,-8.1224,-8.0513,-8.0919,-8.2069,-8.2306,-8.3186,-8.4302,-8.4539,-8.464,-8.464,-8.2104,-8.1859,-8.164,-8.1359,-8.107,-8.1113,-8.1834,-8.1115,-8.0849,-8.1801,-8.1077,-8.0506,-8.0506,-8.0506,-8.085,-8.1729,-8.2053,-8.2589,-8.3347,-8.4218,-8.4937,-8.5471,-8.5511,-8.5511,-8.5511,-8.5511,-8.5471,-8.5388,-8.5388,-8.5262,-8.5006,-8.5006,-8.4999,-8.4901,-8.4541,-8.3524,-8.1997,-8.1689,-7.9874,-7.7122,-7.7122,-7.7272,-7.7433,-7.705,-7.7646,-7.849,-7.8066,-7.7544,-7.7223,-7.7223,-7.7223,-7.7223,-7.7223,-7.7223,-7.7223,-7.7223,-7.7223,-7.7223,-7.7223,-7.7223,-7.7223,-7.7223,-7.7223,-7.7223,-7.7223,-7.7223,-7.7223,-7.7223,-7.7223,-7.7223,-7.7223,-7.6862,-7.6495,-7.6495,-7.6088,-7.5709,-7.5709,-7.5709,-7.5709,-7.5709,-7.5709,-7.5709,-7.5709,-7.5709,-7.5709,-7.5709,-7.5709,-7.6386,-7.7908,-7.7299,-7.7604,-7.9058,-7.9126,-7.9126,-7.9126,-7.9126,-7.9498,-8.0209,-8.0209,-8.0987,-8.2408,-8.2408,-8.2813,-8.3456,-8.2712,-8.1968,-8.1224,-8.0479,-8.0615,-8.1359,-8.2103,-8.2847,-8.3592,-8.4336,-8.464,-8.464,-8.2104,-8.1859,-8.164,-8.1407,-8.1154,-8.1208,-8.1904,-8.1796,-8.1911,-8.2789,-8.2066,-8.1496,-8.1496,-8.1422,-8.1729,-8.2569,-8.3254,-8.3849,-8.4302,-8.456,-8.4803,-8.4937,-8.5311,-8.5511,-8.5511,-8.5511,-8.5471,-8.5388,-8.5304,-8.5138,-8.5006,-8.4954,-8.4947,-8.4854,-8.4343,-8.3509,-8.2473,-8.1419,-7.9744,-7.7698,-7.7505,-7.743,-7.7473,-7.7437,-7.7894,-7.849,-7.8066,-7.7544,-7.7223,-7.7223,-7.7223,-7.7223,-7.7223,-7.7223,-7.7223,-7.7223,-7.7223,-7.7223,-7.7223,-7.7223,-7.7223,-7.7223,-7.7223,-7.7223,-7.7223,-7.7223,-7.7223,-7.7223,-7.7223,-7.7133,-7.6918,-7.6645,-7.6402,-7.6216,-7.5899,-7.5709,-7.5709,-7.5709,-7.5709,-7.5709,-7.5709,-7.5709,-7.5709,-7.5709,-7.5709,-7.5709,-7.669,-7.7266,-7.7232,-7.801,-7.8653,-7.9092,-7.9126,-7.9363,-7.987,-7.987,-7.9972,-8.0209,-8.0209,-8.0987,-8.2408,-8.2408,-8.2543,-8.2712,-8.2509,-8.1697,-8.0513,-8.0276,-8.0615,-8.1359,-8.2103,-8.2847,-8.3592,-8.4336,-8.464,-8.464,-8.1959,-8.1717,-8.1475,-8.1285,-8.1321,-8.165,-8.251,-8.2591,-8.2783,-8.3316,-8.2595,-8.1952,-8.1915,-8.1879,-8.2302,-8.341,-8.3887,-8.4135,-8.4155,-8.4092,-8.4205,-8.4711,-8.498,-8.527,-8.5431,-8.5431,-8.5391,-8.5224,-8.5138,-8.5089,-8.4954,-8.4947,-8.4854,-8.4637,-8.3903,-8.3007,-8.2024,-8.0768,-7.9164,-7.7458,-7.7594,-7.7502,-7.7317,-7.7453,-7.7823,-7.8237,-7.7807,-7.749,-7.7223,-7.7223,-7.7223,-7.7223,-7.7223,-7.7223,-7.7223,-7.7223,-7.7223,-7.7223,-7.7223,-7.7223,-7.7223,-7.7223,-7.7223,-7.7223,-7.7223,-7.7223,-7.7223,-7.7223,-7.7223,-7.7133,-7.6793,-7.6645,-7.6402,-7.6122,-7.5899,-7.5709,-7.5709,-7.5709,-7.5709,-7.5709,-7.5709,-7.5709,-7.5709,-7.5709,-7.5845,-7.6149,-7.7029,-7.7604,-7.7773,-7.8619,-7.9228,-7.9532,-7.9532,-7.9769,-8.0209,-8.0209,-8.0209,-8.0209,-8.0479,-8.1257,-8.2408,-8.2408,-8.2408,-8.2408,-8.2103,-8.1291,-8.0209,-8.0209,-8.0445,-8.0953,-8.2002,-8.2678,-8.3186,-8.4234,-8.464,-8.464,-8.1735,-8.1475,-8.1259,-8.108,-8.1431,-8.2141,-8.3231,-8.3312,-8.3278,-8.3461,-8.2702,-8.2061,-8.203,-8.203,-8.2644,-8.4174,-8.4079,-8.3779,-8.3301,-8.3206,-8.358,-8.458,-8.4711,-8.493,-8.5388,-8.5388,-8.5304,-8.5006,-8.5006,-8.4999,-8.4901,-8.4901,-8.4722,-8.4367,-8.3288,-8.2152,-8.1062,-7.9949,-7.8426,-7.6866,-7.7668,-7.7591,-7.6965,-7.7344,-7.7705,-7.7807,-7.7402,-7.7223,-7.7223,-7.7223,-7.7223,-7.7223,-7.7223,-7.7223,-7.7223,-7.7223,-7.7223,-7.7223,-7.7223,-7.7223,-7.7223,-7.7223,-7.7223,-7.7223,-7.7223,-7.7223,-7.7223,-7.7223,-7.7223,-7.7133,-7.6828,-7.6645,-7.6402,-7.6122,-7.5899,-7.5709,-7.5709,-7.5709,-7.5709,-7.5709,-7.5709,-7.5709,-7.5709,-7.5709,-7.6014,-7.6826,-7.6961,-7.7604,-7.9025,-7.916,-7.9532,-8.0175,-8.0209,-8.0209,-8.0209,-8.0209,-8.0209,-8.0209,-8.0953,-8.1697,-8.2408,-8.2408,-8.2408,-8.2374,-8.1596,-8.0885,-8.0209,-8.0209,-8.0209,-8.0344,-8.1832,-8.2408,-8.2611,-8.4065,-8.464,-8.464,-8.1735,-8.1475,-8.1259,-8.1175,-8.1068,-8.1363,-8.2375,-8.2561,-8.2792,-8.3484,-8.2698,-8.2326,-8.2943,-8.2835,-8.3181,-8.4212,-8.4436,-8.4193,-8.3358,-8.3937,-8.4242,-8.4092,-8.484,-8.5224,-8.5262,-8.5346,-8.5304,-8.5006,-8.5006,-8.4999,-8.4901,-8.4901,-8.4722,-8.4367,-8.3288,-8.2152,-8.1062,-7.9949,-7.8697,-7.7426,-7.8551,-7.8406,-7.7548,-7.8146,-7.8176,-7.7807,-7.7402,-7.7223,-7.7223,-7.7223,-7.7223,-7.7223,-7.7223,-7.7223,-7.7223,-7.7223,-7.7223,-7.7223,-7.7223,-7.7223,-7.7223,-7.7223,-7.7223,-7.7223,-7.7223,-7.7223,-7.7223,-7.7223,-7.7223,-7.7043,-7.6679,-7.6495,-7.6309,-7.5899,-7.5709,-7.5709,-7.5709,-7.5709,-7.5709,-7.5709,-7.5709,-7.5709,-7.5709,-7.5709,-7.6014,-7.6826,-7.7435,-7.8145,-7.9058,-7.9667,-8.004,-8.0175,-8.0209,-8.0209,-8.0209,-8.0209,-8.0209,-8.0209,-8.0953,-8.1697,-8.2408,-8.2408,-8.2408,-8.2374,-8.1596,-8.0885,-8.0209,-8.0209,-8.0209,-8.0344,-8.1832,-8.2408,-8.2611,-8.4065,-8.464,-8.4708,-8.1581,-8.143,-8.1259,-8.1039,-8.1266,-8.1661,-8.2215,-8.2631,-8.2939,-8.2978,-8.2874,-8.2928,-8.3246,-8.356,-8.3983,-8.4584,-8.4708,-8.4448,-8.3763,-8.4092,-8.4292,-8.4292,-8.4711,-8.5013,-8.5219,-8.5219,-8.5094,-8.4954,-8.4954,-8.4909,-8.4901,-8.4306,-8.3936,-8.3565,-8.2106,-8.1003,-8.0246,-7.9298,-7.8116,-7.6956,-7.8327,-7.7984,-7.6773,-7.7903,-7.8034,-7.7544,-7.7313,-7.7223,-7.7223,-7.7223,-7.7223,-7.7223,-7.7223,-7.7223,-7.7223,-7.7223,-7.7223,-7.7223,-7.7223,-7.7223,-7.7223,-7.7223,-7.7223,-7.7223,-7.7223,-7.7223,-7.7223,-7.7223,-7.7223,-7.7043,-7.6587,-7.6495,-7.6309,-7.5805,-7.5709,-7.5709,-7.5709,-7.5709,-7.5709,-7.5709,-7.5709,-7.5709,-7.5709,-7.6048,-7.6589,-7.7367,-7.8111,-7.8855,-7.96,-8.0006,-8.0209,-8.0209,-8.0209,-8.0209,-8.0209,-8.0209,-8.0378,-8.0716,-8.146,-8.2035,-8.2408,-8.2408,-8.2408,-8.234,-8.1257,-8.0547,-8.0209,-8.0209,-8.0209,-8.0344,-8.1832,-8.2611,-8.305,-8.42,-8.464,-8.4674,-8.1407,-8.1335,-8.1207,-8.0855,-8.1551,-8.2188,-8.2131,-8.2824,-8.3054,-8.2208,-8.2792,-8.3303,-8.3285,-8.4169,-8.4786,-8.4975,-8.4937,-8.4681,-8.4142,-8.4142,-8.4341,-8.4673,-8.4665,-8.4795,-8.5219,-8.5051,-8.4954,-8.4901,-8.4901,-8.4825,-8.4673,-8.3682,-8.2937,-8.2392,-8.0683,-7.9687,-7.9315,-7.8611,-7.7592,-7.657,-7.7969,-7.748,-7.6069,-7.7473,-7.7632,-7.7223,-7.7223,-7.7223,-7.7223,-7.7223,-7.7223,-7.7223,-7.7223,-7.7223,-7.7223,-7.7223,-7.7223,-7.7223,-7.7223,-7.7223,-7.7223,-7.7223,-7.7223,-7.7223,-7.7223,-7.7223,-7.7223,-7.7223,-7.7223,-7.7043,-7.6587,-7.6495,-7.6309,-7.5805,-7.5709,-7.5709,-7.5709,-7.5709,-7.5709,-7.5709,-7.5709,-7.5709,-7.5709,-7.642,-7.7198,-7.7942,-7.8686,-7.9431,-8.0175,-8.0209,-8.0209,-8.0209,-8.0209,-8.0209,-8.0209,-8.0209,-8.0547,-8.1291,-8.2069,-8.2475,-8.2577,-8.2475,-8.2408,-8.234,-8.0851,-8.0209,-8.0209,-8.0209,-8.0209,-8.0344,-8.1697,-8.2746,-8.3625,-8.4505,-8.4809,-8.4809,-8.1383,-8.1181,-8.0992,-8.086,-8.1551,-8.1996,-8.1362,-8.1939,-8.217,-8.1362,-8.181,-8.2514,-8.3208,-8.4557,-8.5276,-8.5013,-8.5228,-8.5024,-8.4142,-8.4848,-8.5105,-8.4711,-8.4968,-8.5138,-8.5219,-8.4999,-8.4901,-8.4901,-8.4901,-8.4522,-8.3764,-8.338,-8.2448,-8.1027,-8.0277,-7.9484,-7.8772,-7.8442,-7.8071,-7.7799,-7.8601,-7.8239,-7.7322,-7.8119,-7.7945,-7.7223,-7.7223,-7.7223,-7.7223,-7.7223,-7.7223,-7.7223,-7.7223,-7.7223,-7.7223,-7.7223,-7.7223,-7.7223,-7.7223,-7.7223,-7.7223,-7.7223,-7.7223,-7.7223,-7.7223,-7.7223,-7.7223,-7.7223,-7.7223,-7.7043,-7.6587,-7.6495,-7.6309,-7.5805,-7.5709,-7.5709,-7.5709,-7.5709,-7.5709,-7.5709,-7.5709,-7.5709,-7.5709,-7.642,-7.7198,-7.7942,-7.8686,-7.9431,-8.0175,-8.0209,-8.0209,-8.0209,-8.0209,-8.0209,-8.0209,-8.0209,-8.0547,-8.1291,-8.2069,-8.2746,-8.3321,-8.2712,-8.2408,-8.234,-8.0851,-8.0209,-8.0209,-8.0209,-8.0209,-8.0276,-8.1122,-8.2272,-8.3659,-8.5114,-8.5621,-8.5621,-8.1154,-8.108,-8.103,-8.086,-8.1272,-8.1484,-8.117,-8.14,-8.167,-8.1747,-8.2347,-8.309,-8.3937,-8.4939,-8.5511,-8.5308,-8.5471,-8.5393,-8.4892,-8.527,-8.5391,-8.51,-8.5138,-8.5138,-8.5094,-8.4954,-8.4901,-8.4901,-8.4901,-8.44,-8.3351,-8.2659,-8.144,-7.9874,-7.8944,-7.8168,-7.7521,-7.7217,-7.7265,-7.7523,-7.7451,-7.7469,-7.7417,-7.7662,-7.7544,-7.7223,-7.7223,-7.7223,-7.7223,-7.7223,-7.7223,-7.7223,-7.7223,-7.7223,-7.7223,-7.7223,-7.7223,-7.7223,-7.7223,-7.7223,-7.7223,-7.7223,-7.7223,-7.7223,-7.7223,-7.7223,-7.7223,-7.7223,-7.7099,-7.6918,-7.6587,-7.6402,-7.6122,-7.5805,-7.5709,-7.5709,-7.5709,-7.5709,-7.5709,-7.5709,-7.5709,-7.5709,-7.5709,-7.6792,-7.7638,-7.7976,-7.9058,-7.987,-8.0175,-8.0209,-8.0209,-8.0209,-8.0209,-8.0209,-8.0209,-8.0615,-8.119,-8.1934,-8.2678,-8.2983,-8.2881,-8.2543,-8.2171,-8.1731,-8.0648,-8.0209,-8.0209,-8.0209,-8.0209,-8.0276,-8.0987,-8.2171,-8.3727,-8.5689,-8.5858,-8.5074]}]]